[[{"header":{"parameterUnit":"m.s-1","parameterCategory":1,"la1":31.0,"la2":29.5877,"lo1":-88.7671,"lo2":-86.6584,"dx":0.0162,"dy":0.0185,"nx":115,"ny":88,"refTime":"2023-02-13T18:00:00:Z","depth":0,"parameterNumber":2,"parameterNumberName":"U-component_of_WINDS"},"data":[0.0,0.0,0.0,0.0,0.0,0.0,0.0,0.0,0.0,0.0,0.0,0.0,0.0,0.0,0.0,0.0,0.0,0.0,0.0,0.0,0.0,0.0,0.0,0.0,0.0,0.0,0.0,0.0,0.0,0.0,0.0,0.0,0.0,0.0,0.0,0.0,0.0,0.0,0.0,0.0,0.0,0.0,0.0,0.0,0.0,0.0,0.0,0.0,0.0,0.0,0.0,0.0,0.0,0.0,0.0,0.0,0.0,0.0,0.0,0.0,0.0,0.0,0.0,0.0,0.0,0.0,0.0,0.0,0.0,0.0,0.0,0.0,0.0,0.0,0.0,0.0,0.0,0.0,0.0,0.0,0.0,0.0,0.0,0.0,0.0,0.0,0.0,0.0,0.0,0.0,0.0,0.0,0.0,0.0,0.0,0.0,0.0,0.0,0.0,0.0,0.0,0.0,0.0,0.0,0.0,0.0,0.0,0.0,0.0,0.0,0.0,0.0,0.0,0.0,0.0,0.0,0.0,0.0,0.0,0.0,0.0,0.0,0.0,0.0,0.0,0.0,0.0,0.0,0.0,0.0,0.0,0.0,0.0,0.0,0.0,0.0,0.0,0.0,0.0,0.0,0.0,0.0,0.0,0.0,0.0,0.0,0.0,0.0,0.0,0.0,0.0,0.0,0.0,0.0,0.0,0.0,0.0,0.0,0.0,0.0,0.0,0.0,0.0,0.0,0.0,0.0,0.0,0.0,0.0,0.0,0.0,0.0,0.0,0.0,0.0,0.0,0.0,0.0,0.0,0.0,0.0,0.0,0.0,0.0,0.0,0.0,0.0,0.0,0.0,0.0,0.0,0.0,0.0,0.0,0.0,0.0,0.0,0.0,0.0,0.0,0.0,0.0,0.0,0.0,0.0,0.0,0.0,0.0,0.0,0.0,0.0,0.0,0.0,0.0,0.0,0.0,0.0,0.0,0.0,0.0,0.0,0.0,0.0,0.0,0.0,0.0,0.0,0.0,0.0,0.0,0.0,0.0,0.0,0.0,0.0,0.0,0.0,0.0,0.0,0.0,0.0,0.0,0.0,0.0,0.0,0.0,0.0,0.0,0.0,0.0,0.0,0.0,0.0,0.0,0.0,0.0,0.0,0.0,0.0,0.0,0.0,0.0,0.0,0.0,0.0,0.0,0.0,0.0,0.0,0.0,0.0,0.0,0.0,0.0,0.0,0.0,0.0,0.0,0.0,0.0,0.0,0.0,0.0,0.0,0.0,0.0,0.0,0.0,0.0,0.0,0.0,0.0,0.0,0.0,0.0,0.0,0.0,0.0,0.0,0.0,0.0,0.0,0.0,0.0,0.0,0.0,0.0,0.0,0.0,0.0,0.0,0.0,0.0,0.0,0.0,0.0,0.0,0.0,0.0,0.0,0.0,0.0,0.0,0.0,0.0,0.0,0.0,0.0,0.0,0.0,0.0,0.0,0.0,0.0,0.0,0.0,0.0,0.0,0.0,0.0,0.0,0.0,0.0,0.0,0.0,0.0,0.0,0.0,0.0,0.0,0.0,0.0,0.0,0.0,0.0,0.0,0.0,0.0,0.0,0.0,0.0,0.0,0.0,0.0,0.0,0.0,0.0,0.0,0.0,0.0,0.0,0.0,0.0,0.0,0.0,0.0,0.0,0.0,0.0,0.0,0.0,0.0,0.0,0.0,0.0,0.0,0.0,0.0,0.0,0.0,0.0,0.0,0.0,0.0,0.0,0.0,0.0,0.0,0.0,0.0,0.0,0.0,0.0,0.0,0.0,0.0,0.0,0.0,0.0,0.0,0.0,0.0,0.0,0.0,0.0,0.0,0.0,0.0,0.0,0.0,0.0,0.0,0.0,0.0,0.0,0.0,0.0,0.0,0.0,0.0,0.0,0.0,0.0,0.0,0.0,0.0,0.0,0.0,0.0,0.0,0.0,0.0,0.0,0.0,0.0,0.0,0.0,0.0,0.0,0.0,0.0,0.0,0.0,0.0,0.0,0.0,0.0,0.0,0.0,0.0,0.0,0.0,0.0,0.0,0.0,0.0,0.0,0.0,0.0,0.0,0.0,0.0,0.0,0.0,0.0,0.0,0.0,0.0,0.0,0.0,0.0,0.0,0.0,0.0,0.0,0.0,0.0,0.0,0.0,0.0,0.0,0.0,0.0,0.0,0.0,0.0,0.0,0.0,0.0,0.0,0.0,0.0,0.0,0.0,0.0,0.0,0.0,0.0,0.0,0.0,0.0,0.0,0.0,0.0,0.0,0.0,0.0,0.0,0.0,0.0,0.0,0.0,0.0,0.0,0.0,0.0,0.0,0.0,0.0,0.0,0.0,0.0,0.0,0.0,0.0,0.0,0.0,0.0,0.0,0.0,0.0,0.0,0.0,0.0,0.0,0.0,0.0,0.0,0.0,0.0,0.0,0.0,0.0,0.0,0.0,0.0,0.0,0.0,0.0,0.0,0.0,0.0,0.0,0.0,0.0,0.0,0.0,0.0,0.0,0.0,0.0,0.0,0.0,0.0,0.0,0.0,0.0,0.0,0.0,0.0,0.0,0.0,0.0,0.0,0.0,0.0,0.0,0.0,0.0,0.0,0.0,0.0,0.0,0.0,0.0,0.0,0.0,0.0,0.0,0.0,0.0,0.0,0.0,0.0,0.0,0.0,0.0,0.0,0.0,0.0,0.0,0.0,0.0,0.0,0.0,0.0,0.0,0.0,0.0,0.0,0.0,0.0,0.0,0.0,0.0,0.0,0.0,0.0,0.0,0.0,0.0,0.0,0.0,0.0,0.0,0.0,0.0,0.0,0.0,0.0,0.0,0.0,0.0,0.0,0.0,0.0,0.0,0.0,0.0,0.0,0.0,0.0,0.0,0.0,0.0,0.0,0.0,0.0,0.0,0.0,0.0,0.0,0.0,0.0,0.0,0.0,0.0,0.0,0.0,0.0,0.0,0.0,0.0,0.0,0.0,0.0,0.0,0.0,0.0,0.0,0.0,0.0,0.0,0.0,0.0,0.0,0.0,0.0,0.0,0.0,0.0,0.0,0.0,0.0,0.0,0.0,0.0,0.0,0.0,0.0,0.0,0.0,0.0,0.0,0.0,0.0,0.0,0.0,0.0,0.0,0.0,0.0,0.0,0.0,0.0,0.0,0.0,0.0,0.0,0.0,0.0,0.0,0.0,0.0,0.0,0.0,0.0,0.0,0.0,0.0,0.0,0.0,0.0,0.0,0.0,0.0,0.0,0.0,0.0,0.0,0.0,0.0,0.0,0.0,0.0,0.0,0.0,0.0,0.0,0.0,0.0,0.0,0.0,0.0,0.0,0.0,0.0,0.0,0.0,0.0,0.0,0.0,0.0,0.0,0.0,0.0,0.0,0.0,0.0,0.0,0.0,0.0,0.0,0.0,0.0,0.0,0.0,0.0,0.0,0.0,0.0,0.0,0.0,0.0,0.0,0.0,0.0,0.0,0.0,0.0,0.0,0.0,0.0,0.0,0.0,0.0,0.0,0.0,0.0,0.0,0.0,0.0,0.0,0.0,0.0,0.0,0.0,0.0,0.0,0.0,0.0,0.0,0.0,0.0,0.0,0.0,0.0,0.0,0.0,0.0,0.0,0.0,0.0,0.0,0.0,0.0,0.0,0.0,0.0,0.0,0.0,0.0,0.0,0.0,0.0,0.0,0.0,0.0,0.0,0.0,0.0,0.0,0.0,0.0,0.0,0.0,0.0,0.0,0.0,0.0,0.0,0.0,0.0,0.0,0.0,0.0,0.0,0.0,0.0,0.0,0.0,0.0,0.0,0.0,0.0,0.0,0.0,0.0,0.0,0.0,0.0,0.0,0.0,0.0,0.0,0.0,0.0,0.0,0.0,0.0,0.0,0.0,0.0,0.0,0.0,0.0,0.0,0.0,0.0,0.0,0.0,0.0,0.0,0.0,0.0,0.0,0.0,0.0,0.0,0.0,0.0,0.0,0.0,0.0,0.0,0.0,0.0,0.0,0.0,0.0,0.0,0.0,0.0,0.0,0.0,0.0,0.0,0.0,0.0,0.0,0.0,0.0,0.0,0.0,0.0,0.0,0.0,0.0,0.0,0.0,0.0,0.0,0.0,0.0,0.0,0.0,0.0,0.0,0.0,0.0,0.0,0.0,0.0,0.0,0.0,0.0,0.0,0.0,0.0,0.0,0.0,0.0,0.0,0.0,0.0,0.0,0.0,0.0,0.0,0.0,0.0,0.0,0.0,0.0,0.0,0.0,5.9512,0.0,0.0,0.0,0.0,0.0,0.0,0.0,0.0,0.0,0.0,0.0,0.0,0.0,0.0,0.0,0.0,0.0,0.0,0.0,0.0,0.0,0.0,0.0,0.0,0.0,0.0,0.0,0.0,0.0,0.0,0.0,0.0,0.0,0.0,0.0,0.0,0.0,0.0,0.0,0.0,0.0,0.0,0.0,0.0,0.0,0.0,0.0,0.0,0.0,0.0,0.0,0.0,0.0,0.0,0.0,0.0,0.0,0.0,0.0,0.0,0.0,0.0,0.0,0.0,0.0,0.0,0.0,0.0,0.0,0.0,0.0,0.0,0.0,0.0,0.0,0.0,0.0,0.0,0.0,0.0,0.0,0.0,0.0,0.0,0.0,0.0,0.0,0.0,0.0,0.0,0.0,0.0,0.0,0.0,0.0,0.0,0.0,0.0,0.0,0.0,0.0,0.0,0.0,0.0,0.0,0.0,0.0,0.0,0.0,0.0,5.9885,5.9857,5.9757,5.965,5.9545,0.0,0.0,0.0,0.0,0.0,0.0,0.0,0.0,0.0,0.0,0.0,0.0,0.0,0.0,0.0,0.0,0.0,0.0,0.0,0.0,0.0,0.0,0.0,0.0,0.0,0.0,0.0,0.0,0.0,0.0,0.0,0.0,0.0,0.0,0.0,0.0,0.0,0.0,0.0,0.0,0.0,0.0,0.0,0.0,0.0,0.0,0.0,0.0,0.0,0.0,0.0,0.0,0.0,0.0,0.0,0.0,0.0,0.0,0.0,0.0,0.0,0.0,0.0,0.0,0.0,0.0,0.0,0.0,0.0,0.0,0.0,0.0,0.0,0.0,0.0,0.0,0.0,0.0,0.0,0.0,0.0,0.0,0.0,0.0,0.0,0.0,0.0,0.0,0.0,0.0,0.0,0.0,0.0,0.0,0.0,0.0,0.0,0.0,0.0,0.0,0.0,0.0,0.0,0.0,0.0,0.0,0.0,0.0,0.0,0.0,0.0,0.0,5.9824,5.9723,5.9581,0.0,0.0,0.0,0.0,0.0,0.0,0.0,0.0,0.0,0.0,0.0,0.0,0.0,0.0,0.0,0.0,0.0,0.0,0.0,0.0,0.0,0.0,0.0,0.0,0.0,0.0,0.0,0.0,0.0,0.0,0.0,0.0,0.0,0.0,0.0,0.0,0.0,0.0,0.0,0.0,0.0,0.0,0.0,0.0,0.0,0.0,0.0,0.0,0.0,0.0,0.0,0.0,0.0,0.0,0.0,0.0,0.0,0.0,0.0,0.0,0.0,0.0,0.0,0.0,0.0,0.0,0.0,0.0,0.0,0.0,0.0,0.0,0.0,0.0,0.0,0.0,0.0,0.0,0.0,0.0,0.0,0.0,0.0,0.0,0.0,0.0,0.0,0.0,0.0,0.0,0.0,0.0,0.0,0.0,0.0,0.0,0.0,0.0,0.0,0.0,0.0,0.0,0.0,0.0,0.0,0.0,0.0,0.0,0.0,0.0,5.9885,5.9885,5.9824,0.0,5.9547,0.0,0.0,0.0,0.0,0.0,0.0,0.0,0.0,0.0,0.0,0.0,0.0,0.0,0.0,0.0,0.0,0.0,0.0,0.0,0.0,0.0,0.0,0.0,0.0,0.0,0.0,0.0,0.0,0.0,0.0,0.0,0.0,0.0,0.0,0.0,0.0,0.0,0.0,0.0,0.0,0.0,0.0,0.0,0.0,0.0,0.0,0.0,0.0,0.0,0.0,0.0,0.0,0.0,0.0,0.0,0.0,0.0,0.0,0.0,0.0,0.0,0.0,0.0,0.0,0.0,0.0,0.0,0.0,0.0,0.0,0.0,0.0,0.0,0.0,0.0,0.0,0.0,0.0,0.0,0.0,0.0,0.0,0.0,0.0,0.0,0.0,0.0,0.0,0.0,0.0,0.0,0.0,0.0,0.0,0.0,0.0,0.0,0.0,0.0,0.0,0.0,0.0,0.0,0.0,0.0,0.0,0.0,0.0,0.0,0.0,6.1363,6.1401,6.0808,6.0248,0.0,0.0,0.0,0.0,0.0,0.0,0.0,0.0,0.0,0.0,0.0,0.0,0.0,0.0,0.0,0.0,0.0,0.0,0.0,0.0,0.0,0.0,0.0,0.0,0.0,0.0,0.0,0.0,0.0,0.0,0.0,0.0,0.0,0.0,0.0,0.0,0.0,0.0,0.0,0.0,0.0,0.0,0.0,0.0,0.0,0.0,0.0,0.0,0.0,0.0,0.0,0.0,0.0,0.0,0.0,0.0,0.0,0.0,0.0,0.0,0.0,0.0,0.0,0.0,0.0,0.0,0.0,0.0,0.0,0.0,0.0,0.0,0.0,0.0,0.0,0.0,0.0,0.0,0.0,0.0,0.0,0.0,0.0,0.0,0.0,0.0,0.0,0.0,0.0,0.0,0.0,0.0,0.0,0.0,0.0,0.0,0.0,0.0,0.0,0.0,0.0,0.0,0.0,0.0,0.0,0.0,0.0,0.0,0.0,0.0,6.2425,6.2425,6.2387,6.175,6.1111,6.0509,0.0,0.0,0.0,0.0,0.0,0.0,0.0,0.0,0.0,0.0,0.0,0.0,0.0,0.0,0.0,0.0,0.0,0.0,0.0,0.0,0.0,0.0,0.0,0.0,0.0,0.0,0.0,0.0,0.0,0.0,0.0,0.0,0.0,0.0,0.0,0.0,0.0,0.0,0.0,0.0,0.0,0.0,0.0,0.0,0.0,0.0,0.0,0.0,0.0,0.0,0.0,0.0,0.0,0.0,0.0,0.0,0.0,0.0,0.0,0.0,0.0,0.0,0.0,0.0,0.0,0.0,0.0,0.0,0.0,0.0,0.0,0.0,0.0,0.0,0.0,0.0,0.0,0.0,0.0,0.0,0.0,0.0,0.0,0.0,0.0,0.0,0.0,0.0,0.0,0.0,0.0,0.0,0.0,0.0,0.0,0.0,0.0,0.0,0.0,0.0,0.0,0.0,0.0,0.0,0.0,0.0,0.0,0.0,0.0,6.2463,6.2425,6.2463,6.2387,6.2281,0.0,0.0,0.0,0.0,0.0,0.0,0.0,0.0,0.0,0.0,0.0,0.0,0.0,0.0,0.0,0.0,0.0,0.0,0.0,0.0,0.0,0.0,0.0,0.0,0.0,0.0,0.0,0.0,0.0,0.0,0.0,0.0,0.0,0.0,0.0,0.0,0.0,0.0,0.0,0.0,0.0,0.0,0.0,0.0,0.0,0.0,0.0,0.0,0.0,0.0,0.0,0.0,0.0,0.0,0.0,0.0,0.0,0.0,0.0,0.0,0.0,0.0,0.0,0.0,0.0,0.0,0.0,0.0,0.0,0.0,0.0,0.0,0.0,0.0,0.0,0.0,0.0,0.0,0.0,0.0,0.0,0.0,0.0,0.0,0.0,0.0,0.0,0.0,0.0,0.0,0.0,0.0,0.0,0.0,0.0,0.0,0.0,0.0,0.0,0.0,0.0,0.0,0.0,0.0,0.0,0.0,0.0,0.0,0.0,6.3979,6.4017,6.3713,6.3221,6.3183,6.2921,0.0,0.0,0.0,0.0,0.0,0.0,0.0,0.0,0.0,0.0,0.0,0.0,0.0,0.0,0.0,0.0,0.0,0.0,0.0,0.0,0.0,0.0,0.0,0.0,0.0,0.0,0.0,0.0,0.0,0.0,0.0,0.0,0.0,0.0,0.0,0.0,0.0,0.0,0.0,0.0,0.0,0.0,0.0,0.0,0.0,0.0,0.0,0.0,0.0,0.0,0.0,0.0,0.0,0.0,0.0,0.0,0.0,0.0,0.0,0.0,0.0,0.0,0.0,0.0,0.0,0.0,0.0,0.0,0.0,0.0,0.0,0.0,0.0,0.0,0.0,0.0,0.0,0.0,0.0,0.0,0.0,0.0,0.0,0.0,0.0,0.0,0.0,0.0,0.0,0.0,0.0,0.0,0.0,0.0,0.0,0.0,0.0,0.0,0.0,0.0,0.0,0.0,0.0,0.0,0.0,0.0,0.0,0.0,0.0,6.4993,0.0,6.4693,0.0,6.4051,6.3786,0.0,0.0,0.0,0.0,0.0,0.0,0.0,0.0,0.0,0.0,0.0,0.0,0.0,0.0,0.0,0.0,0.0,0.0,0.0,0.0,0.0,0.0,0.0,0.0,0.0,0.0,0.0,0.0,0.0,0.0,0.0,0.0,0.0,0.0,0.0,0.0,0.0,0.0,0.0,0.0,0.0,0.0,0.0,0.0,0.0,0.0,0.0,0.0,0.0,0.0,0.0,0.0,0.0,0.0,0.0,0.0,0.0,0.0,0.0,0.0,0.0,0.0,0.0,0.0,0.0,0.0,0.0,0.0,0.0,0.0,0.0,0.0,0.0,0.0,0.0,0.0,0.0,0.0,0.0,0.0,0.0,0.0,0.0,0.0,0.0,0.0,0.0,0.0,0.0,0.0,0.0,0.0,0.0,0.0,0.0,0.0,0.0,0.0,0.0,0.0,0.0,0.0,0.0,0.0,0.0,0.0,0.0,0.0,6.5095,6.5199,6.5237,6.5242,6.5027,6.5027,6.4993,0.0,0.0,0.0,0.0,0.0,0.0,0.0,0.0,0.0,0.0,0.0,0.0,0.0,0.0,0.0,0.0,0.0,0.0,0.0,0.0,0.0,0.0,0.0,0.0,0.0,0.0,0.0,0.0,0.0,0.0,0.0,0.0,0.0,0.0,0.0,0.0,0.0,0.0,0.0,0.0,0.0,0.0,0.0,0.0,0.0,0.0,0.0,0.0,0.0,0.0,0.0,0.0,0.0,0.0,0.0,0.0,0.0,0.0,0.0,0.0,0.0,0.0,0.0,0.0,0.0,0.0,0.0,0.0,0.0,0.0,0.0,0.0,0.0,0.0,0.0,0.0,0.0,0.0,0.0,0.0,0.0,0.0,0.0,0.0,0.0,0.0,0.0,0.0,0.0,0.0,0.0,0.0,0.0,0.0,0.0,0.0,0.0,0.0,0.0,0.0,0.0,0.0,0.0,0.0,0.0,0.0,0.0,0.0,0.0,6.6036,6.6607,6.6912,6.684,6.6239,6.5901,0.0,0.0,0.0,0.0,0.0,0.0,0.0,0.0,0.0,0.0,0.0,0.0,0.0,0.0,0.0,0.0,0.0,0.0,0.0,0.0,0.0,0.0,0.0,0.0,0.0,0.0,0.0,0.0,0.0,0.0,0.0,0.0,0.0,0.0,0.0,0.0,0.0,0.0,0.0,0.0,0.0,0.0,0.0,0.0,0.0,0.0,0.0,0.0,0.0,0.0,0.0,0.0,0.0,0.0,0.0,0.0,0.0,0.0,0.0,0.0,0.0,0.0,0.0,0.0,0.0,0.0,0.0,0.0,0.0,0.0,0.0,0.0,0.0,0.0,0.0,0.0,0.0,0.0,0.0,0.0,0.0,0.0,0.0,0.0,0.0,0.0,0.0,0.0,0.0,0.0,0.0,0.0,0.0,0.0,0.0,0.0,0.0,0.0,0.0,0.0,0.0,0.0,0.0,0.0,0.0,0.0,0.0,0.0,0.0,6.7888,6.7812,6.7774,6.7779,6.7178,6.6654,6.6281,0.0,0.0,0.0,0.0,0.0,0.0,0.0,0.0,0.0,0.0,0.0,0.0,0.0,0.0,0.0,0.0,0.0,0.0,0.0,0.0,0.0,0.0,0.0,0.0,0.0,0.0,0.0,0.0,0.0,0.0,0.0,0.0,0.0,0.0,0.0,0.0,0.0,0.0,0.0,0.0,0.0,0.0,0.0,0.0,0.0,0.0,0.0,0.0,0.0,0.0,0.0,0.0,0.0,0.0,0.0,0.0,0.0,0.0,0.0,0.0,0.0,0.0,0.0,0.0,0.0,0.0,0.0,0.0,0.0,0.0,0.0,0.0,0.0,0.0,0.0,0.0,0.0,0.0,0.0,0.0,0.0,0.0,0.0,0.0,0.0,0.0,0.0,0.0,0.0,0.0,0.0,0.0,0.0,0.0,0.0,0.0,0.0,0.0,0.0,0.0,0.0,0.0,0.0,0.0,0.0,0.0,0.0,0.0,7.061,6.9082,6.8247,6.8112,6.7997,6.7512,0.0,0.0,0.0,0.0,0.0,0.0,0.0,0.0,0.0,0.0,0.0,0.0,0.0,0.0,0.0,0.0,0.0,0.0,0.0,0.0,0.0,0.0,0.0,0.0,0.0,0.0,0.0,0.0,0.0,0.0,0.0,0.0,0.0,0.0,0.0,0.0,0.0,0.0,0.0,0.0,0.0,0.0,0.0,0.0,0.0,0.0,0.0,0.0,0.0,0.0,0.0,0.0,0.0,0.0,0.0,0.0,0.0,0.0,0.0,0.0,0.0,0.0,0.0,0.0,0.0,0.0,0.0,0.0,0.0,0.0,0.0,0.0,0.0,0.0,0.0,0.0,0.0,0.0,0.0,0.0,0.0,0.0,0.0,0.0,0.0,0.0,0.0,0.0,0.0,0.0,0.0,0.0,0.0,0.0,0.0,0.0,0.0,0.0,0.0,0.0,0.0,0.0,0.0,0.0,0.0,0.0,0.0,0.0,0.0,7.3093,7.2788,7.2291,7.1646,7.0358,6.9489,0.0,0.0,0.0,0.0,0.0,0.0,0.0,0.0,0.0,0.0,0.0,0.0,0.0,0.0,0.0,0.0,0.0,0.0,0.0,0.0,0.0,0.0,0.0,0.0,0.0,0.0,0.0,0.0,0.0,0.0,0.0,0.0,0.0,0.0,0.0,0.0,0.0,0.0,0.0,0.0,0.0,0.0,0.0,0.0,0.0,0.0,0.0,0.0,0.0,0.0,0.0,0.0,0.0,0.0,0.0,0.0,0.0,0.0,0.0,0.0,0.0,0.0,0.0,0.0,0.0,0.0,0.0,0.0,0.0,0.0,0.0,0.0,0.0,0.0,0.0,0.0,0.0,0.0,0.0,0.0,0.0,0.0,0.0,0.0,0.0,0.0,0.0,0.0,0.0,0.0,0.0,0.0,0.0,0.0,0.0,0.0,0.0,0.0,0.0,0.0,0.0,0.0,0.0,0.0,0.0,0.0,0.0,0.0,7.328,7.4767,7.5493,7.5646,7.5149,7.3059,7.1388,0.0,0.0,0.0,0.0,0.0,0.0,0.0,0.0,0.0,0.0,0.0,0.0,0.0,0.0,0.0,0.0,0.0,0.0,0.0,0.0,0.0,0.0,0.0,0.0,0.0,0.0,0.0,0.0,0.0,0.0,0.0,0.0,0.0,0.0,0.0,0.0,0.0,0.0,0.0,0.0,0.0,0.0,0.0,0.0,0.0,0.0,0.0,0.0,0.0,0.0,0.0,0.0,0.0,0.0,0.0,0.0,0.0,0.0,0.0,0.0,0.0,0.0,0.0,0.0,0.0,0.0,0.0,0.0,0.0,0.0,0.0,0.0,0.0,0.0,0.0,0.0,0.0,0.0,0.0,0.0,0.0,0.0,0.0,0.0,0.0,0.0,0.0,0.0,0.0,0.0,0.0,0.0,0.0,0.0,0.0,0.0,0.0,0.0,0.0,0.0,0.0,0.0,0.0,0.0,0.0,0.0,0.0,0.0,7.5799,7.6135,7.7667,7.847,7.8279,7.5799,7.325,0.0,0.0,0.0,0.0,0.0,0.0,0.0,0.0,0.0,0.0,0.0,0.0,0.0,0.0,0.0,0.0,0.0,0.0,0.0,0.0,0.0,0.0,0.0,0.0,0.0,0.0,0.0,0.0,0.0,0.0,0.0,0.0,0.0,0.0,0.0,0.0,0.0,0.0,0.0,0.0,0.0,0.0,0.0,0.0,0.0,0.0,0.0,0.0,0.0,0.0,0.0,0.0,0.0,0.0,0.0,0.0,0.0,0.0,0.0,0.0,0.0,0.0,0.0,0.0,0.0,0.0,0.0,0.0,0.0,0.0,0.0,0.0,0.0,0.0,0.0,0.0,0.0,0.0,0.0,0.0,0.0,0.0,0.0,0.0,0.0,0.0,0.0,0.0,0.0,0.0,0.0,0.0,0.0,0.0,0.0,0.0,0.0,0.0,0.0,0.0,0.0,0.0,0.0,0.0,0.0,0.0,0.0,0.0,7.759,7.958,8.0685,8.0876,8.0155,7.7016,7.4962,0.0,0.0,0.0,0.0,0.0,0.0,0.0,0.0,0.0,0.0,0.0,0.0,0.0,0.0,0.0,0.0,0.0,0.0,0.0,0.0,0.0,0.0,0.0,0.0,0.0,0.0,0.0,0.0,0.0,0.0,0.0,0.0,0.0,0.0,0.0,0.0,0.0,0.0,0.0,0.0,0.0,0.0,0.0,0.0,0.0,0.0,0.0,0.0,6.5301,0.0,0.0,0.0,0.0,0.0,0.0,0.0,0.0,0.0,0.0,0.0,0.0,0.0,0.0,0.0,0.0,0.0,0.0,0.0,0.0,0.0,0.0,0.0,0.0,0.0,0.0,0.0,0.0,0.0,0.0,0.0,0.0,0.0,0.0,0.0,0.0,0.0,0.0,0.0,0.0,0.0,0.0,0.0,0.0,0.0,0.0,0.0,0.0,0.0,0.0,0.0,0.0,0.0,0.0,0.0,0.0,0.0,0.0,0.0,7.9347,8.0723,8.2092,8.2476,8.1872,7.9382,7.7207,0.0,0.0,0.0,0.0,0.0,0.0,0.0,0.0,0.0,0.0,0.0,0.0,0.0,0.0,0.0,0.0,0.0,0.0,0.0,0.0,0.0,0.0,0.0,0.0,0.0,0.0,0.0,0.0,0.0,0.0,0.0,0.0,0.0,0.0,0.0,0.0,0.0,0.0,0.0,0.0,0.0,0.0,0.0,0.0,0.0,0.0,0.0,0.0,0.0,0.0,0.0,0.0,0.0,0.0,0.0,0.0,0.0,0.0,0.0,0.0,0.0,0.0,0.0,0.0,0.0,0.0,0.0,0.0,0.0,0.0,0.0,0.0,0.0,0.0,0.0,0.0,0.0,0.0,0.0,0.0,0.0,0.0,0.0,0.0,0.0,0.0,0.0,0.0,0.0,0.0,0.0,0.0,0.0,0.0,0.0,0.0,0.0,0.0,0.0,0.0,0.0,0.0,0.0,0.0,0.0,0.0,0.0,7.9201,8.1144,8.1598,8.3082,8.3811,8.3668,8.2058,7.9574,0.0,0.0,0.0,0.0,0.0,0.0,0.0,0.0,0.0,0.0,0.0,0.0,0.0,0.0,0.0,0.0,0.0,0.0,0.0,0.0,0.0,0.0,0.0,0.0,0.0,0.0,0.0,0.0,0.0,0.0,0.0,0.0,0.0,0.0,0.0,0.0,0.0,0.0,0.0,6.7465,6.8185,0.0,0.0,0.0,0.0,0.0,0.0,0.0,0.0,7.0347,0.0,0.0,0.0,0.0,0.0,0.0,0.0,0.0,0.0,0.0,0.0,0.0,0.0,0.0,0.0,0.0,0.0,0.0,0.0,0.0,0.0,0.0,0.0,0.0,0.0,0.0,0.0,0.0,0.0,0.0,0.0,0.0,0.0,0.0,0.0,0.0,0.0,0.0,0.0,0.0,0.0,0.0,0.0,0.0,0.0,0.0,0.0,0.0,0.0,0.0,0.0,0.0,0.0,0.0,0.0,0.0,7.7564,8.042,8.2901,8.4895,8.5416,8.5608,8.5391,8.3745,8.1566,7.8785,0.0,0.0,0.0,0.0,0.0,0.0,0.0,0.0,0.0,0.0,0.0,0.0,0.0,0.0,0.0,0.0,0.0,0.0,0.0,0.0,0.0,0.0,0.0,0.0,0.0,0.0,0.0,0.0,0.0,0.0,0.0,0.0,0.0,0.0,0.0,0.0,0.0,0.0,0.0,6.9385,6.9669,0.0,0.0,0.0,0.0,0.0,0.0,0.0,0.0,7.027,0.0,0.0,0.0,0.0,0.0,0.0,0.0,0.0,0.0,0.0,0.0,0.0,0.0,0.0,0.0,0.0,0.0,0.0,0.0,0.0,0.0,0.0,0.0,0.0,0.0,0.0,0.0,0.0,0.0,0.0,0.0,0.0,0.0,0.0,0.0,0.0,0.0,0.0,0.0,0.0,0.0,0.0,0.0,0.0,0.0,0.0,0.0,0.0,0.0,0.0,0.0,0.0,0.0,0.0,0.0,7.8744,8.1796,8.4202,8.5849,8.6488,8.668,8.6429,8.4397,8.2447,0.0,0.0,0.0,0.0,0.0,0.0,0.0,0.0,0.0,0.0,0.0,0.0,0.0,0.0,0.0,0.0,0.0,0.0,0.0,0.0,0.0,0.0,0.0,0.0,0.0,0.0,0.0,0.0,0.0,0.0,0.0,0.0,0.0,0.0,0.0,0.0,0.0,0.0,0.0,0.0,7.0066,7.0573,7.139,0.0,0.0,0.0,0.0,0.0,0.0,7.2795,7.2297,0.0,0.0,0.0,0.0,0.0,0.0,0.0,0.0,0.0,0.0,0.0,0.0,0.0,0.0,0.0,0.0,0.0,0.0,0.0,0.0,0.0,0.0,0.0,0.0,0.0,0.0,0.0,0.0,0.0,0.0,0.0,0.0,0.0,0.0,0.0,0.0,0.0,0.0,0.0,0.0,0.0,0.0,0.0,0.0,0.0,0.0,0.0,0.0,0.0,0.0,0.0,0.0,0.0,0.0,0.0,7.9925,8.2981,8.52,8.6457,8.7291,8.7602,8.7311,8.4895,8.3022,0.0,0.0,0.0,0.0,0.0,0.0,0.0,0.0,0.0,0.0,0.0,0.0,0.0,0.0,0.0,0.0,0.0,0.0,0.0,0.0,0.0,0.0,0.0,0.0,0.0,0.0,0.0,0.0,0.0,0.0,0.0,0.0,0.0,0.0,0.0,0.0,0.0,0.0,0.0,0.0,0.0,7.1701,7.2555,7.3335,0.0,0.0,0.0,0.0,7.5624,7.5105,0.0,0.0,0.0,0.0,0.0,0.0,0.0,0.0,0.0,0.0,0.0,0.0,0.0,0.0,0.0,0.0,0.0,0.0,0.0,0.0,0.0,0.0,0.0,0.0,0.0,0.0,0.0,0.0,0.0,0.0,0.0,0.0,0.0,0.0,0.0,0.0,0.0,0.0,0.0,0.0,0.0,0.0,0.0,0.0,0.0,0.0,0.0,0.0,0.0,0.0,0.0,0.0,0.0,0.0,0.0,0.0,8.1533,8.3594,8.5737,8.807,8.8444,8.8487,8.823,8.5777,8.3635,0.0,0.0,0.0,0.0,0.0,0.0,0.0,0.0,0.0,0.0,0.0,0.0,0.0,0.0,0.0,0.0,0.0,0.0,0.0,0.0,0.0,0.0,0.0,0.0,0.0,0.0,0.0,0.0,0.0,0.0,0.0,0.0,0.0,0.0,0.0,0.0,0.0,0.0,0.0,0.0,0.0,7.341,7.419,7.497,7.5527,0.0,0.0,7.5824,7.5787,7.5713,0.0,0.0,0.0,0.0,0.0,0.0,0.0,0.0,0.0,0.0,0.0,0.0,0.0,0.0,0.0,0.0,0.0,0.0,0.0,0.0,0.0,0.0,0.0,0.0,0.0,0.0,0.0,0.0,0.0,0.0,0.0,0.0,0.0,0.0,0.0,0.0,0.0,0.0,0.0,0.0,0.0,0.0,0.0,0.0,0.0,0.0,0.0,0.0,0.0,0.0,0.0,0.0,0.0,0.0,0.0,7.9433,8.1987,8.4665,8.6847,8.8525,8.9098,8.9063,8.8422,8.6352,8.4401,0.0,0.0,0.0,0.0,0.0,0.0,0.0,0.0,0.0,0.0,0.0,0.0,0.0,0.0,0.0,0.0,0.0,0.0,0.0,0.0,0.0,0.0,0.0,0.0,0.0,0.0,0.0,0.0,0.0,0.0,0.0,0.0,0.0,0.0,0.0,0.0,0.0,0.0,0.0,0.0,0.0,0.0,7.5824,7.6679,0.0,0.0,0.0,7.8425,7.7942,0.0,0.0,0.0,0.0,0.0,0.0,0.0,0.0,0.0,0.0,0.0,0.0,0.0,0.0,0.0,0.0,0.0,0.0,0.0,0.0,0.0,0.0,0.0,0.0,0.0,0.0,0.0,0.0,0.0,0.0,0.0,0.0,0.0,0.0,0.0,0.0,0.0,0.0,0.0,0.0,0.0,0.0,0.0,0.0,0.0,0.0,0.0,0.0,0.0,0.0,0.0,0.0,0.0,0.0,0.0,0.0,0.0,8.2403,8.5545,8.7686,8.8671,8.971,8.9755,8.8766,8.7041,0.0,0.0,0.0,0.0,0.0,0.0,0.0,0.0,0.0,0.0,0.0,0.0,0.0,0.0,0.0,0.0,0.0,0.0,0.0,0.0,0.0,0.0,0.0,0.0,0.0,0.0,0.0,0.0,0.0,0.0,0.0,0.0,0.0,0.0,0.0,0.0,0.0,0.0,0.0,0.0,0.0,0.0,7.549,7.7162,7.809,7.8871,0.0,0.0,8.0505,7.9874,7.9131,7.8313,0.0,0.0,0.0,0.0,0.0,0.0,0.0,0.0,0.0,0.0,0.0,0.0,0.0,0.0,0.0,0.0,0.0,0.0,0.0,0.0,0.0,0.0,0.0,0.0,0.0,0.0,0.0,0.0,0.0,0.0,0.0,0.0,0.0,0.0,0.0,0.0,0.0,0.0,0.0,0.0,0.0,0.0,0.0,0.0,0.0,0.0,0.0,0.0,0.0,0.0,0.0,0.0,0.0,0.0,0.0,8.3208,8.5923,8.7721,8.8709,9.0287,9.0675,8.9722,8.796,8.6162,0.0,0.0,0.0,0.0,0.0,0.0,0.0,0.0,0.0,0.0,0.0,0.0,0.0,0.0,0.0,0.0,0.0,0.0,0.0,0.0,0.0,0.0,0.0,0.0,0.0,0.0,0.0,0.0,0.0,0.0,0.0,0.0,0.0,0.0,0.0,0.0,0.0,0.0,0.0,0.0,0.0,7.6307,7.7979,7.8908,7.9688,0.0,0.0,8.0654,8.0617,7.9948,7.9131,7.8351,0.0,0.0,0.0,0.0,0.0,0.0,0.0,0.0,0.0,0.0,0.0,0.0,0.0,0.0,0.0,0.0,0.0,0.0,0.0,0.0,0.0,0.0,0.0,0.0,0.0,0.0,0.0,0.0,0.0,0.0,0.0,0.0,0.0,0.0,0.0,0.0,0.0,0.0,0.0,0.0,0.0,0.0,0.0,0.0,0.0,0.0,0.0,0.0,0.0,0.0,0.0,0.0,0.0,8.1987,8.409,8.6691,8.849,8.944,9.0594,9.0752,8.9799,8.8574,8.7044,0.0,0.0,0.0,0.0,0.0,0.0,0.0,0.0,0.0,0.0,0.0,0.0,0.0,0.0,0.0,0.0,0.0,0.0,0.0,0.0,0.0,0.0,0.0,0.0,0.0,0.0,0.0,0.0,7.1043,7.1381,7.1681,0.0,0.0,0.0,0.0,0.0,0.0,0.0,0.0,0.0,0.0,7.7199,7.8796,7.9725,0.0,0.0,8.1917,8.2066,8.1583,8.1248,8.0542,7.9242,7.8351,0.0,0.0,0.0,0.0,0.0,0.0,0.0,0.0,0.0,0.0,0.0,0.0,0.0,0.0,0.0,0.0,0.0,0.0,0.0,0.0,0.0,0.0,0.0,0.0,0.0,0.0,0.0,0.0,0.0,0.0,0.0,0.0,0.0,0.0,0.0,0.0,0.0,0.0,0.0,0.0,0.0,0.0,0.0,0.0,0.0,0.0,0.0,0.0,0.0,0.0,0.0,0.0,8.2945,8.4934,8.734,8.8986,8.9902,9.0748,9.0905,9.0219,8.934,8.8078,0.0,0.0,0.0,0.0,0.0,0.0,0.0,0.0,0.0,0.0,0.0,0.0,0.0,0.0,0.0,0.0,0.0,0.0,0.0,0.0,0.0,0.0,0.0,0.0,0.0,0.0,0.0,0.0,7.2282,7.247,7.247,0.0,0.0,0.0,0.0,0.0,0.0,0.0,0.0,0.0,0.0,7.8053,7.9651,8.0542,8.136,8.2214,8.2846,8.2994,8.2437,8.214,8.1583,8.0431,0.0,0.0,0.0,0.0,0.0,0.0,0.0,0.0,0.0,0.0,0.0,0.0,0.0,0.0,0.0,0.0,0.0,0.0,0.0,0.0,0.0,0.0,0.0,0.0,0.0,0.0,0.0,0.0,0.0,0.0,7.2902,0.0,0.0,0.0,0.0,0.0,0.0,0.0,0.0,0.0,0.0,0.0,0.0,0.0,0.0,0.0,0.0,0.0,0.0,0.0,0.0,0.0,0.0,0.0,8.5775,8.7721,8.9133,8.994,9.0748,9.121,9.1171,9.0257,8.9301,8.8308,0.0,0.0,0.0,0.0,0.0,0.0,0.0,0.0,0.0,0.0,0.0,0.0,0.0,0.0,0.0,0.0,0.0,0.0,0.0,0.0,0.0,0.0,0.0,0.0,0.0,0.0,7.2808,7.3634,7.4085,0.0,0.0,0.0,0.0,0.0,0.0,0.0,0.0,0.0,0.0,7.7756,7.8833,8.0431,8.1397,8.2214,8.3032,8.318,8.318,8.3143,8.2511,8.1991,0.0,0.0,0.0,0.0,0.0,0.0,0.0,0.0,0.0,0.0,0.0,0.0,0.0,0.0,0.0,0.0,0.0,0.0,0.0,0.0,0.0,0.0,0.0,0.0,0.0,0.0,0.0,7.466,7.466,0.0,0.0,0.0,0.0,0.0,0.0,0.0,0.0,0.0,0.0,0.0,7.942,7.942,0.0,0.0,0.0,0.0,0.0,0.0,0.0,0.0,0.0,0.0,0.0,0.0,8.4703,8.6657,8.8528,9.021,9.1556,9.1902,9.2326,9.2826,9.1408,8.961,8.7543,0.0,0.0,0.0,0.0,0.0,0.0,0.0,0.0,0.0,0.0,0.0,0.0,0.0,0.0,0.0,0.0,0.0,0.0,0.0,0.0,0.0,0.0,0.0,0.0,0.0,7.3672,0.0,0.0,0.0,0.0,0.0,0.0,0.0,0.0,0.0,0.0,0.0,7.6803,7.7811,7.8573,7.9688,8.1323,8.1806,8.2251,0.0,0.0,0.0,0.0,0.0,0.0,0.0,0.0,0.0,0.0,0.0,0.0,0.0,0.0,7.9908,7.7756,7.7681,7.7994,7.7994,0.0,0.0,0.0,0.0,0.0,0.0,0.0,0.0,0.0,0.0,0.0,0.0,0.0,0.0,0.0,0.0,7.7023,0.0,0.0,0.0,0.0,0.0,0.0,0.0,0.0,8.0953,8.1563,8.2096,8.2438,8.2556,0.0,8.2556,8.1793,0.0,0.0,0.0,0.0,0.0,0.0,0.0,0.0,8.5854,8.7541,8.9412,9.1056,9.2441,9.2787,9.3172,9.3672,9.2561,9.0837,8.8462,8.7772,8.6585,0.0,0.0,0.0,0.0,0.0,0.0,0.0,0.0,0.0,0.0,0.0,0.0,0.0,0.0,0.0,0.0,0.0,0.0,0.0,0.0,0.0,0.0,0.0,7.5249,0.0,0.0,0.0,0.0,0.0,0.0,0.0,0.0,0.0,7.5981,7.6961,7.8011,7.8721,7.9707,8.0765,8.1843,0.0,0.0,0.0,0.0,0.0,0.0,0.0,8.3849,8.3329,8.3254,8.3217,8.3254,8.3663,8.4035,8.4035,0.0,0.0,8.0468,8.0374,8.0687,8.0687,8.1015,8.1289,8.1289,8.1289,8.14,0.0,0.0,0.0,0.0,0.0,0.0,0.0,0.0,8.0524,8.0869,0.0,7.9957,0.0,0.0,0.0,0.0,0.0,8.0384,0.0,0.0,8.3898,8.4703,8.4816,8.5583,8.5967,8.5967,8.5928,8.5506,8.455,8.1336,0.0,0.0,0.0,0.0,0.0,0.0,8.6697,8.846,9.0296,9.1672,9.2518,9.3326,9.3749,9.3749,9.3676,9.2794,9.1143,9.0762,8.915,8.6049,8.5589,0.0,0.0,0.0,0.0,0.0,0.0,0.0,0.0,0.0,0.0,0.0,0.0,0.0,0.0,0.0,0.0,0.0,0.0,0.0,0.0,7.6638,0.0,0.0,0.0,0.0,0.0,0.0,0.0,0.0,0.0,0.0,7.7941,7.8349,7.9029,7.9687,0.0,0.0,0.0,0.0,8.3254,8.3292,8.3923,8.4443,8.4443,8.5112,8.5632,8.5595,0.0,0.0,8.5706,8.5743,8.5781,8.5743,8.5818,8.5261,8.3775,8.3366,8.3329,8.3366,8.344,8.3366,8.3366,8.3514,8.3663,8.3588,0.0,0.0,0.0,0.0,8.1218,8.2019,8.3131,8.34,8.3476,8.3476,8.3246,0.0,0.0,0.0,0.0,0.0,0.0,8.401,8.4925,8.6,8.688,8.7526,8.7795,8.791,8.791,8.791,8.7721,8.7305,8.5772,8.4167,8.2453,0.0,0.0,0.0,0.0,8.7616,8.9378,9.1177,9.2518,9.3364,9.4172,9.4634,9.4595,9.4597,9.406,9.2871,9.1605,9.0417,8.9265,8.6929,0.0,0.0,0.0,0.0,0.0,0.0,0.0,0.0,0.0,0.0,0.0,0.0,0.0,0.0,0.0,0.0,0.0,0.0,0.0,7.7426,7.7502,7.7539,0.0,0.0,0.0,0.0,0.0,0.0,0.0,0.0,0.0,8.0376,8.0458,8.0654,0.0,0.0,8.24,8.3552,8.3886,8.4257,8.4815,0.0,0.0,0.0,8.5929,8.6449,8.6449,8.7452,8.8233,8.8233,8.8716,8.9087,8.905,8.9087,8.8938,8.8455,8.6932,8.6078,8.6524,8.6672,8.6672,8.6709,8.6672,8.6747,8.6915,8.4617,8.3895,8.3627,8.37,8.4007,8.4771,8.5692,8.6076,8.6227,8.6192,8.5811,8.512,8.4122,8.378,0.0,0.0,0.0,8.6153,8.7103,8.7948,8.8829,8.9671,9.0056,9.0364,9.0671,9.0325,8.9983,8.9601,8.8756,8.734,8.5319,0.0,0.0,8.6776,8.7731,8.8879,9.026,9.2059,9.3364,9.4172,9.5057,9.5518,9.5518,9.5518,9.5058,9.4176,9.2793,9.1644,9.0799,8.85,8.67,0.0,0.0,0.0,0.0,0.0,0.0,0.0,0.0,0.0,0.0,0.0,7.5934,0.0,0.0,0.0,0.0,7.8177,7.8816,7.9304,7.9341,0.0,0.0,0.0,0.0,0.0,0.0,0.0,8.1102,8.1783,8.2366,8.2648,8.2874,8.2911,8.259,8.3053,8.3775,8.474,0.0,8.5521,8.6004,8.6635,8.7081,8.7081,8.775,8.827,8.827,8.905,8.9756,8.9793,9.0164,9.0462,9.0499,9.0499,9.061,9.0907,8.9719,8.8753,8.9013,8.905,8.905,8.905,8.905,8.905,8.9748,8.8979,8.7228,8.6386,8.63,8.7068,8.7487,8.7671,8.844,8.8786,8.8709,8.791,8.7491,8.7376,8.6501,0.0,8.7414,8.7568,8.8064,8.894,8.9825,9.0633,9.1402,9.221,9.2979,9.3672,9.2941,9.2172,9.1402,9.0594,8.9752,8.88,8.796,8.7846,8.8537,8.9378,9.0221,9.1141,9.2828,9.4172,9.5057,9.5865,9.6288,9.6288,9.6288,9.5903,9.5018,9.4099,9.2795,9.1069,9.0071,8.8345,8.5893,0.0,0.0,0.0,0.0,0.0,0.0,0.0,0.0,0.0,0.0,0.0,0.0,0.0,0.0,0.0,8.0693,0.0,8.167,8.1656,0.0,0.0,0.0,8.1559,8.1398,8.1343,8.1679,8.2575,0.0,0.0,8.4717,0.0,8.5499,8.4083,8.4971,8.5743,8.5892,8.6561,8.7007,8.7155,8.8381,8.9384,8.9421,9.0164,9.0833,9.0945,9.0907,9.1019,9.1056,9.1019,9.0945,9.1093,9.0945,9.1167,9.191,9.2022,9.1799,9.1093,9.0796,9.0722,9.0685,9.0722,9.0722,9.2672,9.2479,9.2021,9.0406,8.806,8.8291,8.8748,8.9325,8.9517,8.9633,8.9594,8.9367,8.8944,8.8367,8.8137,8.8175,8.8406,8.9675,9.0367,9.071,9.2133,9.2903,9.3095,9.3326,9.3518,9.3672,9.3518,9.3287,9.3095,9.2903,9.2402,9.1559,9.1367,9.0642,8.9493,8.9683,9.0565,9.2136,9.3172,9.4441,9.5942,9.6211,9.6288,9.6288,9.6288,9.5903,9.5018,9.4099,9.3064,9.1912,9.0378,8.8881,8.7536,8.6197,0.0,0.0,0.0,0.0,0.0,0.0,0.0,0.0,0.0,7.8661,7.8515,0.0,8.0581,0.0,8.1267,8.1702,8.2302,8.227,0.0,0.0,8.3041,8.3303,8.3863,8.3938,8.4274,8.5171,8.5243,8.5574,8.643,8.7129,8.7626,8.7849,8.7081,8.6969,8.8195,8.8567,8.8901,8.9496,8.9979,9.0424,9.113,9.2393,9.3471,9.414,9.4214,9.4251,9.4214,9.4214,9.4214,9.4251,9.4251,9.4325,9.4437,9.4511,9.4437,9.4214,9.3248,9.2393,9.2393,9.2393,9.2393,9.3672,9.3672,9.3672,9.2633,9.0902,9.0902,9.1171,9.1595,9.1595,9.1595,9.1595,9.1595,9.1364,9.0941,9.0941,9.0902,9.0979,9.1902,9.2326,9.2364,9.3249,9.3903,9.4287,9.4287,9.448,9.4826,9.4441,9.4287,9.4249,9.3864,9.348,9.3018,9.3018,9.2521,9.1562,9.0793,9.129,9.3018,9.4249,9.5326,9.6249,9.6288,9.6288,9.6288,9.6288,9.5828,9.4944,9.4061,9.3102,9.218,9.0798,8.9608,8.8683,8.7727,8.6617,0.0,0.0,0.0,0.0,0.0,0.0,0.0,0.0,0.0,0.0,0.0,8.242,8.3209,8.3426,8.3784,8.4234,8.4143,8.418,8.4534,8.4944,8.5297,8.5648,8.6021,8.6579,8.7399,8.745,8.765,8.8506,8.8964,8.9459,9.0239,8.9904,8.9607,8.983,9.0424,9.1093,9.1539,9.2208,9.2802,9.3285,9.4102,9.4883,9.5291,9.5403,9.5403,9.5403,9.5403,9.5403,9.5403,9.5403,9.5403,9.5403,9.5403,9.5403,9.5291,9.4697,9.414,9.4065,9.4065,9.4065,9.4018,9.4057,9.4018,9.4018,9.4018,9.4018,9.3903,9.3672,9.3672,9.3672,9.3672,9.3672,9.3672,9.3672,9.3672,9.3672,9.371,9.3826,9.3864,9.3864,9.398,9.4441,9.5134,9.5172,9.5557,9.6249,9.5518,9.5134,9.5134,9.4403,9.398,9.3864,9.3864,9.3787,9.3633,9.2249,9.2287,9.3864,9.548,9.6288,9.6288,9.6288,9.6288,9.6288,9.6288,9.5828,9.483,9.4024,9.3064,9.2021,9.1179,9.0256,8.937,8.9294,8.8565,0.0,8.6154,0.0,0.0,0.0,0.0,0.0,0.0,0.0,0.0,8.2885,8.3922,8.55,8.6124,8.6556,8.6724,8.6648,8.6474,8.6468,8.7078,8.7427,8.7304,8.7935,8.8678,8.9384,8.9459,8.9756,9.0462,9.0722,9.113,9.191,9.2653,9.2616,9.1613,9.2393,9.3248,9.3322,9.4585,9.5291,9.5403,9.5626,9.5774,9.5774,9.5848,9.5737,9.5811,9.5811,9.5774,9.5774,9.5848,9.5811,9.5737,9.5774,9.5737,9.5848,9.5774,9.5626,9.5365,9.5254,9.5403,9.5788,9.5788,9.5826,9.5826,9.5826,9.5826,9.498,9.3672,9.3672,9.3672,9.3672,9.3672,9.3672,9.3672,9.3672,9.3672,9.3749,9.4441,9.4749,9.4749,9.548,9.5903,9.6057,9.6057,9.6134,9.6288,9.6134,9.6057,9.6057,9.5903,9.5441,9.4749,9.4749,9.4403,9.371,0.0,0.0,0.0,9.5788,9.6288,9.6288,9.6288,9.6288,9.6288,9.6288,0.0,9.483,9.3947,9.2986,9.2021,9.1135,0.0,0.0,0.0,0.0,0.0,0.0,0.0,0.0,0.0,0.0,0.0,8.7222,8.6641,8.5009,8.5403,8.6213,8.7227,8.7379,8.7847,8.904,8.8936,8.9075,8.9559,8.9782,8.983,8.983,8.9942,9.0127,9.0239,9.0276,9.061,9.1428,9.2059,9.2802,9.3582,9.4437,9.4808,9.4474,9.466,9.492,9.5031,9.5811,9.6369,9.6369,9.7,9.7409,9.7409,9.7409,9.7372,9.7334,9.7334,9.7409,9.7372,9.7409,9.7372,9.7372,9.7446,9.7334,9.7409,9.7409,9.7,9.57,9.5403,9.5403,9.6288,0.0,9.6288,9.6288,0.0,9.6288,9.5788,9.498,9.498,9.498,9.498,9.498,9.498,9.498,9.498,9.498,9.5018,9.5441,9.5634,9.5672,9.6095,9.6288,9.6288,9.6288,9.6288,9.6288,9.6288,9.6288,9.6288,9.6288,9.6095,9.5634,9.5634,9.5403,9.5018,9.5365,9.5403,9.498,9.5865,9.6288,9.6288,9.6288,9.6288,9.6288,0.0,0.0,0.0,0.0,0.0,0.0,0.0,0.0,0.0,0.0,0.0,9.0758,9.0337,9.0258,9.0517,9.0093,8.9926,9.0129,9.0314,8.9755,8.8135,8.8291,8.8784,8.9555,8.9479,8.9644,9.0288,9.0615,9.0838,9.1056,9.1836,9.2319,9.2356,9.2691,9.2914,9.2914,9.2914,9.3099,9.3471,9.3879,9.4288,9.4734,9.5477,9.5997,9.5997,9.5997,9.6108,9.6591,9.7297,9.7817,9.7929,9.8523,9.8895,9.8635,9.8486,9.8338,9.7966,9.7892,9.7892,9.7892,9.7892,9.7892,9.7892,9.7892,9.7892,9.7892,9.7892,9.7669,9.6777,9.6629,9.6629,9.6288,9.6288,9.6288,9.6288,9.6288,9.6288,9.6288,9.6288,0.0,0.0,0.0,9.6288,9.6288,9.6288,9.6288,9.6288,9.6288,9.6288,9.6288,9.6288,9.6288,9.6288,9.6288,9.6288,9.6288,9.6326,9.6442,9.6519,9.6519,9.6673,9.6749,9.6749,9.6749,9.6749,9.6788,9.7403,9.7057,9.5788,9.6365,9.6749,9.6749,9.6749,9.6749,9.6749,9.6749,9.6289,9.5291,9.5099,9.46,9.3676,9.3484,9.3369,9.3369,9.3369,9.3369,9.3369,9.2756,9.264,9.3249,9.255,9.2346,9.3053,9.2917,9.2228,9.0901,9.0771,9.1075,9.1903,9.1767,9.1762,9.1881,9.2331,9.2652,9.2422,9.3582,9.44,9.4437,9.4957,9.5254,9.5403,9.5254,9.5403,9.5291,9.544,9.5626,9.57,9.6294,9.6926,9.7,9.7112,9.7334,9.7966,9.8672,9.9266,9.9378,9.9749,10.0009,9.9415,9.9303,9.9081,9.8523,9.8189,9.8115,9.8189,9.804,9.7892,9.7892,9.7892,9.7892,9.7892,9.7892,9.7892,9.7892,9.7892,9.7817,9.6288,9.6288,9.6288,9.6288,9.6288,9.6288,9.6288,9.6288,9.6288,9.6288,9.6288,9.6288,9.6288,9.6288,9.6288,9.6288,9.6288,9.6288,9.6288,0.0,9.6288,9.6288,9.6288,9.6288,9.6288,9.6326,9.7019,9.7326,9.7403,9.8057,9.8442,9.8404,9.8442,9.8442,9.8442,9.8557,9.8519,9.8288,9.8404,9.8442,9.8442,9.8442,9.8442,9.8442,9.8404,9.8019,9.7058,9.6328,9.5483,9.4558,9.3791,9.3369,9.3369,9.3446,9.3369,9.3369,9.3293,9.3293,9.3408,9.321,9.3349,9.3968,9.442,9.3858,9.2035,9.1671,9.2185,9.3596,9.3668,9.4092,9.5282,9.532,9.5166,9.5111,9.5135,9.5217,9.5291,9.5403,9.5514,9.5514,9.5403,9.5477,9.5588,9.6034,9.6443,9.6554,9.7186,9.7929,9.8449,9.8746,9.8783,9.9006,9.9601,10.0084,10.0158,10.0232,10.0344,10.0158,10.0121,10.0046,9.9824,9.9303,9.8969,9.8932,9.8486,9.8077,9.8003,9.7892,9.8003,9.804,9.8003,9.7966,9.7929,9.7892,9.7892,9.6288,9.6288,9.6288,9.6288,9.6288,9.6288,9.6288,9.6288,9.6288,9.6288,9.6288,9.6288,9.6288,9.6288,9.6288,9.6288,9.6288,9.6288,9.6288,9.6326,9.6749,9.6942,9.698,9.7442,9.7673,9.7673,9.8019,9.8211,9.825,9.8634,9.8788,9.8788,9.8788,9.9019,9.9442,9.9519,9.9712,10.0135,9.9288,9.8788,9.8788,9.8788,9.8788,9.8788,9.8788,9.8634,9.8173,9.775,9.7366,9.6982,9.6559,9.6328,9.6328,9.6328,9.6367,9.6367,9.6367,9.629,9.6211,9.6086,9.6107,9.6318,9.6381,9.6109,9.5148,9.4702,9.482,9.5459,9.5418,9.554,9.6144,9.643,9.65,9.634,9.6616,9.674,9.6777,9.674,9.674,9.674,9.674,9.674,9.674,9.7074,9.7297,9.7372,9.804,9.8709,9.9118,9.9861,10.0232,9.9898,10.0418,10.0901,10.0975,10.1347,10.1384,10.105,10.0975,10.0789,10.0455,9.9935,9.9786,9.9749,9.9415,9.9266,9.9155,9.9192,9.9043,9.8598,9.8523,9.8412,9.8077,9.7892,9.7892,9.6711,9.6865,9.6865,9.6865,9.6865,9.6865,9.6865,9.6865,9.6865,9.6865,9.6826,9.648,9.6403,9.6557,9.6596,9.6673,9.6865,9.6865,9.6865,9.6942,9.7519,9.7788,9.7865,9.8519,9.8788,9.8827,9.8981,9.9096,9.9096,9.925,9.9365,9.9365,9.9365,9.9712,10.0327,10.0366,10.0673,10.1173,10.0019,9.9365,9.9365,9.9365,9.9365,9.9365,9.9365,9.9288,9.9096,9.9096,9.8981,9.8788,9.8788,9.8788,9.8788,9.8788,9.8788,9.8788,9.8788,9.875,9.8633,9.8469,9.8298,9.8165,9.8039,9.7958,9.7858,9.7626,9.7328,9.7061,9.696,9.7004,9.7255,9.7665,9.7881,9.7823,9.8178,9.8412,9.8412,9.8449,9.8449,9.8449,9.83,9.8152,9.8152,9.8003,9.7966,9.8226,9.8858,9.9378,9.9749,10.0789,10.1198,10.1161,10.1384,10.1755,10.183,10.2238,10.235,10.183,10.1755,10.1532,10.1087,10.0789,10.0567,10.0529,10.0381,10.0195,10.0269,10.0232,9.9972,9.9489,9.9378,9.9192,9.8709,9.8375,9.8115,9.7827,9.8519,9.8519,9.8557,9.8481,9.8519,9.8481,9.8519,9.8557,9.8557,9.8327,9.698,9.6749,9.7326,9.7403,9.7788,9.8442,9.8557,9.8519,9.8519,9.8634,9.8673,9.8673,9.8788,9.8788,9.8942,9.9635,9.9981,10.0019,10.0635,10.1019,10.1096,10.1058,10.1058,10.1173,10.1212,10.125,10.1289,10.1173,10.1096,10.1058,10.1096,10.1058,10.1058,10.1096,10.0712,10.0096,9.9981,9.9596,9.8865,9.8865,9.8827,9.8827,9.8827,9.8827,9.8827,9.8827,9.875,9.8633,9.8511,9.8504,9.8293,9.8697,9.8883,9.8871,9.9043,9.8819,9.827,9.8411,9.8867,9.9631,10.0049,10.0188,10.0046,9.9996,10.0084,9.9972,10.0084,10.0084,10.0084,9.9378,9.8969,9.8932,9.8486,9.8338,9.8932,9.9675,10.0381,10.0938,10.1347,10.183,10.2238,10.2573,10.2536,10.2536,10.261,10.261,10.2536,10.2573,10.2387,10.2127,10.1755,10.1384,10.1347,10.0901,10.0567,10.0492,10.0307,10.0381,10.0232,10.0158,10.0121,9.9972,9.9489,9.8858,9.8481,9.8788,9.8788,9.8788,9.8788,9.8788,9.8788,9.8788,9.8788,9.8788,9.8711,9.8057,9.798,9.825,9.8288,9.8481,9.8788,9.8788,9.8788,9.8865,9.9327,9.9558,9.9596,10.0058,10.0289,10.0289,10.0635,10.0827,10.0866,10.1135,10.1289,10.1289,10.1289,10.1289,10.1366,10.1827,10.2058,10.2097,10.2558,10.2828,10.2789,10.2327,10.2327,10.2789,10.2828,10.2712,10.2327,10.1866,10.1404,10.1058,10.0558,10.0289,10.0289,10.0289,10.0289,10.0289,10.0289,10.025,10.0172,10.0049,9.9965,9.9922,9.9737,9.972,9.9759,9.9952,9.995,9.9666,9.9615,9.9956,10.0744,10.0835,10.0785,10.0718,10.048,10.0344,10.0307,10.0344,10.0307,10.0269,10.0046,9.9824,9.9786,9.9526,9.9489,9.9861,10.0492,10.1161,10.1495,10.1904,10.2313,10.261,10.2684,10.2684,10.2684,10.2684,10.2684,10.2684,10.2684,10.2684,10.2647,10.2498,10.2201,10.2201,10.183,10.1607,10.1793,10.1681,10.1644,10.1235,10.0492,10.0307,10.0307,10.0046,9.9638,9.9288,9.9481,9.9481,9.9481,9.9481,9.9481,9.9481,9.9481,9.9481,9.9481,9.9481,9.9481,9.9481,9.9442,9.925,9.925,9.9442,9.9481,9.9481,9.9558,10.0135,10.0404,10.0519,10.1019,10.1289,10.1289,10.1289,10.1289,10.1289,10.1289,10.1289,10.1327,10.152,10.1673,10.175,10.252,10.2943,10.302,10.3597,10.3982,10.4097,10.3597,10.3482,10.3866,10.3905,10.3905,10.3905,10.3289,10.2943,10.2943,10.2327,10.202,10.202,10.1789,10.1558,10.1327,10.1289,10.1289,10.1289,10.1126,10.1,10.0957,10.0471,10.0177,10.0227,10.0444,10.0667,10.0872,10.0819,10.112,10.1571,10.1584,10.1495,10.1495,10.1151,10.0938,10.1012,10.0975,10.1012,10.0938,10.0827,10.0529,10.0381,10.0418,10.0604,10.0715,10.131,10.183,10.1867,10.235,10.2684,10.2684,10.2684,10.2684,10.2684,10.2684,10.2684,10.2684,10.2684,10.2684,10.2684,10.2684,10.2684,10.2461,10.2647,10.2647,10.2387,10.2461,10.2536,10.1978,10.1384,10.0975,10.1198,10.0864,10.0678,10.0481,10.1096,10.1173,10.1096,10.1173,10.1135,10.1135,10.1019,10.1096,10.1135,10.1058,10.1096,10.1173,10.1058,10.0327,10.0442,10.1058,10.1058,10.1019,10.1058,10.1173,10.1212,10.125,10.1289,10.1289,10.1289,10.1289,10.1289,10.1289,10.1327,10.1289,10.1404,10.2135,10.2558,10.2674,10.3405,10.3828,10.3866,10.3982,10.4328,10.4943,10.4982,10.4597,10.4097,10.3943,10.402,10.3943,10.3866,10.3828,10.3828,10.3712,10.3712,10.3635,10.2943,10.2212,10.152,10.1366,10.1366,10.1326,10.1165,10.1,10.0919,10.051,10.0177,10.0203,10.052,10.0969,10.1648,10.2098,10.2472,10.2584,10.2744,10.2952,10.2989,10.2714,10.2498,10.2498,10.235,10.2573,10.2387,10.183,10.1272,10.0529,10.1012,10.1384,10.157,10.2127,10.2573,10.2536,10.2647,10.2684,10.2684,10.2684,10.2684,10.2684,10.2684,10.2684,10.2684,10.2684,10.2684,10.2684,10.2684,10.2684,10.2684,10.2684,10.2684,10.2684,10.2684,10.2684,10.2461,10.2424,10.2238,10.1978,10.1755,10.157,10.1019,10.1289,10.1289,10.1289,10.1289,10.1289,10.1289,10.1289,10.1289,10.1289,10.1289,10.1289,10.1289,10.1289,10.1019,10.1019,10.1289,10.1289,10.1289,10.1289,10.1289,10.1289,10.1289,10.1289,10.1289,10.1289,10.1289,10.1289,10.1366,10.1827,10.2135,10.2289,10.302,10.3443,10.3558,10.4251,10.4674,10.4713,10.5213,10.5636,10.5867,10.5944,10.579,10.552,10.552,10.5482,10.5482,10.4982,10.4674,10.4674,10.4174,10.3905,10.3866,10.3597,10.3328,10.2981,10.2443,10.2135,10.2019,10.1433,10.1,10.0919,10.051,10.0253,10.0303,10.086,10.1497,10.189,10.2812,10.3298,10.3346,10.3343,10.3326,10.3219,10.2938,10.2684,10.2684,10.2684,10.2684,10.2647,10.2424,10.2164,10.1904,10.209,10.2275,10.2313,10.2536,10.2684,10.2684,10.2684,10.2684,10.2684,10.2684,10.2684,10.2684,10.2684,10.2684,10.2684,10.2684,10.2684,10.2684,10.2684,10.2684,10.2684,10.2684,10.2684,10.2684,10.2684,10.2684,10.2684,10.2684,10.2684,10.2684,10.2275,10.2201,10.1289,10.1289,10.1289,10.1289,10.1289,10.1289,10.1289,10.1289,10.1289,10.1289,10.1289,10.1289,10.1289,10.1289,10.1289,10.1289,10.1289,10.1289,10.1289,10.1289,10.1289,10.1289,10.1289,10.1289,10.1289,10.1366,10.1597,10.1712,10.1827,10.2597,10.302,10.3058,10.3866,10.4289,10.4405,10.5097,10.552,10.5636,10.6136,10.6405,10.6405,10.6405,10.6405,10.6405,10.6405,10.6405,10.6405,10.5828,10.552,10.5443,10.4982,10.4597,10.4328,10.4289,10.4174,10.3866,10.3366,10.302,10.2863,10.224,10.1805,10.1718,10.1311,10.1015,10.1039,10.1769,10.2161,10.2456,10.3113,10.3786,10.3758,10.3493,10.3326,10.3219,10.2938,10.2684,10.2684,10.2684,10.2684,10.2684,10.2684,10.2684,10.2684,10.2684,10.2684,10.2684,10.2684,10.2684,10.2684,10.2684,10.2684,10.2684,10.2684,10.2684,10.2684,10.2684,10.2721,10.2721,10.2721,10.2721,10.2796,10.2758,10.2796,10.2758,10.2721,10.2721,10.2721,10.2721,10.2721,10.2758,10.2684,10.2684,10.2684,10.2684,10.2573,10.1289,10.1289,10.1289,10.1289,10.1289,10.1289,10.1289,10.1289,10.1289,10.1289,10.1289,10.1289,10.1289,10.1289,10.1289,10.1289,10.1327,10.1404,10.1404,10.1327,10.1289,10.1289,10.1289,10.1404,10.152,10.1597,10.2251,10.2597,10.2674,10.3443,10.3905,10.4059,10.4713,10.5136,10.5097,10.5867,10.6328,10.6328,10.6444,10.6482,10.6444,10.6559,10.6674,10.6597,10.6597,10.6636,10.6521,10.6405,10.629,10.629,10.629,10.5944,10.5213,10.5097,10.4789,10.4251,10.3943,10.3864,10.3744,10.3464,10.3142,10.3007,10.2789,10.2423,10.2447,10.2772,10.2969,10.2984,10.3477,10.3824,10.3758,10.3493,10.3326,10.3256,10.2938,10.2721,10.2684,10.2684,10.2684,10.2684,10.2684,10.2684,10.2684,10.2684,10.2684,10.2684,10.2684,10.2684,10.2684,10.2684,10.2684,10.2684,10.2684,10.2684,10.2684,10.2721,10.2721,10.2758,10.2758,10.2758,10.2981,10.3093,10.3316,10.3316,10.3501,10.3501,10.3501,10.3464,10.3204,10.3167,10.2981,10.2833,10.2684,10.2684,10.2684,10.1289,10.1289,10.1289,10.1289,10.1289,10.1289,10.1289,10.1289,10.1289,10.1289,10.1289,10.1289,10.1289,10.1327,10.1289,10.1327,10.1366,10.1866,10.1904,10.1443,10.1327,10.1366,10.1443,10.1943,10.252,10.3058,10.3328,10.3482,10.3635,10.4328,10.4713,10.4866,10.5559,10.5982,10.602,10.6251,10.6405,10.6482,10.7021,10.729,10.7367,10.7829,10.8098,10.8136,10.8136,10.8136,10.8098,10.7021,10.6444,10.6444,10.6405,10.629,10.6059,10.5982,10.5867,10.5597,10.502,10.4713,10.4595,10.3967,10.3569,10.3359,10.3029,10.2741,10.2713,10.3056,10.3202,10.3195,10.3652,10.3952,10.3758,10.3493,10.3326,10.3288,10.2938,10.2684,10.2684,10.2684,10.2684,10.2684,10.2684,10.2684,10.2684,10.2684,10.2684,10.2684,10.2684,10.2684,10.2684,10.2684,10.2684,10.2684,10.2684,10.2758,10.2907,10.3056,10.3167,10.3241,10.3204,10.3279,10.3464,10.3613,10.3836,10.3984,10.4133,10.4244,10.4244,10.417,10.391,10.3762,10.3687,10.3353,10.287,10.287,10.3093,10.1289,10.1289,10.1289,10.1289,10.1289,10.1289,10.1289,10.1289,10.1289,10.1289,10.1366,10.1673,10.1789,10.1866,10.2135,10.2251,10.2327,10.2866,10.2789,10.2327,10.2289,10.2251,10.2327,10.2789,10.3328,10.3866,10.4212,10.4328,10.4405,10.5136,10.5597,10.5713,10.6136,10.6559,10.6828,10.6905,10.6982,10.7367,10.7867,10.8136,10.8213,10.8636,10.8906,10.8867,10.8906,10.8906,10.8829,10.7867,10.7328,10.7328,10.7328,10.7213,10.6944,10.6867,10.6751,10.6367,10.5944,10.5597,10.5438,10.4884,10.4413,10.4278,10.4032,10.3731,10.3702,10.3832,10.3794,10.3768,10.3941,10.4016,10.3888,10.3626,10.3394,10.3326,10.2938,10.2721,10.2684,10.2684,10.2684,10.2684,10.2684,10.2684,10.2684,10.2684,10.2684,10.2684,10.2684,10.2684,10.2684,10.2684,10.2721,10.2721,10.2684,10.287,10.3204,10.339,10.3613,10.3724,10.3799,10.4022,10.4244,10.4393,10.4579,10.4653,10.4802,10.4765,10.4765,10.4876,10.4765,10.4616,10.443,10.4244,10.3984,10.391,10.4022,10.1327,10.1366,10.1404,10.1481,10.1558,10.1597,10.1673,10.152,10.1558,10.1635,10.175,10.2366,10.2674,10.2866,10.3328,10.3597,10.3866,10.3905,10.3943,10.3905,10.3943,10.3982,10.3866,10.3905,10.4097,10.4366,10.4866,10.5174,10.5213,10.5905,10.6405,10.629,10.6482,10.6867,10.7482,10.7713,10.8059,10.8559,10.8867,10.8983,10.8983,10.9136,10.9175,10.9213,10.9213,10.9252,10.9252,10.9136,10.8983,10.8906,10.8675,10.8367,10.7905,10.779,10.7405,10.679,10.6597,10.6479,10.6314,10.6112,10.587,10.5656,10.538,10.5434,10.5011,10.4757,10.4553,10.4416,10.429,10.418,10.4054,10.3796,10.353,10.3288,10.2938,10.2684,10.2684,10.2684,10.2684,10.2684,10.2684,10.2684,10.2684,10.2684,10.2684,10.2684,10.2684,10.2684,10.2684,10.2721,10.2758,10.2833,10.3019,10.3427,10.3873,10.4096,10.4356,10.4802,10.4802,10.4913,10.5173,10.5359,10.5582,10.5619,10.5545,10.5433,10.5508,10.5768,10.5656,10.5396,10.5285,10.5285,10.5062,10.4765,10.469,10.1673,10.2251,10.2289,10.2635,10.3174,10.3212,10.3174,10.3212,10.3174,10.3097,10.3251,10.3443,10.3558,10.3597,10.3789,10.3905,10.4097,10.452,10.4789,10.4905,10.5482,10.5328,10.4905,10.4789,10.5097,10.5636,10.5828,10.6059,10.6059,10.6328,10.6444,10.6444,10.7098,10.7482,10.7713,10.8329,10.8636,10.8983,10.9598,10.9829,10.9944,11.0483,11.0829,11.0829,11.0791,11.0752,11.0791,11.0829,11.0137,10.8983,10.8906,10.8829,10.8636,10.8598,10.8444,10.8175,10.8136,10.7944,10.7402,10.7159,10.6764,10.6055,10.5859,10.5548,10.5434,10.5132,10.4912,10.4742,10.4567,10.4365,10.4142,10.3888,10.356,10.3149,10.2866,10.2684,10.2684,10.2684,10.2684,10.2684,10.2684,10.2684,10.2684,10.2684,10.2684,10.2684,10.2684,10.2684,10.2684,10.287,10.2981,10.3501,10.3799,10.4207,10.4579,10.4802,10.5173,10.5805,10.5953,10.5953,10.6251,10.6511,10.6808,10.7068,10.6696,10.6548,10.6808,10.7068,10.6696,10.6139,10.6102,10.6028,10.547,10.5099,10.521,10.2674,10.3135,10.3135,10.3443,10.3866,10.3905,10.3905,10.3905,10.3905,10.3905,10.3943,10.4251,10.4405,10.4443,10.4789,10.4943,10.502,10.5443,10.5636,10.5713,10.6136,10.6059,10.5713,10.5636,10.5905,10.6328,10.6405,10.6367,10.6482,10.6751,10.6944,10.7136,10.779,10.8367,10.8829,10.9175,10.9675,11.0021,11.0521,11.0752,11.0829,11.1214,11.1445,11.1522,11.1522,11.1522,11.1483,11.1483,11.0983,11.0214,10.9983,10.9829,10.9483,10.9444,10.929,10.8983,10.8906,10.8636,10.8329,10.809,10.7774,10.7142,10.6652,10.6231,10.6045,10.5611,10.5132,10.4874,10.4742,10.4508,10.4242,10.3888,10.356,10.3288,10.3079,10.2866,10.2684,10.2684,10.2684,10.2684,10.2684,10.2684,10.2684,10.2684,10.2684,10.2684,10.2684,10.2684,10.2721,10.2981,10.339,10.3984,10.4542,10.495,10.5359,10.5656,10.5953,10.6585,10.6734,10.6771,10.6956,10.7254,10.7365,10.7514,10.7588,10.7625,10.7625,10.7588,10.7328,10.6956,10.6919,10.6734,10.6288,10.5879,10.5916,10.3943,10.402,10.402,10.4059,10.4212,10.4174,10.4328,10.4212,10.4328,10.4289,10.4443,10.4943,10.5213,10.529,10.5828,10.629,10.629,10.6213,10.629,10.629,10.6405,10.6367,10.6559,10.629,10.629,10.6444,10.6482,10.6597,10.6867,10.7444,10.779,10.8021,10.8636,10.9367,10.9829,11.0214,11.0752,11.1175,11.1291,11.1368,11.1368,11.1483,11.1522,11.1522,11.1522,11.1522,11.1522,11.1522,11.1406,11.1483,11.1522,11.1021,11.0367,11.0329,11.0021,10.9521,10.9406,10.9329,10.906,10.8936,10.8734,10.8383,10.7626,10.7169,10.6996,10.6426,10.584,10.5398,10.5026,10.4836,10.4327,10.3888,10.3664,10.353,10.3357,10.3149,10.2829,10.2721,10.2721,10.2684,10.2684,10.2684,10.2684,10.2721,10.2721,10.2758,10.287,10.313,10.3353,10.3724,10.4133,10.4616,10.5136,10.5656,10.6102,10.6511,10.6845,10.7254,10.7291,10.7328,10.7328,10.7514,10.7551,10.7625,10.7625,10.7625,10.7625,10.7588,10.7551,10.7514,10.7291,10.7402,10.7439,10.7068,10.6919,10.4251,10.4828,10.4828,10.5251,10.5828,10.5867,10.5828,10.579,10.5828,10.5713,10.5867,10.6059,10.6059,10.6097,10.629,10.6405,10.6405,10.6405,10.6405,10.6405,10.6405,10.6828,10.7098,10.6867,10.6482,10.6636,10.7136,10.7405,10.7598,10.8175,10.8636,10.879,10.9483,10.9983,11.0252,11.0868,11.1291,11.1483,11.1522,11.1522,11.1522,11.1522,11.1522,11.1522,11.1522,11.1522,11.1522,11.1522,11.1522,11.1522,11.1522,11.1368,11.1175,11.1137,11.1021,11.0868,11.0791,11.0598,11.0098,10.9825,10.9513,10.8888,10.8613,10.8247,10.8098,10.776,10.7152,10.6525,10.6121,10.5519,10.4577,10.418,10.3888,10.373,10.3597,10.3462,10.3219,10.3009,10.2866,10.2794,10.2721,10.2684,10.2721,10.2868,10.2796,10.2833,10.3204,10.365,10.4059,10.4467,10.4913,10.5359,10.5879,10.6362,10.6734,10.7031,10.7217,10.7477,10.7588,10.7625,10.7625,10.7625,10.7625,10.7625,10.7625,10.7625,10.7625,10.7625,10.7588,10.7625,10.7625,10.7625,10.7625,10.7625,10.7625,10.533,10.5713,10.5713,10.5982,10.6367,10.6405,10.6405,10.6405,10.6405,10.6405,10.6405,10.6405,10.6405,10.6405,10.6405,10.6405,10.6405,10.6405,10.6636,10.6905,10.7059,10.7482,10.8059,10.7867,10.7598,10.7675,10.8021,10.8252,10.8482,10.906,10.9521,10.9598,11.0367,11.0791,11.0829,11.1252,11.1445,11.1522,11.1522,11.1522,11.1522,11.1522,11.1522,11.1522,11.1522,11.1522,11.1522,11.1522,11.1522,11.1522,11.1522,11.1522,11.1522,11.1522,11.1522,11.1522,11.1522,11.1368,11.0906,11.0791,11.0594,11.0012,10.9585,10.9304,10.9014,10.872,10.8066,10.7533,10.7135,10.6598,10.5307,10.4478,10.4155,10.3952,10.3861,10.3796,10.3597,10.3288,10.3079,10.3009,10.3009,10.3009,10.3046,10.331,10.3567,10.3754,10.4352,10.4726,10.4912,10.5285,10.5693,10.6139,10.6659,10.7068,10.7365,10.7514,10.7477,10.7588,10.7588,10.7625,10.7625,10.7625,10.7625,10.7625,10.7625,10.7625,10.7625,10.7625,10.7625,10.7625,10.7625,10.7625,10.7625,10.7625,10.7625,10.6487,10.6405,10.6405,10.6405,10.6405,10.6405,10.6405,10.6405,10.6405,10.6405,10.6405,10.6405,10.6405,10.6444,10.6597,10.6636,10.6828,10.6905,10.7367,10.7829,10.7867,10.8367,10.8906,10.9021,10.9136,10.9252,10.9175,10.9136,10.9329,10.9906,11.0367,11.0521,11.106,11.1329,11.1483,11.1522,11.1522,11.1522,11.1522,11.1522,11.1522,11.1522,11.1522,11.1522,11.1522,11.1522,11.1522,11.1522,11.1522,11.1522,11.1522,11.1522,11.1522,11.1522,11.1522,11.1522,11.1522,11.1445,11.1406,11.1406,11.1406,11.1483,11.0743,11.0232,10.9995,10.9513,10.8988,10.8448,10.8016,10.7371,10.6392,10.5648,10.5015,10.4818,10.4657,10.4456,10.4264,10.4001,10.4017,10.3587,10.363,10.3634,10.4003,10.4339,10.4558,10.482,10.535,10.5728,10.5914,10.6176,10.6512,10.6696,10.7105,10.7291,10.7551,10.7625,10.7625,10.7625,10.7625,10.7625,10.7625,10.7625,10.7625,10.7625,10.7625,10.7625,10.7625,10.7625,10.7625,10.7625,10.7625,10.7625,10.7625,10.7625,10.7625,10.6488,10.6449,10.6446,10.6405,10.6405,10.6405,10.6405,10.6405,10.6405,10.6405,10.6444,10.6405,10.6482,10.6636,10.7251,10.7829,10.8136,10.8213,10.8406,10.8675,10.8752,10.9136,10.9829,11.0021,11.0329,11.0714,11.0406,10.9983,11.0175,11.0829,11.1098,11.1291,11.1406,11.1522,11.1522,11.1522,11.1522,11.1522,11.1522,11.1522,11.1522,11.1598,11.1637,11.1675,11.1752,11.1752,11.1675,11.1598,11.1522,11.1522,11.1522,11.156,11.1675,11.1675,11.1598,11.1522,11.1522,11.1522,11.1522,11.1522,11.1522,11.1483,11.1248,11.1127,11.1006,11.0801,11.0164,10.9361,10.8577,10.7821,10.734,10.6847,10.6808,10.6632,10.6398,10.6337,10.6214,10.595,10.5569,10.4863,10.469,10.4516,10.499,10.5364,10.5626,10.5963,10.6385,10.6616,10.6658,10.6995,10.733,10.7441,10.7477,10.7551,10.7625,10.7625,10.7625,10.7625,10.7625,10.7625,10.7625,10.7625,10.7625,10.7625,10.7625,10.7625,10.7625,10.7625,10.7625,10.7625,10.7625,10.7625,10.7625,10.7625,10.7625,10.6565,10.6488,10.6446,10.6405,10.6405,10.6405,10.6405,10.6405,10.6405,10.6674,10.6982,10.71,10.741,10.7795,10.8221,10.8722,10.895,10.8906,10.9136,10.9444,10.9598,11.0021,11.0752,11.0868,11.1098,11.1291,11.106,11.0829,11.0906,11.1252,11.1522,11.1522,11.1522,11.1522,11.1522,11.1522,11.1522,11.1522,11.1522,11.1522,11.1598,11.1868,11.2099,11.2214,11.256,11.2791,11.2791,11.2791,11.2829,11.2829,11.2829,11.2791,11.2637,11.2329,11.1945,11.1675,11.1522,11.1522,11.1522,11.1522,11.1522,11.1522,11.1522,11.1478,11.1396,11.1237,11.0986,11.0338,10.9416,10.8665,10.8522,10.8018,10.7586,10.7474,10.7454,10.7339,10.7242,10.7123,10.6842,10.6376,10.616,10.6058,10.6105,10.6481,10.676,10.7074,10.7455,10.7431,10.7437,10.759,10.7889,10.7701,10.7588,10.7625,10.7625,10.7625,10.7625,10.7625,10.7625,10.7625,10.7625,10.7625,10.7625,10.7625,10.7625,10.7625,10.7625,10.7625,10.7625,10.7625,10.7625,10.7625,10.7625,10.7625,10.7625,10.6678,10.6526,10.6448,10.6446,10.6446,10.6636,10.6674,10.6715,10.6946,10.7369,10.7949,10.8067,10.8453,10.8993,10.934,10.9533,10.961,10.9566,10.9948,11.0371,11.0483,11.0868,11.1291,11.1522,11.1483,11.1445,11.1445,11.1522,11.1406,11.1483,11.1522,11.1522,11.1522,11.1522,11.1522,11.1522,11.1522,11.1522,11.1522,11.156,11.1906,11.2522,11.2945,11.2983,11.3637,11.3907,11.3791,11.3753,11.3791,11.3791,11.3868,11.3907,11.3868,11.333,11.2676,11.2099,11.1714,11.156,11.1522,11.1522,11.1522,11.1522,11.1522,11.1522,11.144,11.1352,11.1224,11.097,11.0405,10.976,10.9633,10.8984,10.8651,10.8468,10.8453,10.8174,10.8232,10.8328,10.8479,10.8151,10.7805,10.7683,10.7648,10.7645,10.7929,10.7871,10.8149,10.8054,10.8026,10.7885,10.7963,10.7701,10.7625,10.7625,10.7625,10.7625,10.7625,10.7625,10.7625,10.7625,10.7625,10.7625,10.7625,10.7625,10.7625,10.7625,10.7625,10.7625,10.7625,10.7625,10.7625,10.7625,10.7625,10.7625,10.7625,10.6747,10.6751,10.6603,10.6488,10.6641,10.7254,10.7602,10.7721,10.8376,10.8839,10.8993,10.9032,10.9147,10.9494,11.0112,11.0729,11.1153,11.1151,11.107,11.1263,11.1218,11.1252,11.1483,11.1522,11.1522,11.1522,11.1522,11.1522,11.1522,11.1522,11.1522,11.1522,11.1522,11.1522,11.1522,11.1522,11.1522,11.1522,11.1522,11.1906,11.2599,11.3407,11.3753,11.3907,11.406,11.4214,11.4291,11.433,11.4253,11.4214,11.4137,11.406,11.3984,11.3945,11.383,11.3291,11.2483,11.1522,11.1637,11.156,11.1522,11.1522,11.1522,11.1522,11.144,11.1396,11.1307,11.1307,11.0978,11.0769,11.0731,11.0683,11.0596,11.0295,11.0003,10.9886,10.9909,10.9398,10.9595,10.9654,10.9239,10.92,10.9152,10.9095,10.9093,10.8963,10.8869,10.8705,10.8466,10.8254,10.7963,10.7701,10.7625,10.7625,10.7625,10.7625,10.7625,10.7625,10.7625,10.7625,10.7625,10.7625,10.7625,10.7625,10.7625,10.7625,10.7625,10.7625,10.7625,10.7625,10.7625,10.7625,10.7625,10.7625,10.7625,10.8015,10.7555,10.7411,10.7605,10.8068,10.8415,10.8569,10.8646,10.8955,10.9456,10.988,11.0032,11.0301,11.0762,11.1189,11.1461,11.1808,11.1732,11.1652,11.1612,11.1571,11.1526,11.1522,11.1522,11.1522,11.1522,11.1522,11.1522,11.1522,11.1522,11.1522,11.1522,11.1522,11.1522,11.1522,11.1522,11.1522,11.1637,11.1945,11.2599,11.3445,11.4253,11.4753,11.4753,11.5138,11.5291,11.533,11.5407,11.5407,11.5407,11.5407,11.5407,11.5291,11.5022,11.4714,11.4638,11.3637,11.2791,11.2252,11.1791,11.1598,11.1522,11.1522,11.1522,11.1522,11.144,11.1396,11.1396,11.1307,11.1262,11.1178,11.1132,11.1123,11.0989,11.0941,11.0892,11.0804,11.0793,11.0627,11.0691,11.0587,11.0335,11.0018,10.9786,10.9545,10.9359,10.9104,10.884,10.8536,10.8254,10.7963,10.7701,10.7625,10.7625,10.7625,10.7625,10.7625,10.7625,10.7625,10.7625,10.7625,10.7625,10.7625,10.7625,10.7625,10.7625,10.7625,10.7625,10.7625,10.7625,10.7625,10.7625,10.7625,10.7625,10.7625,10.9205,10.8749,10.8449,10.8721,10.9262,10.9417,10.9533,10.957,10.9841,11.0265,11.0727,11.0994,11.1451,11.1951,11.1915,11.1918,11.1918,11.1847,11.1771,11.1654,11.1612,11.1571,11.1526,11.1564,11.1522,11.1522,11.1522,11.1522,11.1522,11.1522,11.1522,11.1522,11.1522,11.1522,11.156,11.1791,11.2022,11.2406,11.3099,11.3714,11.4368,11.5138,11.5484,11.5753,11.6099,11.6484,11.6484,11.6407,11.6407,11.6369,11.633,11.6253,11.6176,11.583,11.5599,11.5407,11.4676,11.4022,11.3291,11.2637,11.1868,11.156,11.1522,11.1522,11.1522,11.1522,11.1522,11.1478,11.1396,11.1352,11.1352,11.1262,11.1262,11.1216,11.117,11.117,11.117,11.1076,11.0989,11.0892,11.0843,11.0793,11.0496,11.0225,10.9999,10.9764,10.9459,10.9076,10.8674,10.8291,10.7963,10.7777,10.7625,10.7625,10.7625,10.7625,10.7625,10.7625,10.7625,10.7625,10.7625,10.7625,10.7625,10.7625,10.7625,10.7625,10.7625,10.7625,10.7625,10.7625,10.7625,10.7625,10.7625,10.7625,10.7625,10.9935,11.052,10.9677,10.941,10.9564,11.0149,11.0495,11.0646,11.1341,11.1687,11.1799,11.1951,11.1912,11.2101,11.2067,11.2067,11.2067,11.1957,11.1884,11.1809,11.1732,11.1612,11.1609,11.1526,11.1522,11.1522,11.1522,11.1522,11.1522,11.1522,11.1522,11.1522,11.156,11.1522,11.1829,11.2329,11.3022,11.3599,11.4368,11.483,11.5291,11.583,11.6253,11.633,11.6407,11.6484,11.6484,11.6484,11.6484,11.6484,11.6484,11.6484,11.6446,11.633,11.6176,11.6022,11.5599,11.5061,11.4484,11.3407,11.2329,11.1791,11.1522,11.1522,11.1522,11.1522,11.1522,11.1522,11.1478,11.1478,11.1478,11.1478,11.1396,11.1352,11.1307,11.1307,11.1262,11.1216,11.117,11.1085,11.1037,11.0989,11.0892,11.0601,11.0263,10.9979,10.9559,10.9141,10.8712,10.8362,10.8109,10.7889,10.7701,10.7625,10.7625,10.7625,10.7625,10.7625,10.7625,10.7625,10.7625,10.7625,10.7625,10.7625,10.7625,10.7625,10.7625,10.7625,10.7625,10.7625,10.7625,10.7625,10.7625,10.7625,10.7625,11.1289,11.156,11.1216,11.1026,11.1065,11.1339,11.1493,11.1606,11.1877,11.2028,11.2101,11.2101,11.2101,11.2101,11.2101,11.2101,11.2101,11.2067,11.1993,11.1921,11.1847,11.1732,11.1652,11.1571,11.1568,11.1522,11.1522,11.1522,11.1522,11.1598,11.1906,11.1945,11.1829,11.1906,11.2291,11.3099,11.3945,11.4599,11.5138,11.5484,11.6061,11.6215,11.6484,11.6484,11.6484,11.6484,11.6484,11.6484,11.6484,11.6484,11.6484,11.6484,11.6484,11.6484,11.6484,11.6484,11.6099,11.5792,11.5253,11.4176,11.3137,11.2329,11.1868,11.1522,11.156,11.1522,11.1522,11.1522,11.1522,11.1522,11.1522,11.1522,11.1478,11.1522,11.144,11.1396,11.1396,11.1307,11.1307,11.1262,11.1262,11.1216,11.1085,11.0941,11.0535,11.0151,10.9742,10.9206,10.881,10.8433,10.8182,10.7963,10.774,10.7625,10.7625,10.7625,10.7625,10.7625,10.7625,10.7625,10.7625,10.7625,10.7625,10.7625,10.7625,10.7625,10.7625,10.7625,10.7625,10.7625,10.7625,10.7625,10.7625,10.7625,10.7625,11.2101,11.2101,11.2101,11.2101,11.2101,11.2101,11.2101,11.2101,11.2101,11.2101,11.2101,11.2101,11.2101,11.2101,11.2101,11.2101,11.2101,11.2067,11.2067,11.1957,11.1921,11.177,11.1692,11.1612,11.1568,11.1522,11.1522,11.156,11.1945,11.1868,11.2368,11.2714,11.2599,11.2753,11.3137,11.3945,11.483,11.5445,11.5715,11.5869,11.6446,11.6484,11.6484,11.6484,11.6484,11.6484,11.6484,11.6484,11.6484,11.6484,11.6484,11.6484,11.6484,11.6484,11.6484,11.6484,11.6407,11.6176,11.5599,11.4561,11.3637,11.2676,11.2252,11.1829,11.1598,11.1522,11.1522,11.1522,11.1522,11.1522,11.1522,11.1522,11.1522,11.1522,11.1522,11.1478,11.1478,11.1435,11.1478,11.1478,11.1396,11.1352,11.1132,11.0989,11.0549,11.0208,10.9764,10.9334,10.8944,10.8536,10.8254,10.8036,10.7852,10.7777,10.7588,10.7625,10.7625,10.7625,10.7625,10.7625,10.7625,10.7625,10.7625,10.7625,10.7625,10.7625,10.7625,10.7625,10.7625,10.7625,10.7625,10.7625,10.7625,10.7625,10.7625,11.2101,11.2101,11.2101,11.2101,11.2101,11.2101,11.2101,11.2101,11.2101,11.2101,11.2101,11.2101,11.2101,11.2101,11.2101,11.2101,11.2101,11.2101,11.2067,11.2028,11.1993,11.1884,11.1771,11.1692,11.1727,11.1564,11.1714,11.2103,11.2676,11.2714,11.3176,11.3791,11.3945,11.3945,11.406,11.483,11.5676,11.633,11.6369,11.6407,11.6446,11.6484,11.6484,11.6484,11.6484,11.6484,11.6484,11.6484,11.6484,11.6484,11.6484,11.6484,11.6484,11.6484,11.6484,11.6484,11.6484,11.6446,11.633,11.4868,11.3945,11.3214,11.2945,11.2406,11.1791,11.1598,11.156,11.1598,11.1522,11.1522,11.1522,11.1522,11.1522,11.1522,11.1522,11.1522,11.1522,11.1522,11.1522,11.1522,11.1522,11.1396,11.1178,11.0941,11.0549,11.017,10.9727,10.9359,10.9076,10.8742,10.8396,10.8109,10.7926,10.774,10.7664,10.7625,10.7625,10.7625,10.7625,10.7625,10.7625,10.7625,10.7625,10.7625,10.7625,10.7625,10.7625,10.7625,10.7625,10.7625,10.7625,10.7625,10.7625,10.7625,10.7625,11.2101,11.2101,11.2101,11.2101,11.2101,11.2101,11.2101,11.2101,11.2101,11.2101,11.2101,11.2101,11.2101,11.2101,11.2101,11.2101,11.2101,11.2101,11.2101,11.214,11.2105,11.1957,11.1923,11.204,11.2117,11.2344,11.2495,11.2838,11.356,11.356,11.406,11.4714,11.5176,11.533,11.5215,11.5638,11.6292,11.6446,11.6446,11.6484,11.6484,11.6484,11.6484,11.6484,11.6484,11.6484,11.6484,11.6484,11.6484,11.6484,11.6484,11.6484,11.6484,11.6484,11.6484,11.6484,11.6484,11.6484,11.6446,11.5792,11.533,11.4561,11.383,11.3214,11.2445,11.2329,11.206,11.1637,11.156,11.156,11.1522,11.1522,11.1522,11.1522,11.1522,11.1522,11.1522,11.1522,11.1522,11.1522,11.1522,11.144,11.1307,11.1085,11.0704,11.039,10.9999,10.9583,10.9206,10.8877,10.8574,10.8291,10.8,10.7852,10.7664,10.7625,10.7625,10.7625,10.7625,10.7625,10.7625,10.7625,10.7625,10.7625,10.7625,10.7625,10.7625,10.7625,10.7625,10.7625,10.7625,10.7625,10.7625,10.7625,10.7625,11.2101,11.2101,11.2101,11.2101,11.2101,11.2101,11.2101,11.2101,11.2101,11.2101,11.2101,11.2101,11.2101,11.2101,11.2101,11.2101,11.2101,11.2101,11.2449,11.2449,11.2527,11.2727,11.2807,11.2771,11.3121,11.3312,11.3464,11.3769,11.4536,11.4494,11.4951,11.5638,11.6176,11.6061,11.5984,11.6215,11.6446,11.6484,11.6484,11.6484,11.6484,11.6484,11.6484,11.6484,11.6484,11.6484,11.6484,11.6484,11.6484,11.6484,11.6484,11.6484,11.6484,11.6484,11.6484,11.6484,11.6484,11.6484,11.6446,11.6446,11.5984,11.5676,11.4945,11.4099,11.3253,11.2829,11.2445,11.206,11.1752,11.1598,11.156,11.156,11.1522,11.1522,11.1522,11.1522,11.1522,11.1522,11.1522,11.1522,11.1522,11.1396,11.1352,11.1178,11.0941,11.0639,11.0319,10.9883,10.9397,10.9076,10.8712,10.8362,10.8036,10.7889,10.7777,10.7625,10.7625,10.7625,10.7625,10.7625,10.7625,10.7625,10.7625,10.7625,10.7625,10.7625,10.7625,10.7625,10.7625,10.7625,10.7625,10.7625,10.7625,10.7625,10.7625,11.2101,11.2101,11.2101,11.2101,11.2101,11.2101,11.2101,11.2101,11.2101,11.2101,11.2101,11.2101,11.2179,11.2217,11.2179,11.2333,11.2449,11.2449,11.2797,11.3184,11.3339,11.3732,11.4044,11.4162,11.4201,11.424,11.4433,11.478,11.5473,11.5468,11.5846,11.6259,11.6452,11.6452,11.6407,11.6407,11.6484,11.6484,11.6484,11.6484,11.6484,11.6484,11.6484,11.6484,11.6484,11.6484,11.6484,11.6484,11.6484,11.6484,11.6484,11.6484,11.6484,11.6484,11.6484,11.6484,11.6484,11.6484,11.6484,11.6484,11.6446,11.6176,11.5753,11.4945,11.4214,11.356,11.3214,11.2676,11.2252,11.1906,11.1637,11.1598,11.1522,11.1522,11.1522,11.1522,11.1522,11.1522,11.1522,11.1522,11.1522,11.1478,11.1396,11.1262,11.1037,11.0843,11.0481,10.9999,10.9583,10.927,10.881,10.8362,10.8147,10.7963,10.7815,10.7625,10.7625,10.7625,10.7625,10.7625,10.7625,10.7625,10.7625,10.7625,10.7625,10.7625,10.7625,10.7625,10.7625,10.7625,10.7625,10.7625,10.7625,10.7625,10.7625,11.2101,11.2101,11.2101,11.2101,11.2101,11.2101,11.2101,11.2101,11.2101,11.2101,11.2101,11.2101,11.2527,11.2952,11.2952,11.3339,11.3648,11.3919,11.3997,11.4151,11.4229,11.4422,11.4541,11.4737,11.4894,11.5166,11.5437,11.5669,11.6246,11.636,11.6357,11.6577,11.6616,11.6611,11.6529,11.6484,11.6484,11.6484,11.6484,11.6484,11.6484,11.6484,11.6484,11.6484,11.6484,11.6484,11.6484,11.6484,11.6484,11.6484,11.6484,11.6484,11.6484,11.6484,11.6484,11.6484,11.6484,11.6484,11.6484,11.6484,11.6484,11.6484,11.6215,11.5792,11.5138,11.4561,11.4137,11.356,11.2906,11.2522,11.2175,11.2022,11.1868,11.1752,11.1675,11.1522,11.1522,11.1522,11.1522,11.1522,11.1522,11.1522,11.1478,11.1262,11.1037,11.0892,11.0639,11.017,10.9764,10.9397,10.8877,10.8325,10.8147,10.8036,10.7852,10.7625,10.7625,10.7625,10.7625,10.7625,10.7625,10.7625,10.7625,10.7625,10.7625,10.7625,10.7625,10.7625,10.7625,10.7625,10.7625,10.7625,10.7625,10.7625,10.7625,11.2101,11.214,11.2449,11.2759,11.3068,11.3107,11.3107,11.303,11.2759,11.2759,11.3068,11.3107,11.3339,11.3726,11.3842,11.4035,11.4461,11.4461,11.4654,11.508,11.5118,11.5467,11.5467,11.5583,11.5934,11.6168,11.6324,11.6479,11.6866,11.6904,11.6825,11.6743,11.674,11.6616,11.6573,11.6529,11.6484,11.6484,11.6484,11.6484,11.6484,11.6484,11.6484,11.6484,11.6484,11.6484,11.6484,11.6484,11.6484,11.6484,11.6484,11.6484,11.6484,11.6484,11.6484,11.6484,11.6484,11.6484,11.6484,11.6484,11.6484,11.6484,11.6484,11.6215,11.583,11.533,11.4945,11.4484,11.3753,11.3176,11.2868,11.256,11.2291,11.2022,11.1791,11.1522,11.1522,11.1522,11.1522,11.1522,11.1522,11.1522,11.1435,11.1216,11.1037,11.0941,11.0639,11.017,10.9764,10.9459,10.8944,10.8325,10.8219,10.8074,10.7852,10.7625,10.7625,10.7625,10.7625,10.7625,10.7625,10.7625,10.7625,10.7625,10.7625,10.7625,10.7625,10.7625,10.7625,10.7625,10.7625,10.7625,10.7625,10.7625,10.7625,11.2256,11.2411,11.3107,11.3803,11.4538,11.4499,11.4538,11.4616,11.3958,11.3919,11.4422,11.4538,11.4499,11.4654,11.4693,11.4848,11.5157,11.5273,11.5544,11.6008,11.6008,11.6279,11.6704,11.713,11.682,11.7053,11.713,11.6978,11.7094,11.7058,11.6943,11.6825,11.6743,11.6701,11.6654,11.6573,11.6529,11.6484,11.6484,11.6484,11.6484,11.6484,11.6484,11.6484,11.6484,11.6484,11.6484,11.6484,11.6484,11.6484,11.6484,11.6484,11.6484,11.6484,11.6484,11.6484,11.6484,11.6484,11.6484,11.6484,11.6484,11.6484,11.6484,11.6407,11.6138,11.5869,11.5522,11.5291,11.4638,11.4214,11.3907,11.3291,11.2868,11.2483,11.2137,11.1791,11.1522,11.1522,11.1522,11.1522,11.1522,11.1522,11.1478,11.1307,11.1132,11.0989,11.0653,11.017,10.9824,10.9521,10.8944,10.8362,10.8182,10.8036,10.7777,10.7625,10.7625,10.7625,10.7625,10.7625,10.7625,10.7625,10.7625,10.7625,10.7625,10.7625,10.7625,10.7625,10.7625,10.7625,10.7625,10.7625,10.7625,10.7625,10.7625,11.3455,11.3997,11.419,11.4422,11.4616,11.4616,11.5002,11.5544,11.5428,11.5041,11.4693,11.4693,11.5041,11.5544,11.5583,11.5815,11.6318,11.624,11.6627,11.6743,11.6782,11.6782,11.713,11.7207,11.7207,11.7207,11.7207,11.7207,11.7207,11.7132,11.7096,11.6943,11.6904,11.6825,11.674,11.6654,11.6573,11.6484,11.6484,11.6484,11.6484,11.6484,11.6484,11.6484,11.6484,11.6484,11.6484,11.6484,11.6484,11.6484,11.6484,11.6484,11.6484,11.6484,11.6484,11.6484,11.6484,11.6484,11.6484,11.6484,11.6484,11.6484,11.6484,11.6484,11.6407,11.6292,11.6099,11.5907,11.5638,11.5253,11.4791,11.4137,11.3522,11.306,11.256,11.2099,11.1675,11.1598,11.1598,11.1522,11.1522,11.1522,11.1478,11.1352,11.1262,11.0989,11.0653,11.0243,10.9941,10.9583,10.901,10.8466,10.8254,10.8036,10.774,10.7625,10.7625,10.7625,10.7625,10.7625,10.7625,10.7625,10.7625,10.7625,10.7625,10.7625,10.7625,10.7625,10.7625,10.7625,10.7625,10.7625,10.7625,10.7625,10.7625,11.419,11.4654,11.5041,11.5428,11.5737,11.5737,11.6047,11.6434,11.6472,11.624,11.5815,11.5776,11.6008,11.6434,11.6472,11.6588,11.7169,11.7169,11.7091,11.713,11.7207,11.7169,11.7207,11.7207,11.7207,11.7207,11.7207,11.7207,11.7207,11.7207,11.7132,11.7096,11.7058,11.6943,11.6781,11.6701,11.6654,11.6522,11.6484,11.6484,11.6484,11.6484,11.6484,11.6484,11.6484,11.6522,11.6484,11.6484,11.6484,11.6484,11.6484,11.6484,11.6484,11.6484,11.6484,11.6484,11.6484,11.6484,11.6484,11.6484,11.6484,11.6484,11.6484,11.6484,11.6484,11.6369,11.6369,11.6176,11.6138,11.583,11.5599,11.5061,11.4638,11.4214,11.356,11.3022,11.2522,11.2214,11.1906,11.1522,11.1522,11.1522,11.144,11.1396,11.1262,11.1085,11.0704,11.039,11.0056,10.9704,10.9141,10.8674,10.8396,10.8109,10.7815,10.7664,10.7625,10.7625,10.7625,10.7625,10.7625,10.7625,10.7625,10.7625,10.7625,10.7625,10.7625,10.7625,10.7625,10.7625,10.7625,10.7625,10.7625,10.7625,10.7625,11.4848,11.5041,11.5776,11.6472,11.713,11.7169,11.713,11.7169,11.7169,11.7169,11.7053,11.7053,11.7207,11.7207,11.7207,11.7207,11.7207,11.7207,11.7207,11.7207,11.7207,11.7207,11.7207,11.7207,11.7207,11.7207,11.7207,11.7207,11.7207,11.7207,11.7207,11.7171,11.7096,11.6982,11.6865,11.6743,11.6697,11.6573,11.6529,11.6484,11.6484,11.6522,11.6599,11.6599,11.6638,11.6715,11.6792,11.683,11.6869,11.683,11.6907,11.683,11.6676,11.6638,11.6484,11.6484,11.6484,11.6484,11.6484,11.6484,11.6484,11.6484,11.6484,11.6484,11.6484,11.6484,11.6484,11.6484,11.6446,11.6369,11.6138,11.5945,11.5561,11.5061,11.4368,11.3791,11.3291,11.2868,11.2406,11.1906,11.1791,11.1791,11.1671,11.1588,11.13,11.1161,11.0843,11.0496,11.0113,10.9824,10.9397,10.8944,10.8643,10.8325,10.7963,10.7815,10.7701,10.7625,10.7625,10.7625,10.7625,10.7625,10.7625,10.7625,10.7625,10.7625,10.7625,10.7625,10.7625,10.7625,10.7625,10.7625,10.7625,10.7625,10.7625,11.6085,11.6743,11.6898,11.7053,11.7207,11.7207,11.7207,11.7207,11.7207,11.7207,11.7207,11.7207,11.7207,11.7207,11.7207,11.7207,11.7207,11.7207,11.7207,11.7207,11.7207,11.7207,11.7207,11.7207,11.7207,11.7207,11.7207,11.7207,11.7207,11.7207,11.7207,11.7207,11.7207,11.7096,11.6943,11.6825,11.6743,11.6654,11.6644,11.6638,11.6599,11.6715,11.7023,11.7215,11.7523,11.8023,11.8369,11.8561,11.86,11.8407,11.7946,11.7638,11.733,11.7023,11.6753,11.6638,11.6638,11.6484,11.6484,11.6484,11.6484,11.6484,11.6484,11.6484,11.6484,11.6484,11.6484,11.6484,11.6446,11.6446,11.633,11.633,11.6022,11.5368,11.4714,11.4291,11.3868,11.3753,11.356,11.3099,11.2791,11.2676,11.2483,11.2165,11.1621,11.1446,11.1181,11.0806,11.0319,10.9941,10.9621,10.9244,10.8915,10.8396,10.8036,10.7889,10.7815,10.7701,10.7625,10.7625,10.7625,10.7625,10.7625,10.7625,10.7625,10.7625,10.7625,10.7625,10.7625,10.7625,10.7625,10.7625,10.7625,10.7625,10.7625]},{"header":{"parameterUnit":"m.s-1","parameterCategory":1,"la1":31.0,"la2":29.5877,"lo1":-88.7671,"lo2":-86.6584,"dx":0.0162,"dy":0.0185,"nx":115,"ny":88,"refTime":"2023-02-13T18:00:00:Z","depth":0,"parameterNumber":3,"parameterNumberName":"V-component_of_WINDS"},"data":[0.0,0.0,0.0,0.0,0.0,0.0,0.0,0.0,0.0,0.0,0.0,0.0,0.0,0.0,0.0,0.0,0.0,0.0,0.0,0.0,0.0,0.0,0.0,0.0,0.0,0.0,0.0,0.0,0.0,0.0,0.0,0.0,0.0,0.0,0.0,0.0,0.0,0.0,0.0,0.0,0.0,0.0,0.0,0.0,0.0,0.0,0.0,0.0,0.0,0.0,0.0,0.0,0.0,0.0,0.0,0.0,0.0,0.0,0.0,0.0,0.0,0.0,0.0,0.0,0.0,0.0,0.0,0.0,0.0,0.0,0.0,0.0,0.0,0.0,0.0,0.0,0.0,0.0,0.0,0.0,0.0,0.0,0.0,0.0,0.0,0.0,0.0,0.0,0.0,0.0,0.0,0.0,0.0,0.0,0.0,0.0,0.0,0.0,0.0,0.0,0.0,0.0,0.0,0.0,0.0,0.0,0.0,0.0,0.0,0.0,0.0,0.0,0.0,0.0,0.0,0.0,0.0,0.0,0.0,0.0,0.0,0.0,0.0,0.0,0.0,0.0,0.0,0.0,0.0,0.0,0.0,0.0,0.0,0.0,0.0,0.0,0.0,0.0,0.0,0.0,0.0,0.0,0.0,0.0,0.0,0.0,0.0,0.0,0.0,0.0,0.0,0.0,0.0,0.0,0.0,0.0,0.0,0.0,0.0,0.0,0.0,0.0,0.0,0.0,0.0,0.0,0.0,0.0,0.0,0.0,0.0,0.0,0.0,0.0,0.0,0.0,0.0,0.0,0.0,0.0,0.0,0.0,0.0,0.0,0.0,0.0,0.0,0.0,0.0,0.0,0.0,0.0,0.0,0.0,0.0,0.0,0.0,0.0,0.0,0.0,0.0,0.0,0.0,0.0,0.0,0.0,0.0,0.0,0.0,0.0,0.0,0.0,0.0,0.0,0.0,0.0,0.0,0.0,0.0,0.0,0.0,0.0,0.0,0.0,0.0,0.0,0.0,0.0,0.0,0.0,0.0,0.0,0.0,0.0,0.0,0.0,0.0,0.0,0.0,0.0,0.0,0.0,0.0,0.0,0.0,0.0,0.0,0.0,0.0,0.0,0.0,0.0,0.0,0.0,0.0,0.0,0.0,0.0,0.0,0.0,0.0,0.0,0.0,0.0,0.0,0.0,0.0,0.0,0.0,0.0,0.0,0.0,0.0,0.0,0.0,0.0,0.0,0.0,0.0,0.0,0.0,0.0,0.0,0.0,0.0,0.0,0.0,0.0,0.0,0.0,0.0,0.0,0.0,0.0,0.0,0.0,0.0,0.0,0.0,0.0,0.0,0.0,0.0,0.0,0.0,0.0,0.0,0.0,0.0,0.0,0.0,0.0,0.0,0.0,0.0,0.0,0.0,0.0,0.0,0.0,0.0,0.0,0.0,0.0,0.0,0.0,0.0,0.0,0.0,0.0,0.0,0.0,0.0,0.0,0.0,0.0,0.0,0.0,0.0,0.0,0.0,0.0,0.0,0.0,0.0,0.0,0.0,0.0,0.0,0.0,0.0,0.0,0.0,0.0,0.0,0.0,0.0,0.0,0.0,0.0,0.0,0.0,0.0,0.0,0.0,0.0,0.0,0.0,0.0,0.0,0.0,0.0,0.0,0.0,0.0,0.0,0.0,0.0,0.0,0.0,0.0,0.0,0.0,0.0,0.0,0.0,0.0,0.0,0.0,0.0,0.0,0.0,0.0,0.0,0.0,0.0,0.0,0.0,0.0,0.0,0.0,0.0,0.0,0.0,0.0,0.0,0.0,0.0,0.0,0.0,0.0,0.0,0.0,0.0,0.0,0.0,0.0,0.0,0.0,0.0,0.0,0.0,0.0,0.0,0.0,0.0,0.0,0.0,0.0,0.0,0.0,0.0,0.0,0.0,0.0,0.0,0.0,0.0,0.0,0.0,0.0,0.0,0.0,0.0,0.0,0.0,0.0,0.0,0.0,0.0,0.0,0.0,0.0,0.0,0.0,0.0,0.0,0.0,0.0,0.0,0.0,0.0,0.0,0.0,0.0,0.0,0.0,0.0,0.0,0.0,0.0,0.0,0.0,0.0,0.0,0.0,0.0,0.0,0.0,0.0,0.0,0.0,0.0,0.0,0.0,0.0,0.0,0.0,0.0,0.0,0.0,0.0,0.0,0.0,0.0,0.0,0.0,0.0,0.0,0.0,0.0,0.0,0.0,0.0,0.0,0.0,0.0,0.0,0.0,0.0,0.0,0.0,0.0,0.0,0.0,0.0,0.0,0.0,0.0,0.0,0.0,0.0,0.0,0.0,0.0,0.0,0.0,0.0,0.0,0.0,0.0,0.0,0.0,0.0,0.0,0.0,0.0,0.0,0.0,0.0,0.0,0.0,0.0,0.0,0.0,0.0,0.0,0.0,0.0,0.0,0.0,0.0,0.0,0.0,0.0,0.0,0.0,0.0,0.0,0.0,0.0,0.0,0.0,0.0,0.0,0.0,0.0,0.0,0.0,0.0,0.0,0.0,0.0,0.0,0.0,0.0,0.0,0.0,0.0,0.0,0.0,0.0,0.0,0.0,0.0,0.0,0.0,0.0,0.0,0.0,0.0,0.0,0.0,0.0,0.0,0.0,0.0,0.0,0.0,0.0,0.0,0.0,0.0,0.0,0.0,0.0,0.0,0.0,0.0,0.0,0.0,0.0,0.0,0.0,0.0,0.0,0.0,0.0,0.0,0.0,0.0,0.0,0.0,0.0,0.0,0.0,0.0,0.0,0.0,0.0,0.0,0.0,0.0,0.0,0.0,0.0,0.0,0.0,0.0,0.0,0.0,0.0,0.0,0.0,0.0,0.0,0.0,0.0,0.0,0.0,0.0,0.0,0.0,0.0,0.0,0.0,0.0,0.0,0.0,0.0,0.0,0.0,0.0,0.0,0.0,0.0,0.0,0.0,0.0,0.0,0.0,0.0,0.0,0.0,0.0,0.0,0.0,0.0,0.0,0.0,0.0,0.0,0.0,0.0,0.0,0.0,0.0,0.0,0.0,0.0,0.0,0.0,0.0,0.0,0.0,0.0,0.0,0.0,0.0,0.0,0.0,0.0,0.0,0.0,0.0,0.0,0.0,0.0,0.0,0.0,0.0,0.0,0.0,0.0,0.0,0.0,0.0,0.0,0.0,0.0,0.0,0.0,0.0,0.0,0.0,0.0,0.0,0.0,0.0,0.0,0.0,0.0,0.0,0.0,0.0,0.0,0.0,0.0,0.0,0.0,0.0,0.0,0.0,0.0,0.0,0.0,0.0,0.0,0.0,0.0,0.0,0.0,0.0,0.0,0.0,0.0,0.0,0.0,0.0,0.0,0.0,0.0,0.0,0.0,0.0,0.0,0.0,0.0,0.0,0.0,0.0,0.0,0.0,0.0,0.0,0.0,0.0,0.0,0.0,0.0,0.0,0.0,0.0,0.0,0.0,0.0,0.0,0.0,0.0,0.0,0.0,0.0,0.0,0.0,0.0,0.0,0.0,0.0,0.0,0.0,0.0,0.0,0.0,0.0,0.0,0.0,0.0,0.0,0.0,0.0,0.0,0.0,0.0,0.0,0.0,0.0,0.0,0.0,0.0,0.0,0.0,0.0,0.0,0.0,0.0,0.0,0.0,0.0,0.0,0.0,0.0,0.0,0.0,0.0,0.0,0.0,0.0,0.0,0.0,0.0,0.0,0.0,0.0,0.0,0.0,0.0,0.0,0.0,0.0,0.0,0.0,0.0,0.0,0.0,0.0,0.0,0.0,0.0,0.0,0.0,0.0,0.0,0.0,0.0,0.0,0.0,0.0,0.0,0.0,0.0,0.0,0.0,0.0,0.0,0.0,0.0,0.0,0.0,0.0,0.0,0.0,0.0,0.0,0.0,0.0,0.0,0.0,0.0,0.0,0.0,0.0,0.0,0.0,0.0,0.0,0.0,0.0,0.0,0.0,0.0,0.0,0.0,0.0,0.0,0.0,0.0,0.0,0.0,0.0,0.0,0.0,0.0,0.0,0.0,0.0,0.0,0.0,0.0,0.0,0.0,0.0,0.0,0.0,0.0,0.0,0.0,0.0,0.0,0.0,0.0,0.0,0.0,0.0,0.0,0.0,0.0,0.0,0.0,0.0,0.0,0.0,0.0,0.0,0.0,0.0,0.0,0.0,0.0,0.0,0.0,0.0,0.0,0.0,0.0,0.0,0.0,0.0,0.0,0.0,0.0,0.0,0.0,0.0,0.0,0.0,0.0,-1.6504,0.0,0.0,0.0,0.0,0.0,0.0,0.0,0.0,0.0,0.0,0.0,0.0,0.0,0.0,0.0,0.0,0.0,0.0,0.0,0.0,0.0,0.0,0.0,0.0,0.0,0.0,0.0,0.0,0.0,0.0,0.0,0.0,0.0,0.0,0.0,0.0,0.0,0.0,0.0,0.0,0.0,0.0,0.0,0.0,0.0,0.0,0.0,0.0,0.0,0.0,0.0,0.0,0.0,0.0,0.0,0.0,0.0,0.0,0.0,0.0,0.0,0.0,0.0,0.0,0.0,0.0,0.0,0.0,0.0,0.0,0.0,0.0,0.0,0.0,0.0,0.0,0.0,0.0,0.0,0.0,0.0,0.0,0.0,0.0,0.0,0.0,0.0,0.0,0.0,0.0,0.0,0.0,0.0,0.0,0.0,0.0,0.0,0.0,0.0,0.0,0.0,0.0,0.0,0.0,0.0,0.0,0.0,0.0,0.0,0.0,-1.4931,-1.5202,-1.5593,-1.5844,-1.6234,0.0,0.0,0.0,0.0,0.0,0.0,0.0,0.0,0.0,0.0,0.0,0.0,0.0,0.0,0.0,0.0,0.0,0.0,0.0,0.0,0.0,0.0,0.0,0.0,0.0,0.0,0.0,0.0,0.0,0.0,0.0,0.0,0.0,0.0,0.0,0.0,0.0,0.0,0.0,0.0,0.0,0.0,0.0,0.0,0.0,0.0,0.0,0.0,0.0,0.0,0.0,0.0,0.0,0.0,0.0,0.0,0.0,0.0,0.0,0.0,0.0,0.0,0.0,0.0,0.0,0.0,0.0,0.0,0.0,0.0,0.0,0.0,0.0,0.0,0.0,0.0,0.0,0.0,0.0,0.0,0.0,0.0,0.0,0.0,0.0,0.0,0.0,0.0,0.0,0.0,0.0,0.0,0.0,0.0,0.0,0.0,0.0,0.0,0.0,0.0,0.0,0.0,0.0,0.0,0.0,0.0,0.0,0.0,0.0,0.0,0.0,0.0,-1.5332,-1.5724,-1.6104,0.0,0.0,0.0,0.0,0.0,0.0,0.0,0.0,0.0,0.0,0.0,0.0,0.0,0.0,0.0,0.0,0.0,0.0,0.0,0.0,0.0,0.0,0.0,0.0,0.0,0.0,0.0,0.0,0.0,0.0,0.0,0.0,0.0,0.0,0.0,0.0,0.0,0.0,0.0,0.0,0.0,0.0,0.0,0.0,0.0,0.0,0.0,0.0,0.0,0.0,0.0,0.0,0.0,0.0,0.0,0.0,0.0,0.0,0.0,0.0,0.0,0.0,0.0,0.0,0.0,0.0,0.0,0.0,0.0,0.0,0.0,0.0,0.0,0.0,0.0,0.0,0.0,0.0,0.0,0.0,0.0,0.0,0.0,0.0,0.0,0.0,0.0,0.0,0.0,0.0,0.0,0.0,0.0,0.0,0.0,0.0,0.0,0.0,0.0,0.0,0.0,0.0,0.0,0.0,0.0,0.0,0.0,0.0,0.0,0.0,-1.4931,-1.4931,-1.5332,0.0,-1.6374,0.0,0.0,0.0,0.0,0.0,0.0,0.0,0.0,0.0,0.0,0.0,0.0,0.0,0.0,0.0,0.0,0.0,0.0,0.0,0.0,0.0,0.0,0.0,0.0,0.0,0.0,0.0,0.0,0.0,0.0,0.0,0.0,0.0,0.0,0.0,0.0,0.0,0.0,0.0,0.0,0.0,0.0,0.0,0.0,0.0,0.0,0.0,0.0,0.0,0.0,0.0,0.0,0.0,0.0,0.0,0.0,0.0,0.0,0.0,0.0,0.0,0.0,0.0,0.0,0.0,0.0,0.0,0.0,0.0,0.0,0.0,0.0,0.0,0.0,0.0,0.0,0.0,0.0,0.0,0.0,0.0,0.0,0.0,0.0,0.0,0.0,0.0,0.0,0.0,0.0,0.0,0.0,0.0,0.0,0.0,0.0,0.0,0.0,0.0,0.0,0.0,0.0,0.0,0.0,0.0,0.0,0.0,0.0,0.0,0.0,-1.53,-1.5309,-1.5585,-1.5722,0.0,0.0,0.0,0.0,0.0,0.0,0.0,0.0,0.0,0.0,0.0,0.0,0.0,0.0,0.0,0.0,0.0,0.0,0.0,0.0,0.0,0.0,0.0,0.0,0.0,0.0,0.0,0.0,0.0,0.0,0.0,0.0,0.0,0.0,0.0,0.0,0.0,0.0,0.0,0.0,0.0,0.0,0.0,0.0,0.0,0.0,0.0,0.0,0.0,0.0,0.0,0.0,0.0,0.0,0.0,0.0,0.0,0.0,0.0,0.0,0.0,0.0,0.0,0.0,0.0,0.0,0.0,0.0,0.0,0.0,0.0,0.0,0.0,0.0,0.0,0.0,0.0,0.0,0.0,0.0,0.0,0.0,0.0,0.0,0.0,0.0,0.0,0.0,0.0,0.0,0.0,0.0,0.0,0.0,0.0,0.0,0.0,0.0,0.0,0.0,0.0,0.0,0.0,0.0,0.0,0.0,0.0,0.0,0.0,0.0,-1.5564,-1.5564,-1.5555,-1.5683,-1.5662,-1.5649,0.0,0.0,0.0,0.0,0.0,0.0,0.0,0.0,0.0,0.0,0.0,0.0,0.0,0.0,0.0,0.0,0.0,0.0,0.0,0.0,0.0,0.0,0.0,0.0,0.0,0.0,0.0,0.0,0.0,0.0,0.0,0.0,0.0,0.0,0.0,0.0,0.0,0.0,0.0,0.0,0.0,0.0,0.0,0.0,0.0,0.0,0.0,0.0,0.0,0.0,0.0,0.0,0.0,0.0,0.0,0.0,0.0,0.0,0.0,0.0,0.0,0.0,0.0,0.0,0.0,0.0,0.0,0.0,0.0,0.0,0.0,0.0,0.0,0.0,0.0,0.0,0.0,0.0,0.0,0.0,0.0,0.0,0.0,0.0,0.0,0.0,0.0,0.0,0.0,0.0,0.0,0.0,0.0,0.0,0.0,0.0,0.0,0.0,0.0,0.0,0.0,0.0,0.0,0.0,0.0,0.0,0.0,0.0,0.0,-1.5574,-1.5564,-1.5574,-1.5555,-1.5817,0.0,0.0,0.0,0.0,0.0,0.0,0.0,0.0,0.0,0.0,0.0,0.0,0.0,0.0,0.0,0.0,0.0,0.0,0.0,0.0,0.0,0.0,0.0,0.0,0.0,0.0,0.0,0.0,0.0,0.0,0.0,0.0,0.0,0.0,0.0,0.0,0.0,0.0,0.0,0.0,0.0,0.0,0.0,0.0,0.0,0.0,0.0,0.0,0.0,0.0,0.0,0.0,0.0,0.0,0.0,0.0,0.0,0.0,0.0,0.0,0.0,0.0,0.0,0.0,0.0,0.0,0.0,0.0,0.0,0.0,0.0,0.0,0.0,0.0,0.0,0.0,0.0,0.0,0.0,0.0,0.0,0.0,0.0,0.0,0.0,0.0,0.0,0.0,0.0,0.0,0.0,0.0,0.0,0.0,0.0,0.0,0.0,0.0,0.0,0.0,0.0,0.0,0.0,0.0,0.0,0.0,0.0,0.0,0.0,-1.5952,-1.5961,-1.5886,-1.5763,-1.5753,-1.5834,0.0,0.0,0.0,0.0,0.0,0.0,0.0,0.0,0.0,0.0,0.0,0.0,0.0,0.0,0.0,0.0,0.0,0.0,0.0,0.0,0.0,0.0,0.0,0.0,0.0,0.0,0.0,0.0,0.0,0.0,0.0,0.0,0.0,0.0,0.0,0.0,0.0,0.0,0.0,0.0,0.0,0.0,0.0,0.0,0.0,0.0,0.0,0.0,0.0,0.0,0.0,0.0,0.0,0.0,0.0,0.0,0.0,0.0,0.0,0.0,0.0,0.0,0.0,0.0,0.0,0.0,0.0,0.0,0.0,0.0,0.0,0.0,0.0,0.0,0.0,0.0,0.0,0.0,0.0,0.0,0.0,0.0,0.0,0.0,0.0,0.0,0.0,0.0,0.0,0.0,0.0,0.0,0.0,0.0,0.0,0.0,0.0,0.0,0.0,0.0,0.0,0.0,0.0,0.0,0.0,0.0,0.0,0.0,0.0,-1.5753,0.0,-1.583,0.0,-1.5821,-1.5756,0.0,0.0,0.0,0.0,0.0,0.0,0.0,0.0,0.0,0.0,0.0,0.0,0.0,0.0,0.0,0.0,0.0,0.0,0.0,0.0,0.0,0.0,0.0,0.0,0.0,0.0,0.0,0.0,0.0,0.0,0.0,0.0,0.0,0.0,0.0,0.0,0.0,0.0,0.0,0.0,0.0,0.0,0.0,0.0,0.0,0.0,0.0,0.0,0.0,0.0,0.0,0.0,0.0,0.0,0.0,0.0,0.0,0.0,0.0,0.0,0.0,0.0,0.0,0.0,0.0,0.0,0.0,0.0,0.0,0.0,0.0,0.0,0.0,0.0,0.0,0.0,0.0,0.0,0.0,0.0,0.0,0.0,0.0,0.0,0.0,0.0,0.0,0.0,0.0,0.0,0.0,0.0,0.0,0.0,0.0,0.0,0.0,0.0,0.0,0.0,0.0,0.0,0.0,0.0,0.0,0.0,0.0,0.0,-1.5328,-1.5052,-1.5061,-1.5212,-1.5612,-1.5612,-1.5753,0.0,0.0,0.0,0.0,0.0,0.0,0.0,0.0,0.0,0.0,0.0,0.0,0.0,0.0,0.0,0.0,0.0,0.0,0.0,0.0,0.0,0.0,0.0,0.0,0.0,0.0,0.0,0.0,0.0,0.0,0.0,0.0,0.0,0.0,0.0,0.0,0.0,0.0,0.0,0.0,0.0,0.0,0.0,0.0,0.0,0.0,0.0,0.0,0.0,0.0,0.0,0.0,0.0,0.0,0.0,0.0,0.0,0.0,0.0,0.0,0.0,0.0,0.0,0.0,0.0,0.0,0.0,0.0,0.0,0.0,0.0,0.0,0.0,0.0,0.0,0.0,0.0,0.0,0.0,0.0,0.0,0.0,0.0,0.0,0.0,0.0,0.0,0.0,0.0,0.0,0.0,0.0,0.0,0.0,0.0,0.0,0.0,0.0,0.0,0.0,0.0,0.0,0.0,0.0,0.0,0.0,0.0,0.0,0.0,-1.5246,-1.5377,-1.5448,-1.5585,-1.575,-1.5821,0.0,0.0,0.0,0.0,0.0,0.0,0.0,0.0,0.0,0.0,0.0,0.0,0.0,0.0,0.0,0.0,0.0,0.0,0.0,0.0,0.0,0.0,0.0,0.0,0.0,0.0,0.0,0.0,0.0,0.0,0.0,0.0,0.0,0.0,0.0,0.0,0.0,0.0,0.0,0.0,0.0,0.0,0.0,0.0,0.0,0.0,0.0,0.0,0.0,0.0,0.0,0.0,0.0,0.0,0.0,0.0,0.0,0.0,0.0,0.0,0.0,0.0,0.0,0.0,0.0,0.0,0.0,0.0,0.0,0.0,0.0,0.0,0.0,0.0,0.0,0.0,0.0,0.0,0.0,0.0,0.0,0.0,0.0,0.0,0.0,0.0,0.0,0.0,0.0,0.0,0.0,0.0,0.0,0.0,0.0,0.0,0.0,0.0,0.0,0.0,0.0,0.0,0.0,0.0,0.0,0.0,0.0,0.0,0.0,-1.5206,-1.5189,-1.518,-1.5337,-1.5509,-1.5695,-1.5913,0.0,0.0,0.0,0.0,0.0,0.0,0.0,0.0,0.0,0.0,0.0,0.0,0.0,0.0,0.0,0.0,0.0,0.0,0.0,0.0,0.0,0.0,0.0,0.0,0.0,0.0,0.0,0.0,0.0,0.0,0.0,0.0,0.0,0.0,0.0,0.0,0.0,0.0,0.0,0.0,0.0,0.0,0.0,0.0,0.0,0.0,0.0,0.0,0.0,0.0,0.0,0.0,0.0,0.0,0.0,0.0,0.0,0.0,0.0,0.0,0.0,0.0,0.0,0.0,0.0,0.0,0.0,0.0,0.0,0.0,0.0,0.0,0.0,0.0,0.0,0.0,0.0,0.0,0.0,0.0,0.0,0.0,0.0,0.0,0.0,0.0,0.0,0.0,0.0,0.0,0.0,0.0,0.0,0.0,0.0,0.0,0.0,0.0,0.0,0.0,0.0,0.0,0.0,0.0,0.0,0.0,0.0,0.0,-1.5009,-1.4684,-1.4662,-1.51,-1.5075,-1.5276,0.0,0.0,0.0,0.0,0.0,0.0,0.0,0.0,0.0,0.0,0.0,0.0,0.0,0.0,0.0,0.0,0.0,0.0,0.0,0.0,0.0,0.0,0.0,0.0,0.0,0.0,0.0,0.0,0.0,0.0,0.0,0.0,0.0,0.0,0.0,0.0,0.0,0.0,0.0,0.0,0.0,0.0,0.0,0.0,0.0,0.0,0.0,0.0,0.0,0.0,0.0,0.0,0.0,0.0,0.0,0.0,0.0,0.0,0.0,0.0,0.0,0.0,0.0,0.0,0.0,0.0,0.0,0.0,0.0,0.0,0.0,0.0,0.0,0.0,0.0,0.0,0.0,0.0,0.0,0.0,0.0,0.0,0.0,0.0,0.0,0.0,0.0,0.0,0.0,0.0,0.0,0.0,0.0,0.0,0.0,0.0,0.0,0.0,0.0,0.0,0.0,0.0,0.0,0.0,0.0,0.0,0.0,0.0,0.0,-1.5536,-1.5472,-1.5366,-1.5392,-1.5437,-1.5564,0.0,0.0,0.0,0.0,0.0,0.0,0.0,0.0,0.0,0.0,0.0,0.0,0.0,0.0,0.0,0.0,0.0,0.0,0.0,0.0,0.0,0.0,0.0,0.0,0.0,0.0,0.0,0.0,0.0,0.0,0.0,0.0,0.0,0.0,0.0,0.0,0.0,0.0,0.0,0.0,0.0,0.0,0.0,0.0,0.0,0.0,0.0,0.0,0.0,0.0,0.0,0.0,0.0,0.0,0.0,0.0,0.0,0.0,0.0,0.0,0.0,0.0,0.0,0.0,0.0,0.0,0.0,0.0,0.0,0.0,0.0,0.0,0.0,0.0,0.0,0.0,0.0,0.0,0.0,0.0,0.0,0.0,0.0,0.0,0.0,0.0,0.0,0.0,0.0,0.0,0.0,0.0,0.0,0.0,0.0,0.0,0.0,0.0,0.0,0.0,0.0,0.0,0.0,0.0,0.0,0.0,0.0,0.0,-1.5409,-1.5552,-1.5703,-1.5734,-1.5631,-1.5696,-1.5663,0.0,0.0,0.0,0.0,0.0,0.0,0.0,0.0,0.0,0.0,0.0,0.0,0.0,0.0,0.0,0.0,0.0,0.0,0.0,0.0,0.0,0.0,0.0,0.0,0.0,0.0,0.0,0.0,0.0,0.0,0.0,0.0,0.0,0.0,0.0,0.0,0.0,0.0,0.0,0.0,0.0,0.0,0.0,0.0,0.0,0.0,0.0,0.0,0.0,0.0,0.0,0.0,0.0,0.0,0.0,0.0,0.0,0.0,0.0,0.0,0.0,0.0,0.0,0.0,0.0,0.0,0.0,0.0,0.0,0.0,0.0,0.0,0.0,0.0,0.0,0.0,0.0,0.0,0.0,0.0,0.0,0.0,0.0,0.0,0.0,0.0,0.0,0.0,0.0,0.0,0.0,0.0,0.0,0.0,0.0,0.0,0.0,0.0,0.0,0.0,0.0,0.0,0.0,0.0,0.0,0.0,0.0,0.0,-1.5766,-1.549,-1.5801,-1.5965,-1.5926,-1.5766,-1.5737,0.0,0.0,0.0,0.0,0.0,0.0,0.0,0.0,0.0,0.0,0.0,0.0,0.0,0.0,0.0,0.0,0.0,0.0,0.0,0.0,0.0,0.0,0.0,0.0,0.0,0.0,0.0,0.0,0.0,0.0,0.0,0.0,0.0,0.0,0.0,0.0,0.0,0.0,0.0,0.0,0.0,0.0,0.0,0.0,0.0,0.0,0.0,0.0,0.0,0.0,0.0,0.0,0.0,0.0,0.0,0.0,0.0,0.0,0.0,0.0,0.0,0.0,0.0,0.0,0.0,0.0,0.0,0.0,0.0,0.0,0.0,0.0,0.0,0.0,0.0,0.0,0.0,0.0,0.0,0.0,0.0,0.0,0.0,0.0,0.0,0.0,0.0,0.0,0.0,0.0,0.0,0.0,0.0,0.0,0.0,0.0,0.0,0.0,0.0,0.0,0.0,0.0,0.0,0.0,0.0,0.0,0.0,0.0,-1.5786,-1.6191,-1.6049,-1.6087,-1.6308,-1.5669,-1.5763,0.0,0.0,0.0,0.0,0.0,0.0,0.0,0.0,0.0,0.0,0.0,0.0,0.0,0.0,0.0,0.0,0.0,0.0,0.0,0.0,0.0,0.0,0.0,0.0,0.0,0.0,0.0,0.0,0.0,0.0,0.0,0.0,0.0,0.0,0.0,0.0,0.0,0.0,0.0,0.0,0.0,0.0,0.0,0.0,0.0,0.0,0.0,0.0,-2.3768,0.0,0.0,0.0,0.0,0.0,0.0,0.0,0.0,0.0,0.0,0.0,0.0,0.0,0.0,0.0,0.0,0.0,0.0,0.0,0.0,0.0,0.0,0.0,0.0,0.0,0.0,0.0,0.0,0.0,0.0,0.0,0.0,0.0,0.0,0.0,0.0,0.0,0.0,0.0,0.0,0.0,0.0,0.0,0.0,0.0,0.0,0.0,0.0,0.0,0.0,0.0,0.0,0.0,0.0,0.0,0.0,0.0,0.0,0.0,-1.5963,-1.6057,-1.5771,-1.5845,-1.6285,-1.579,-1.5708,0.0,0.0,0.0,0.0,0.0,0.0,0.0,0.0,0.0,0.0,0.0,0.0,0.0,0.0,0.0,0.0,0.0,0.0,0.0,0.0,0.0,0.0,0.0,0.0,0.0,0.0,0.0,0.0,0.0,0.0,0.0,0.0,0.0,0.0,0.0,0.0,0.0,0.0,0.0,0.0,0.0,0.0,0.0,0.0,0.0,0.0,0.0,0.0,0.0,0.0,0.0,0.0,0.0,0.0,0.0,0.0,0.0,0.0,0.0,0.0,0.0,0.0,0.0,0.0,0.0,0.0,0.0,0.0,0.0,0.0,0.0,0.0,0.0,0.0,0.0,0.0,0.0,0.0,0.0,0.0,0.0,0.0,0.0,0.0,0.0,0.0,0.0,0.0,0.0,0.0,0.0,0.0,0.0,0.0,0.0,0.0,0.0,0.0,0.0,0.0,0.0,0.0,0.0,0.0,0.0,0.0,0.0,-1.6294,-1.6141,-1.5861,-1.5586,-1.5723,-1.6263,-1.595,-1.5828,0.0,0.0,0.0,0.0,0.0,0.0,0.0,0.0,0.0,0.0,0.0,0.0,0.0,0.0,0.0,0.0,0.0,0.0,0.0,0.0,0.0,0.0,0.0,0.0,0.0,0.0,0.0,0.0,0.0,0.0,0.0,0.0,0.0,0.0,0.0,0.0,0.0,0.0,0.0,-2.1921,-2.2484,0.0,0.0,0.0,0.0,0.0,0.0,0.0,0.0,-2.4739,0.0,0.0,0.0,0.0,0.0,0.0,0.0,0.0,0.0,0.0,0.0,0.0,0.0,0.0,0.0,0.0,0.0,0.0,0.0,0.0,0.0,0.0,0.0,0.0,0.0,0.0,0.0,0.0,0.0,0.0,0.0,0.0,0.0,0.0,0.0,0.0,0.0,0.0,0.0,0.0,0.0,0.0,0.0,0.0,0.0,0.0,0.0,0.0,0.0,0.0,0.0,0.0,0.0,0.0,0.0,0.0,-1.6487,-1.6179,-1.6114,-1.6502,-1.5638,-1.5673,-1.6405,-1.6278,-1.6224,-1.6567,0.0,0.0,0.0,0.0,0.0,0.0,0.0,0.0,0.0,0.0,0.0,0.0,0.0,0.0,0.0,0.0,0.0,0.0,0.0,0.0,0.0,0.0,0.0,0.0,0.0,0.0,0.0,0.0,0.0,0.0,0.0,0.0,0.0,0.0,0.0,0.0,0.0,0.0,0.0,-2.2712,-2.2973,0.0,0.0,0.0,0.0,0.0,0.0,0.0,0.0,-2.4367,0.0,0.0,0.0,0.0,0.0,0.0,0.0,0.0,0.0,0.0,0.0,0.0,0.0,0.0,0.0,0.0,0.0,0.0,0.0,0.0,0.0,0.0,0.0,0.0,0.0,0.0,0.0,0.0,0.0,0.0,0.0,0.0,0.0,0.0,0.0,0.0,0.0,0.0,0.0,0.0,0.0,0.0,0.0,0.0,0.0,0.0,0.0,0.0,0.0,0.0,0.0,0.0,0.0,0.0,0.0,-1.6379,-1.627,-1.6177,-1.6299,-1.564,-1.5674,-1.68,-1.6405,-1.64,0.0,0.0,0.0,0.0,0.0,0.0,0.0,0.0,0.0,0.0,0.0,0.0,0.0,0.0,0.0,0.0,0.0,0.0,0.0,0.0,0.0,0.0,0.0,0.0,0.0,0.0,0.0,0.0,0.0,0.0,0.0,0.0,0.0,0.0,0.0,0.0,0.0,0.0,0.0,0.0,-2.2766,-2.3101,-2.3368,0.0,0.0,0.0,0.0,0.0,0.0,-2.4711,-2.4718,0.0,0.0,0.0,0.0,0.0,0.0,0.0,0.0,0.0,0.0,0.0,0.0,0.0,0.0,0.0,0.0,0.0,0.0,0.0,0.0,0.0,0.0,0.0,0.0,0.0,0.0,0.0,0.0,0.0,0.0,0.0,0.0,0.0,0.0,0.0,0.0,0.0,0.0,0.0,0.0,0.0,0.0,0.0,0.0,0.0,0.0,0.0,0.0,0.0,0.0,0.0,0.0,0.0,0.0,0.0,-1.6261,-1.6318,-1.6368,-1.6024,-1.5588,-1.5841,-1.6972,-1.6502,-1.6514,0.0,0.0,0.0,0.0,0.0,0.0,0.0,0.0,0.0,0.0,0.0,0.0,0.0,0.0,0.0,0.0,0.0,0.0,0.0,0.0,0.0,0.0,0.0,0.0,0.0,0.0,0.0,0.0,0.0,0.0,0.0,0.0,0.0,0.0,0.0,0.0,0.0,0.0,0.0,0.0,0.0,-2.3297,-2.3575,-2.3828,0.0,0.0,0.0,0.0,-2.512,-2.4948,0.0,0.0,0.0,0.0,0.0,0.0,0.0,0.0,0.0,0.0,0.0,0.0,0.0,0.0,0.0,0.0,0.0,0.0,0.0,0.0,0.0,0.0,0.0,0.0,0.0,0.0,0.0,0.0,0.0,0.0,0.0,0.0,0.0,0.0,0.0,0.0,0.0,0.0,0.0,0.0,0.0,0.0,0.0,0.0,0.0,0.0,0.0,0.0,0.0,0.0,0.0,0.0,0.0,0.0,0.0,0.0,-1.6588,-1.6438,-1.6471,-1.6323,-1.5794,-1.6001,-1.6951,-1.6673,-1.6636,0.0,0.0,0.0,0.0,0.0,0.0,0.0,0.0,0.0,0.0,0.0,0.0,0.0,0.0,0.0,0.0,0.0,0.0,0.0,0.0,0.0,0.0,0.0,0.0,0.0,0.0,0.0,0.0,0.0,0.0,0.0,0.0,0.0,0.0,0.0,0.0,0.0,0.0,0.0,0.0,0.0,-2.3852,-2.4106,-2.4359,-2.454,0.0,0.0,-2.4637,-2.4625,-2.4601,0.0,0.0,0.0,0.0,0.0,0.0,0.0,0.0,0.0,0.0,0.0,0.0,0.0,0.0,0.0,0.0,0.0,0.0,0.0,0.0,0.0,0.0,0.0,0.0,0.0,0.0,0.0,0.0,0.0,0.0,0.0,0.0,0.0,0.0,0.0,0.0,0.0,0.0,0.0,0.0,0.0,0.0,0.0,0.0,0.0,0.0,0.0,0.0,0.0,0.0,0.0,0.0,0.0,0.0,0.0,-1.6522,-1.6308,-1.6457,-1.6488,-1.6008,-1.5911,-1.6105,-1.6987,-1.6785,-1.6788,0.0,0.0,0.0,0.0,0.0,0.0,0.0,0.0,0.0,0.0,0.0,0.0,0.0,0.0,0.0,0.0,0.0,0.0,0.0,0.0,0.0,0.0,0.0,0.0,0.0,0.0,0.0,0.0,0.0,0.0,0.0,0.0,0.0,0.0,0.0,0.0,0.0,0.0,0.0,0.0,0.0,0.0,-2.4637,-2.4914,0.0,0.0,0.0,-2.5482,-2.5325,0.0,0.0,0.0,0.0,0.0,0.0,0.0,0.0,0.0,0.0,0.0,0.0,0.0,0.0,0.0,0.0,0.0,0.0,0.0,0.0,0.0,0.0,0.0,0.0,0.0,0.0,0.0,0.0,0.0,0.0,0.0,0.0,0.0,0.0,0.0,0.0,0.0,0.0,0.0,0.0,0.0,0.0,0.0,0.0,0.0,0.0,0.0,0.0,0.0,0.0,0.0,0.0,0.0,0.0,0.0,0.0,0.0,-1.6017,-1.6435,-1.6252,-1.5635,-1.5818,-1.623,-1.6853,-1.6722,0.0,0.0,0.0,0.0,0.0,0.0,0.0,0.0,0.0,0.0,0.0,0.0,0.0,0.0,0.0,0.0,0.0,0.0,0.0,0.0,0.0,0.0,0.0,0.0,0.0,0.0,0.0,0.0,0.0,0.0,0.0,0.0,0.0,0.0,0.0,0.0,0.0,0.0,0.0,0.0,0.0,0.0,-2.4528,-2.5071,-2.5373,-2.5627,0.0,0.0,-2.6158,-2.5953,-2.5711,-2.5446,0.0,0.0,0.0,0.0,0.0,0.0,0.0,0.0,0.0,0.0,0.0,0.0,0.0,0.0,0.0,0.0,0.0,0.0,0.0,0.0,0.0,0.0,0.0,0.0,0.0,0.0,0.0,0.0,0.0,0.0,0.0,0.0,0.0,0.0,0.0,0.0,0.0,0.0,0.0,0.0,0.0,0.0,0.0,0.0,0.0,0.0,0.0,0.0,0.0,0.0,0.0,0.0,0.0,0.0,0.0,-1.6174,-1.6119,-1.606,-1.5642,-1.592,-1.6192,-1.6629,-1.67,-1.6943,0.0,0.0,0.0,0.0,0.0,0.0,0.0,0.0,0.0,0.0,0.0,0.0,0.0,0.0,0.0,0.0,0.0,0.0,0.0,0.0,0.0,0.0,0.0,0.0,0.0,0.0,0.0,0.0,0.0,0.0,0.0,0.0,0.0,0.0,0.0,0.0,0.0,0.0,0.0,0.0,0.0,-2.4794,-2.5337,-2.5639,-2.5892,0.0,0.0,-2.6206,-2.6194,-2.5977,-2.5711,-2.5458,0.0,0.0,0.0,0.0,0.0,0.0,0.0,0.0,0.0,0.0,0.0,0.0,0.0,0.0,0.0,0.0,0.0,0.0,0.0,0.0,0.0,0.0,0.0,0.0,0.0,0.0,0.0,0.0,0.0,0.0,0.0,0.0,0.0,0.0,0.0,0.0,0.0,0.0,0.0,0.0,0.0,0.0,0.0,0.0,0.0,0.0,0.0,0.0,0.0,0.0,0.0,0.0,0.0,-1.6308,-1.6345,-1.6263,-1.6201,-1.5771,-1.5974,-1.6206,-1.6643,-1.6816,-1.7117,0.0,0.0,0.0,0.0,0.0,0.0,0.0,0.0,0.0,0.0,0.0,0.0,0.0,0.0,0.0,0.0,0.0,0.0,0.0,0.0,0.0,0.0,0.0,0.0,0.0,0.0,0.0,0.0,-2.0371,-2.0468,-2.0554,0.0,0.0,0.0,0.0,0.0,0.0,0.0,0.0,0.0,0.0,-2.5083,-2.5602,-2.5904,0.0,0.0,-2.6616,-2.6665,-2.6508,-2.6399,-2.617,-2.5747,-2.5458,0.0,0.0,0.0,0.0,0.0,0.0,0.0,0.0,0.0,0.0,0.0,0.0,0.0,0.0,0.0,0.0,0.0,0.0,0.0,0.0,0.0,0.0,0.0,0.0,0.0,0.0,0.0,0.0,0.0,0.0,0.0,0.0,0.0,0.0,0.0,0.0,0.0,0.0,0.0,0.0,0.0,0.0,0.0,0.0,0.0,0.0,0.0,0.0,0.0,0.0,0.0,0.0,-1.6499,-1.6509,-1.6188,-1.6091,-1.5852,-1.6001,-1.6234,-1.6518,-1.676,-1.7121,0.0,0.0,0.0,0.0,0.0,0.0,0.0,0.0,0.0,0.0,0.0,0.0,0.0,0.0,0.0,0.0,0.0,0.0,0.0,0.0,0.0,0.0,0.0,0.0,0.0,0.0,0.0,0.0,-2.0727,-2.078,-2.078,0.0,0.0,0.0,0.0,0.0,0.0,0.0,0.0,0.0,0.0,-2.5361,-2.588,-2.617,-2.6435,-2.6713,-2.6918,-2.6966,-2.6785,-2.6689,-2.6508,-2.6134,0.0,0.0,0.0,0.0,0.0,0.0,0.0,0.0,0.0,0.0,0.0,0.0,0.0,0.0,0.0,0.0,0.0,0.0,0.0,0.0,0.0,0.0,0.0,0.0,0.0,0.0,0.0,0.0,0.0,0.0,-1.5496,0.0,0.0,0.0,0.0,0.0,0.0,0.0,0.0,0.0,0.0,0.0,0.0,0.0,0.0,0.0,0.0,0.0,0.0,0.0,0.0,0.0,0.0,0.0,-1.6479,-1.606,-1.5716,-1.5859,-1.6001,-1.6083,-1.6076,-1.6525,-1.6753,-1.7165,0.0,0.0,0.0,0.0,0.0,0.0,0.0,0.0,0.0,0.0,0.0,0.0,0.0,0.0,0.0,0.0,0.0,0.0,0.0,0.0,0.0,0.0,0.0,0.0,0.0,0.0,-2.0877,-2.1114,-2.1243,0.0,0.0,0.0,0.0,0.0,0.0,0.0,0.0,0.0,0.0,-2.5264,-2.5615,-2.6134,-2.6447,-2.6713,-2.6979,-2.7027,-2.7027,-2.7015,-2.681,-2.6641,0.0,0.0,0.0,0.0,0.0,0.0,0.0,0.0,0.0,0.0,0.0,0.0,0.0,0.0,0.0,0.0,0.0,0.0,0.0,0.0,0.0,0.0,0.0,0.0,0.0,0.0,0.0,-1.5869,-1.5869,0.0,0.0,0.0,0.0,0.0,0.0,0.0,0.0,0.0,0.0,0.0,-1.5798,-1.5798,0.0,0.0,0.0,0.0,0.0,0.0,0.0,0.0,0.0,0.0,0.0,0.0,-1.6465,-1.6648,-1.6208,-1.5906,-1.6144,-1.6205,-1.6279,-1.6368,-1.6529,-1.7013,-1.7413,0.0,0.0,0.0,0.0,0.0,0.0,0.0,0.0,0.0,0.0,0.0,0.0,0.0,0.0,0.0,0.0,0.0,0.0,0.0,0.0,0.0,0.0,0.0,0.0,0.0,-2.1125,0.0,0.0,0.0,0.0,0.0,0.0,0.0,0.0,0.0,0.0,0.0,-2.44,-2.5095,-2.553,-2.5892,-2.6423,-2.658,-2.6725,0.0,0.0,0.0,0.0,0.0,0.0,0.0,0.0,0.0,0.0,0.0,0.0,0.0,0.0,-2.635,-2.564,-2.5992,-2.6286,-2.6286,0.0,0.0,0.0,0.0,0.0,0.0,0.0,0.0,0.0,0.0,0.0,0.0,0.0,0.0,0.0,0.0,-1.6021,0.0,0.0,0.0,0.0,0.0,0.0,0.0,0.0,-1.6103,-1.6039,-1.5958,-1.5838,-1.6047,0.0,-1.6047,-1.6084,0.0,0.0,0.0,0.0,0.0,0.0,0.0,0.0,-1.6688,-1.7016,-1.637,-1.6056,-1.63,-1.6361,-1.6429,-1.6517,-1.6738,-1.7041,-1.7396,-1.7658,-1.7813,0.0,0.0,0.0,0.0,0.0,0.0,0.0,0.0,0.0,0.0,0.0,0.0,0.0,0.0,0.0,0.0,0.0,0.0,0.0,0.0,0.0,0.0,0.0,-2.1577,0.0,0.0,0.0,0.0,0.0,0.0,0.0,0.0,0.0,-2.323,-2.3897,-2.4597,-2.5199,-2.5706,-2.6242,-2.6592,0.0,0.0,0.0,0.0,0.0,0.0,0.0,-2.7244,-2.7075,-2.7051,-2.7039,-2.7051,-2.7184,-2.7304,-2.7304,0.0,0.0,-2.6146,-2.6309,-2.6607,-2.6607,-2.7107,-2.7396,-2.7396,-2.7396,-2.7434,0.0,0.0,0.0,0.0,0.0,0.0,0.0,0.0,-1.5652,-1.5719,0.0,-1.5904,0.0,0.0,0.0,0.0,0.0,-1.6354,0.0,0.0,-1.6308,-1.6465,-1.6295,-1.6442,-1.6516,-1.6516,-1.6508,-1.6427,-1.6435,-1.6179,0.0,0.0,0.0,0.0,0.0,0.0,-1.6852,-1.6995,-1.6532,-1.6164,-1.6313,-1.6456,-1.653,-1.653,-1.6939,-1.7198,-1.6892,-1.7848,-1.8138,-1.7507,-1.7997,0.0,0.0,0.0,0.0,0.0,0.0,0.0,0.0,0.0,0.0,0.0,0.0,0.0,0.0,0.0,0.0,0.0,0.0,0.0,0.0,-2.1976,0.0,0.0,0.0,0.0,0.0,0.0,0.0,0.0,0.0,0.0,-2.3087,-2.3767,-2.435,-2.5125,0.0,0.0,0.0,0.0,-2.7051,-2.7063,-2.7268,-2.7437,-2.7437,-2.7655,-2.7824,-2.7811,0.0,0.0,-2.7848,-2.786,-2.7872,-2.786,-2.7884,-2.7703,-2.722,-2.7087,-2.7075,-2.7087,-2.7111,-2.7087,-2.7087,-2.7135,-2.7184,-1.6059,0.0,0.0,0.0,0.0,-1.5971,-1.5943,-1.6159,-1.6211,-1.6226,-1.6226,-1.6181,0.0,0.0,0.0,0.0,0.0,0.0,-1.614,-1.5932,-1.6133,-1.6102,-1.5827,-1.5876,-1.5897,-1.5897,-1.5897,-1.606,-1.6378,-1.6284,-1.636,-1.6963,0.0,0.0,0.0,0.0,-1.6833,-1.6767,-1.6488,-1.6313,-1.6463,-1.6605,-1.6686,-1.668,-1.6893,-1.7009,-1.7213,-1.7185,-1.7575,-1.8161,-1.7884,0.0,0.0,0.0,0.0,0.0,0.0,0.0,0.0,0.0,0.0,0.0,0.0,0.0,0.0,0.0,0.0,0.0,0.0,0.0,-2.2202,-2.2223,-2.2234,0.0,0.0,0.0,0.0,0.0,0.0,0.0,0.0,0.0,-2.3808,-2.4215,-2.5044,0.0,0.0,-2.6773,-2.7148,-2.7256,-2.7377,-2.7558,0.0,0.0,0.0,-2.792,-2.8089,-2.8089,-2.8415,-2.8669,-2.8669,-2.8825,-2.8946,-2.8934,-2.8946,-2.8898,-2.8741,-2.8246,-2.7968,-2.8113,-2.8162,-2.8162,-2.8174,-2.8162,-2.8186,-1.5913,-1.5874,-1.6118,-1.6066,-1.5891,-1.5949,-1.5903,-1.6076,-1.6148,-1.5981,-1.6169,-1.6292,-1.6161,-1.5971,-1.6096,0.0,0.0,0.0,-1.6162,-1.5751,-1.5904,-1.5863,-1.5811,-1.5879,-1.5934,-1.5988,-1.5927,-1.6069,-1.6203,-1.605,-1.6188,-1.6778,0.0,0.0,-1.7261,-1.6855,-1.6673,-1.6729,-1.644,-1.6463,-1.6605,-1.6761,-1.6842,-1.6842,-1.6842,-1.6975,-1.703,-1.6989,-1.7399,-1.8061,-1.7805,-1.7836,0.0,0.0,0.0,0.0,0.0,0.0,0.0,0.0,0.0,0.0,0.0,-2.1595,0.0,0.0,0.0,0.0,-2.2417,-2.26,-2.274,-2.2751,0.0,0.0,0.0,0.0,0.0,0.0,0.0,-2.3831,-2.442,-2.4789,-2.5071,-2.5535,-2.5943,-2.6437,-2.6785,-2.722,-2.7534,0.0,-2.7787,-2.7944,-2.8149,-2.8294,-2.8294,-2.8512,-2.8681,-2.8681,-2.8934,-2.9163,-2.9175,-2.9296,-2.9393,-2.9405,-2.9405,-2.9441,-2.9538,-2.9151,-2.8837,-2.8922,-2.8934,-2.8934,-2.8934,-2.8934,-2.8934,-1.5825,-1.5689,-1.6364,-1.6401,-1.58,-1.5941,-1.582,-1.5459,-1.5594,-1.5655,-1.5642,-1.5897,-1.6018,-1.5997,-1.6423,0.0,-1.6004,-1.6032,-1.5925,-1.5683,-1.5839,-1.5981,-1.6117,-1.6259,-1.6395,-1.6517,-1.6388,-1.6252,-1.6117,-1.5974,-1.6028,-1.6458,-1.67,-1.6877,-1.7009,-1.6767,-1.6721,-1.6686,-1.6577,-1.6605,-1.6761,-1.6904,-1.6978,-1.6978,-1.6978,-1.691,-1.6754,-1.7016,-1.7408,-1.7702,-1.7916,-1.8175,-1.8257,0.0,0.0,0.0,0.0,0.0,0.0,0.0,0.0,0.0,0.0,0.0,0.0,0.0,0.0,0.0,-2.3138,0.0,-2.3418,-2.3607,0.0,0.0,0.0,-2.4353,-2.4886,-2.5063,-2.5167,-2.5443,0.0,0.0,-2.6711,0.0,-2.6958,-2.6511,-2.72,-2.786,-2.7908,-2.8125,-2.827,-2.8318,-2.8717,-2.9043,-2.9055,-2.9296,-2.9513,-2.955,-2.9538,-2.9574,-2.9586,-2.9574,-2.955,-2.9598,-2.955,-2.9622,-2.9864,-2.99,-2.9827,-2.9598,-2.9501,-2.9477,-2.9465,-2.9477,-2.9477,-1.6341,-1.6307,-1.6433,-1.6144,-1.5725,-1.5767,-1.5649,-1.575,-1.5784,-1.5805,-1.5798,-1.5959,-1.5883,-1.578,-1.5739,-1.5746,-1.5787,-1.6014,-1.6138,-1.5995,-1.6246,-1.6381,-1.6415,-1.6456,-1.649,-1.6517,-1.649,-1.6449,-1.6415,-1.6381,-1.6293,-1.635,-1.6316,-1.6595,-1.6789,-1.6622,-1.6581,-1.6453,-1.6429,-1.6653,-1.6917,-1.6965,-1.6978,-1.6978,-1.6978,-1.691,-1.6754,-1.7016,-1.7458,-1.7866,-1.7977,-1.8285,-1.8606,-1.8518,0.0,0.0,0.0,0.0,0.0,0.0,0.0,0.0,0.0,-2.2,-2.2514,0.0,-2.3106,0.0,-2.3687,-2.4007,-2.4184,-2.4565,0.0,0.0,-2.5388,-2.5468,-2.564,-2.5662,-2.5765,-2.6039,-2.6469,-2.6981,-2.7251,-2.789,-2.826,-2.8332,-2.8294,-2.8258,-2.8656,-2.8777,-2.8886,-2.9079,-2.9236,-2.9381,-2.961,-3.002,-3.0371,-3.0588,-3.0612,-3.0624,-3.0612,-3.0612,-3.0612,-3.0624,-3.0624,-3.0648,-3.0684,-3.0708,-3.0684,-3.0612,-3.0298,-3.002,-3.002,-3.002,-3.002,-1.6517,-1.6517,-1.6517,-1.6334,-1.6029,-1.6029,-1.6076,-1.6151,-1.6151,-1.6151,-1.6151,-1.6151,-1.611,-1.6035,-1.6035,-1.6029,-1.6042,-1.6205,-1.6279,-1.6286,-1.6442,-1.6558,-1.6625,-1.6625,-1.6659,-1.672,-1.6653,-1.6625,-1.6619,-1.6551,-1.6483,-1.6402,-1.6402,-1.6522,-1.6557,-1.6418,-1.6302,-1.6402,-1.6619,-1.6809,-1.6971,-1.6978,-1.6978,-1.6978,-1.6978,-1.7113,-1.7169,-1.7221,-1.7676,-1.8127,-1.8267,-1.8435,-1.885,-1.8647,-1.8609,0.0,0.0,0.0,0.0,0.0,0.0,0.0,0.0,0.0,0.0,0.0,-2.3634,-2.386,-2.4514,-2.4818,-2.4951,-2.5525,-2.5937,-2.6248,-2.6376,-2.6689,-2.7005,-2.7122,-2.7298,-2.7557,-2.7783,-2.8057,-2.8331,-2.8692,-2.9067,-2.932,-2.9212,-2.9115,-2.9188,-2.9381,-2.9598,-2.9743,-2.996,-3.0153,-3.031,-3.0576,-3.0829,-3.0962,-3.0998,-3.0998,-3.0998,-3.0998,-3.0998,-3.0998,-3.0998,-3.0998,-3.0998,-3.0998,-3.0998,-3.0962,-3.0769,-3.0588,-3.0564,-3.0564,-3.0564,-1.6578,-1.6585,-1.6578,-1.6578,-1.6578,-1.6578,-1.6558,-1.6517,-1.6517,-1.6517,-1.6517,-1.6517,-1.6517,-1.6517,-1.6517,-1.6517,-1.6524,-1.6544,-1.6551,-1.6551,-1.6571,-1.6653,-1.6775,-1.6781,-1.6849,-1.6971,-1.6842,-1.6775,-1.6775,-1.6646,-1.6571,-1.6551,-1.6551,-1.6537,-1.651,-1.6266,-1.6273,-1.6551,-1.6836,-1.6978,-1.6978,-1.6978,-1.6978,-1.6978,-1.6978,-1.7113,-1.7576,-1.7426,-1.7879,-1.8722,-1.8551,-1.8773,-1.8996,-1.898,-1.9027,0.0,-1.8903,0.0,0.0,0.0,0.0,0.0,0.0,0.0,0.0,-2.3571,-2.4064,-2.4517,-2.5307,-2.5639,-2.5895,-2.6284,-2.6851,-2.7263,-2.7665,-2.7986,-2.8367,-2.8572,-2.8813,-2.9043,-2.9067,-2.9163,-2.9393,-2.9477,-2.961,-2.9864,-3.0105,-3.0093,-2.9767,-3.002,-3.0298,-3.0322,-3.0733,-3.0962,-3.0998,-3.1071,-3.1119,-3.1119,-3.1143,-3.1107,-3.1131,-3.1131,-3.1119,-3.1119,-3.1143,-3.1131,-3.1107,-3.1119,-3.1107,-3.1143,-3.1119,-3.1071,-3.0986,-3.095,-3.0998,-1.689,-1.689,-1.6897,-1.6897,-1.6897,-1.6897,-1.6748,-1.6517,-1.6517,-1.6517,-1.6517,-1.6517,-1.6517,-1.6517,-1.6517,-1.6517,-1.653,-1.6653,-1.6707,-1.6707,-1.6836,-1.691,-1.6937,-1.6937,-1.6951,-1.6978,-1.6951,-1.6937,-1.6937,-1.691,-1.6829,-1.6707,-1.6707,-1.6646,-1.6524,0.0,0.0,0.0,-1.689,-1.6978,-1.6978,-1.6978,-1.6978,-1.6978,-1.6978,0.0,-1.7576,-1.7836,-1.8075,-1.8722,-1.8956,0.0,0.0,0.0,0.0,0.0,0.0,0.0,0.0,0.0,0.0,0.0,-2.1545,-2.2407,-2.3375,-2.4287,-2.4721,-2.5012,-2.5469,-2.623,-2.701,-2.7615,-2.8085,-2.8884,-2.8956,-2.9188,-2.9188,-2.9224,-2.9284,-2.932,-2.9332,-2.9441,-2.9707,-2.9912,-3.0153,-3.0407,-3.0684,-3.0805,-3.0696,-3.0757,-3.0841,-3.0877,-3.1131,-3.1312,-3.1312,-3.1517,-3.165,-3.165,-3.165,-3.1638,-3.1626,-3.1626,-3.165,-3.1638,-3.165,-3.1638,-3.1638,-3.1662,-3.1626,-3.165,-3.165,-3.1517,-3.1095,-3.0998,-3.0998,-1.6978,0.0,-1.6978,-1.6978,0.0,-1.6978,-1.689,-1.6748,-1.6748,-1.6748,-1.6748,-1.6748,-1.6748,-1.6748,-1.6748,-1.6748,-1.6754,-1.6829,-1.6863,-1.687,-1.6944,-1.6978,-1.6978,-1.6978,-1.6978,-1.6978,-1.6978,-1.6978,-1.6978,-1.6978,-1.6944,-1.6863,-1.6863,-1.6822,-1.6754,-1.6815,-1.6822,-1.6748,-1.6904,-1.6978,-1.6978,-1.6978,-1.6978,-1.6978,0.0,0.0,0.0,0.0,0.0,0.0,0.0,0.0,0.0,0.0,0.0,-1.8465,-1.8379,-1.8568,-1.924,-1.9355,-1.9936,-2.0808,-2.1891,-2.3003,-2.4235,-2.4693,-2.5249,-2.5679,-2.6081,-2.6767,-2.7604,-2.8137,-2.8859,-2.9586,-2.9839,-2.9996,-3.0008,-3.0117,-3.0189,-3.0189,-3.0189,-3.025,-3.0371,-3.0503,-3.0636,-3.0781,-3.1022,-3.1191,-3.1191,-3.1191,-3.1228,-3.1384,-3.1614,-3.1783,-3.1819,-3.2012,-3.2133,-3.2048,-3.2,-3.1952,-3.1831,-3.1807,-3.1807,-3.1807,-3.1807,-3.1807,-3.1807,-3.1807,-3.1807,-3.1807,-3.1807,-3.1735,-3.1445,-3.1397,-3.1397,-1.6978,-1.6978,-1.6978,-1.6978,-1.6978,-1.6978,-1.6978,-1.6978,0.0,0.0,0.0,-1.6978,-1.6978,-1.6978,-1.6978,-1.6978,-1.6978,-1.6978,-1.6978,-1.6978,-1.6978,-1.6978,-1.6978,-1.6978,-1.6978,-1.6985,-1.7005,-1.7019,-1.7019,-1.7046,-1.706,-1.706,-1.706,-1.706,-1.7066,-1.7175,-1.7114,-1.689,-1.6992,-1.706,-1.706,-1.706,-1.706,-1.706,-1.706,-1.7195,-1.7661,-1.7626,-1.7747,-1.8209,-1.8172,-1.8149,-1.8149,-1.8149,-1.8149,-1.8149,-1.803,-1.8217,-1.876,-1.925,-1.9839,-2.0629,-2.2093,-2.3423,-2.4782,-2.496,-2.5472,-2.6136,-2.6748,-2.7181,-2.7872,-2.8669,-2.9213,-2.9807,-3.0407,-3.0672,-3.0684,-3.0853,-3.095,-3.0998,-3.095,-3.0998,-3.0962,-3.101,-3.1071,-3.1095,-3.1288,-3.1493,-3.1517,-3.1553,-3.1626,-3.1831,-3.206,-3.2254,-3.229,-3.241,-3.2495,-3.2302,-3.2266,-3.2193,-3.2012,-3.1904,-3.1879,-3.1904,-3.1855,-3.1807,-3.1807,-3.1807,-3.1807,-3.1807,-3.1807,-3.1807,-3.1807,-3.1807,-3.1783,-1.6978,-1.6978,-1.6978,-1.6978,-1.6978,-1.6978,-1.6978,-1.6978,-1.6978,-1.6978,-1.6978,-1.6978,-1.6978,-1.6978,-1.6978,-1.6978,-1.6978,-1.6978,-1.6978,0.0,-1.6978,-1.6978,-1.6978,-1.6978,-1.6978,-1.6985,-1.7107,-1.7161,-1.7175,-1.729,-1.7358,-1.7351,-1.7358,-1.7358,-1.7358,-1.7378,-1.7372,-1.7331,-1.7351,-1.7358,-1.7358,-1.7358,-1.7358,-1.7358,-1.7351,-1.7504,-1.7989,-1.7853,-1.7912,-1.838,-1.8231,-1.8149,-1.8149,-1.8164,-1.8149,-1.8149,-1.8134,-1.8134,-1.8157,-1.8752,-1.9629,-2.0832,-2.2016,-2.3184,-2.4016,-2.4778,-2.5565,-2.6176,-2.6638,-2.7425,-2.8224,-2.8915,-2.955,-2.9988,-3.0682,-3.0938,-3.0962,-3.0998,-3.1034,-3.1034,-3.0998,-3.1022,-3.1059,-3.1203,-3.1336,-3.1372,-3.1578,-3.1819,-3.1988,-3.2085,-3.2097,-3.2169,-3.2362,-3.2519,-3.2543,-3.2567,-3.2604,-3.2543,-3.2531,-3.2507,-3.2435,-3.2266,-3.2157,-3.2145,-3.2,-3.1867,-3.1843,-3.1807,-3.1843,-3.1855,-3.1843,-3.1831,-3.1819,-3.1807,-3.1807,-1.6978,-1.6978,-1.6978,-1.6978,-1.6978,-1.6978,-1.6978,-1.6978,-1.6978,-1.6978,-1.6978,-1.6978,-1.6978,-1.6978,-1.6978,-1.6978,-1.6978,-1.6978,-1.6978,-1.6985,-1.706,-1.7093,-1.71,-1.7182,-1.7222,-1.7222,-1.7283,-1.7317,-1.7324,-1.7392,-1.7419,-1.7419,-1.7419,-1.746,-1.7534,-1.7548,-1.7582,-1.7656,-1.7507,-1.7419,-1.7419,-1.7419,-1.7419,-1.7419,-1.7419,-1.7392,-1.7753,-1.7676,-1.7607,-1.7756,-1.7678,-1.7636,-1.7636,-1.7636,-1.7643,-1.7643,-1.7643,-1.7846,-1.8266,-1.9113,-1.999,-2.0693,-2.203,-2.2852,-2.3503,-2.4933,-2.5851,-2.6473,-2.6911,-2.7621,-2.8479,-2.9022,-2.9733,-3.0376,-3.0927,-3.1433,-3.1445,-3.1433,-3.1433,-3.1433,-3.1433,-3.1433,-3.1433,-3.1541,-3.1614,-3.1638,-3.1855,-3.2073,-3.2205,-3.2447,-3.2567,-3.2459,-3.2628,-3.2785,-3.2809,-3.293,-3.2942,-3.2833,-3.2809,-3.2748,-3.264,-3.2471,-3.2423,-3.241,-3.2302,-3.2254,-3.2217,-3.2229,-3.2181,-3.2036,-3.2012,-3.1976,-3.1867,-3.1807,-3.1807,-1.7053,-1.708,-1.708,-1.708,-1.708,-1.708,-1.708,-1.708,-1.708,-1.708,-1.7073,-1.7012,-1.6998,-1.7026,-1.7032,-1.7046,-1.708,-1.708,-1.708,-1.7093,-1.7195,-1.7243,-1.7256,-1.7372,-1.7419,-1.7426,-1.7453,-1.7473,-1.7473,-1.75,-1.7521,-1.7521,-1.7521,-1.7582,-1.769,-1.7697,-1.7751,-1.784,-1.7636,-1.7521,-1.7521,-1.7521,-1.7521,-1.7521,-1.7521,-1.7507,-1.7473,-1.7473,-1.7453,-1.7419,-1.7419,-1.7419,-1.7419,-1.7419,-1.7419,-1.7419,-1.7419,-1.7635,-1.828,-1.914,-1.9999,-2.0642,-2.1959,-2.2841,-2.3268,-2.5021,-2.6307,-2.669,-2.7345,-2.8045,-2.8578,-2.9394,-3.0159,-3.0609,-3.1427,-3.1976,-3.1976,-3.1988,-3.1988,-3.1988,-3.194,-3.1891,-3.1891,-3.1843,-3.1831,-3.1916,-3.2121,-3.229,-3.241,-3.2748,-3.2881,-3.2869,-3.2942,-3.3062,-3.3086,-3.3219,-3.3255,-3.3086,-3.3062,-3.299,-3.2845,-3.2748,-3.2676,-3.2664,-3.2616,-3.2555,-3.2579,-3.2567,-3.2483,-3.2326,-3.229,-3.2229,-3.2073,-3.1964,-3.1879,-1.7249,-1.7372,-1.7372,-1.7378,-1.7365,-1.7372,-1.7365,-1.7372,-1.7378,-1.7378,-1.7338,-1.71,-1.706,-1.7161,-1.7175,-1.7243,-1.7358,-1.7378,-1.7372,-1.7372,-1.7392,-1.7399,-1.7399,-1.7419,-1.7419,-1.7446,-1.7568,-1.7629,-1.7636,-1.7745,-1.7812,-1.7826,-1.7819,-1.7819,-1.784,-1.7846,-1.7853,-1.786,-1.784,-1.7826,-1.7819,-1.7826,-1.7819,-1.7819,-1.7826,-1.7758,-1.765,-1.7629,-1.7561,-1.7433,-1.7433,-1.7426,-1.7426,-1.7426,-1.7426,-1.7426,-1.7426,-1.7635,-1.828,-1.8926,-1.937,-2.0221,-2.1881,-2.2829,-2.3054,-2.5154,-2.6478,-2.6561,-2.7523,-2.835,-2.8804,-2.9873,-3.063,-3.0826,-3.1769,-3.2519,-3.2483,-3.2519,-3.2519,-3.2519,-3.229,-3.2157,-3.2145,-3.2,-3.1952,-3.2145,-3.2386,-3.2616,-3.2797,-3.293,-3.3086,-3.3219,-3.3328,-3.3316,-3.3316,-3.334,-3.334,-3.3316,-3.3328,-3.3268,-3.3183,-3.3062,-3.2942,-3.293,-3.2785,-3.2676,-3.2652,-3.2592,-3.2616,-3.2567,-3.2543,-3.2531,-3.2483,-3.2326,-3.2121,-1.7365,-1.7419,-1.7419,-1.7419,-1.7419,-1.7419,-1.7419,-1.7419,-1.7419,-1.7419,-1.7405,-1.729,-1.7277,-1.7324,-1.7331,-1.7365,-1.7419,-1.7419,-1.7419,-1.7433,-1.7514,-1.7555,-1.7561,-1.7643,-1.7684,-1.7684,-1.7745,-1.7779,-1.7785,-1.7833,-1.786,-1.786,-1.786,-1.786,-1.7874,-1.7955,-1.7996,-1.8002,-1.8084,-1.8131,-1.8124,-1.8043,-1.8043,-1.8124,-1.8131,-1.8111,-1.8043,-1.7962,-1.788,-1.7819,-1.7731,-1.7684,-1.7684,-1.7684,-1.7684,-1.7684,-1.7684,-1.7902,-1.8114,-1.8995,-1.9431,-1.9649,-2.1883,-2.3022,-2.3031,-2.5385,-2.6782,-2.6938,-2.786,-2.8662,-2.8888,-3.0108,-3.0813,-3.1033,-3.1923,-3.2604,-3.2592,-3.2604,-3.2592,-3.2579,-3.2507,-3.2435,-3.2423,-3.2338,-3.2326,-3.2447,-3.2652,-3.2869,-3.2978,-3.3111,-3.3243,-3.334,-3.3364,-3.3364,-3.3364,-3.3364,-3.3364,-3.3364,-3.3364,-3.3364,-3.3352,-3.3304,-3.3207,-3.3207,-3.3086,-3.3014,-3.3074,-3.3038,-3.3026,-3.2893,-3.2652,-3.2592,-3.2592,-3.2507,-3.2374,-1.7507,-1.7541,-1.7541,-1.7541,-1.7541,-1.7541,-1.7541,-1.7541,-1.7541,-1.7541,-1.7541,-1.7541,-1.7541,-1.7534,-1.75,-1.75,-1.7534,-1.7541,-1.7541,-1.7555,-1.7656,-1.7704,-1.7724,-1.7812,-1.786,-1.786,-1.786,-1.786,-1.786,-1.786,-1.786,-1.7867,-1.7901,-1.7928,-1.7941,-1.8077,-1.8152,-1.8165,-1.8267,-1.8335,-1.8355,-1.8267,-1.8247,-1.8314,-1.8321,-1.8321,-1.8321,-1.8213,-1.8152,-1.8152,-1.8043,-1.7989,-1.7989,-1.7948,-1.7907,-1.7867,-1.786,-1.786,-1.786,-1.8971,-1.9632,-1.9853,-2.1814,-2.3128,-2.36,-2.5509,-2.6974,-2.7265,-2.8196,-2.8996,-2.9125,-3.0332,-3.103,-3.103,-3.2135,-3.2797,-3.2821,-3.2809,-3.2821,-3.2797,-3.2761,-3.2664,-3.2616,-3.2628,-3.2688,-3.2724,-3.2917,-3.3086,-3.3099,-3.3255,-3.3364,-3.3364,-3.3364,-3.3364,-3.3364,-3.3364,-3.3364,-3.3364,-3.3364,-3.3364,-3.3364,-3.3364,-3.3364,-3.3292,-3.3352,-3.3352,-3.3268,-3.3292,-3.3316,-3.3135,-3.2942,-3.2809,-3.2881,-3.2773,-3.2712,-1.7717,-1.7826,-1.784,-1.7826,-1.784,-1.7833,-1.7833,-1.7812,-1.7826,-1.7833,-1.7819,-1.7826,-1.784,-1.7819,-1.769,-1.7711,-1.7819,-1.7819,-1.7812,-1.7819,-1.784,-1.7846,-1.7853,-1.786,-1.786,-1.786,-1.786,-1.786,-1.786,-1.7867,-1.786,-1.788,-1.8009,-1.8084,-1.8104,-1.8233,-1.8308,-1.8314,-1.8335,-1.8396,-1.8504,-1.8511,-1.8443,-1.8355,-1.8328,-1.8342,-1.8328,-1.8314,-1.8308,-1.8308,-1.8287,-1.8287,-1.8274,-1.8152,-1.8023,-1.7901,-1.7874,-1.7874,-1.8095,-1.8978,-1.9632,-1.9845,-2.1823,-2.3128,-2.3364,-2.5529,-2.7055,-2.7237,-2.8554,-2.9383,-2.9416,-3.0678,-3.1476,-3.1487,-3.2632,-3.3304,-3.3304,-3.3255,-3.3328,-3.3268,-3.3086,-3.2905,-3.2664,-3.2821,-3.2942,-3.3002,-3.3183,-3.3328,-3.3316,-3.3352,-3.3364,-3.3364,-3.3364,-3.3364,-3.3364,-3.3364,-3.3364,-3.3364,-3.3364,-3.3364,-3.3364,-3.3364,-3.3364,-3.3364,-3.3364,-3.3364,-3.3364,-3.3364,-3.3364,-3.3292,-3.328,-3.3219,-3.3135,-3.3062,-3.3002,-1.7812,-1.786,-1.786,-1.786,-1.786,-1.786,-1.786,-1.786,-1.786,-1.786,-1.786,-1.786,-1.786,-1.786,-1.7812,-1.7812,-1.786,-1.786,-1.786,-1.786,-1.786,-1.786,-1.786,-1.786,-1.786,-1.786,-1.786,-1.786,-1.7874,-1.7955,-1.8009,-1.8036,-1.8165,-1.824,-1.826,-1.8382,-1.8457,-1.8464,-1.8552,-1.8626,-1.8667,-1.8681,-1.8654,-1.8606,-1.8606,-1.8599,-1.8599,-1.8511,-1.8457,-1.8457,-1.8369,-1.8321,-1.8314,-1.8267,-1.8219,-1.8158,-1.8063,-1.8009,-1.8218,-1.9029,-1.9632,-1.9845,-2.1823,-2.3145,-2.3618,-2.5615,-2.7196,-2.754,-2.8754,-2.962,-2.9878,-3.0857,-3.159,-3.1804,-3.2703,-3.3364,-3.3364,-3.3364,-3.3364,-3.3352,-3.328,-3.3195,-3.3111,-3.3171,-3.3231,-3.3243,-3.3316,-3.3364,-3.3364,-3.3364,-3.3364,-3.3364,-3.3364,-3.3364,-3.3364,-3.3364,-3.3364,-3.3364,-3.3364,-3.3364,-3.3364,-3.3364,-3.3364,-3.3364,-3.3364,-3.3364,-3.3364,-3.3364,-3.3364,-3.3364,-3.3364,-3.3364,-3.3364,-3.3231,-3.3207,-1.786,-1.786,-1.786,-1.786,-1.786,-1.786,-1.786,-1.786,-1.786,-1.786,-1.786,-1.786,-1.786,-1.786,-1.786,-1.786,-1.786,-1.786,-1.786,-1.786,-1.786,-1.786,-1.786,-1.786,-1.786,-1.7874,-1.7914,-1.7935,-1.7955,-1.8091,-1.8165,-1.8172,-1.8314,-1.8389,-1.8409,-1.8531,-1.8606,-1.8626,-1.8715,-1.8762,-1.8762,-1.8762,-1.8762,-1.8762,-1.8762,-1.8762,-1.8762,-1.866,-1.8606,-1.8593,-1.8511,-1.8443,-1.8396,-1.8389,-1.8369,-1.8314,-1.8226,-1.8165,-1.8601,-1.918,-1.9789,-2.0233,-2.1997,-2.3321,-2.3559,-2.5846,-2.7135,-2.7693,-2.8838,-2.976,-2.9997,-3.0902,-3.159,-3.1804,-3.2703,-3.3364,-3.3364,-3.3364,-3.3364,-3.3364,-3.3364,-3.3364,-3.3364,-3.3364,-3.3364,-3.3364,-3.3364,-3.3364,-3.3364,-3.3364,-3.3364,-3.3364,-3.3364,-3.3364,-3.3364,-3.3364,-3.3376,-3.3376,-3.3376,-3.3376,-3.34,-3.3388,-3.34,-3.3388,-3.3376,-3.3376,-3.3376,-3.3376,-3.3376,-3.3388,-3.3364,-3.3364,-3.3364,-3.3364,-3.3328,-1.786,-1.786,-1.786,-1.786,-1.786,-1.786,-1.786,-1.786,-1.786,-1.786,-1.786,-1.786,-1.786,-1.786,-1.786,-1.786,-1.7867,-1.788,-1.788,-1.7867,-1.786,-1.786,-1.786,-1.788,-1.7901,-1.7914,-1.803,-1.8091,-1.8104,-1.824,-1.8321,-1.8348,-1.8464,-1.8538,-1.8531,-1.8667,-1.8749,-1.8749,-1.8769,-1.8776,-1.8769,-1.8789,-1.881,-1.8796,-1.8796,-1.8803,-1.8782,-1.8762,-1.8742,-1.8742,-1.8742,-1.8681,-1.8552,-1.8531,-1.8477,-1.8382,-1.8328,-1.8548,-1.8994,-1.9643,-2.0282,-2.0957,-2.2553,-2.3646,-2.3887,-2.5862,-2.759,-2.7835,-2.8697,-2.9771,-2.9997,-3.0902,-3.159,-3.1815,-3.2703,-3.3376,-3.3364,-3.3364,-3.3364,-3.3364,-3.3364,-3.3364,-3.3364,-3.3364,-3.3364,-3.3364,-3.3364,-3.3364,-3.3364,-3.3364,-3.3364,-3.3364,-3.3364,-3.3364,-3.3364,-3.3376,-3.3376,-3.3388,-3.3388,-3.3388,-3.3461,-3.3497,-3.3569,-3.3569,-3.363,-3.363,-3.363,-3.3618,-3.3533,-3.3521,-3.3461,-3.3412,-3.3364,-3.3364,-3.3364,-1.786,-1.786,-1.786,-1.786,-1.786,-1.786,-1.786,-1.786,-1.786,-1.786,-1.786,-1.786,-1.786,-1.7867,-1.786,-1.7867,-1.7874,-1.7962,-1.7968,-1.7887,-1.7867,-1.7874,-1.7887,-1.7975,-1.8077,-1.8172,-1.8219,-1.8247,-1.8274,-1.8396,-1.8464,-1.8491,-1.8613,-1.8687,-1.8694,-1.8735,-1.8762,-1.8776,-1.8871,-1.8918,-1.8932,-1.9013,-1.9061,-1.9067,-1.9067,-1.9067,-1.9061,-1.8871,-1.8769,-1.8769,-1.8762,-1.8742,-1.8701,-1.8687,-1.8667,-1.862,-1.8518,-1.8464,-1.8678,-1.9504,-2.0132,-2.0794,-2.237,-2.3484,-2.3949,-2.5695,-2.7171,-2.7651,-2.8502,-2.9318,-2.9997,-3.0902,-3.159,-3.1578,-3.2703,-3.3364,-3.3364,-3.3364,-3.3364,-3.3364,-3.3364,-3.3364,-3.3364,-3.3364,-3.3364,-3.3364,-3.3364,-3.3364,-3.3364,-3.3364,-3.3364,-3.3364,-3.3364,-3.3388,-3.3437,-3.3485,-3.3521,-3.3545,-3.3533,-3.3557,-3.3618,-3.3666,-3.3738,-3.3787,-3.3835,-3.3871,-3.3871,-3.3847,-3.3762,-3.3714,-3.369,-3.3581,-3.3424,-3.3424,-3.3497,-1.786,-1.786,-1.786,-1.786,-1.786,-1.786,-1.786,-1.786,-1.786,-1.786,-1.7874,-1.7928,-1.7948,-1.7962,-1.8009,-1.803,-1.8043,-1.8138,-1.8124,-1.8043,-1.8036,-1.803,-1.8043,-1.8124,-1.8219,-1.8314,-1.8375,-1.8396,-1.8409,-1.8538,-1.862,-1.864,-1.8715,-1.8789,-1.8837,-1.885,-1.8864,-1.8932,-1.902,-1.9067,-1.9081,-1.9156,-1.9203,-1.9196,-1.9203,-1.9203,-1.9189,-1.902,-1.8925,-1.8925,-1.8925,-1.8905,-1.8857,-1.8843,-1.8823,-1.8755,-1.8681,-1.862,-1.9066,-1.9913,-2.0296,-2.0979,-2.235,-2.371,-2.418,-2.5648,-2.6601,-2.732,-2.8337,-2.9091,-2.9544,-3.045,-3.1364,-3.159,-3.2703,-3.3376,-3.3364,-3.3364,-3.3364,-3.3364,-3.3364,-3.3364,-3.3364,-3.3364,-3.3364,-3.3364,-3.3364,-3.3364,-3.3364,-3.3364,-3.3376,-3.3376,-3.3364,-3.3424,-3.3533,-3.3593,-3.3666,-3.3702,-3.3726,-3.3799,-3.3871,-3.3919,-3.398,-3.4004,-3.4052,-3.404,-3.404,-3.4076,-3.404,-3.3992,-3.3931,-3.3871,-3.3787,-3.3762,-3.3799,-1.7867,-1.7874,-1.788,-1.7894,-1.7907,-1.7914,-1.7928,-1.7901,-1.7907,-1.7921,-1.7941,-1.805,-1.8104,-1.8138,-1.8219,-1.8267,-1.8314,-1.8321,-1.8328,-1.8321,-1.8328,-1.8335,-1.8314,-1.8321,-1.8355,-1.8403,-1.8491,-1.8545,-1.8552,-1.8674,-1.8762,-1.8742,-1.8776,-1.8843,-1.8952,-1.8993,-1.9054,-1.9142,-1.9196,-1.9217,-1.9217,-1.9244,-1.925,-1.9257,-1.9257,-1.9264,-1.9264,-1.9244,-1.9217,-1.9203,-1.9162,-1.9108,-1.9027,-1.9006,-1.8938,-1.883,-1.8796,-1.9015,-1.9704,-2.0146,-2.0579,-2.1256,-2.2399,-2.3616,-2.4244,-2.515,-2.631,-2.7004,-2.7944,-2.8647,-2.9101,-3.0008,-3.0913,-3.1578,-3.2703,-3.3364,-3.3364,-3.3364,-3.3364,-3.3364,-3.3364,-3.3364,-3.3364,-3.3364,-3.3364,-3.3364,-3.3364,-3.3364,-3.3364,-3.3376,-3.3388,-3.3412,-3.3473,-3.3606,-3.375,-3.3823,-3.3907,-3.4052,-3.4052,-3.4088,-3.4173,-3.4233,-3.4306,-3.4318,-3.4294,-3.4257,-3.4281,-3.4366,-3.433,-3.4245,-3.4209,-3.4209,-3.4137,-3.404,-3.4016,-1.7928,-1.803,-1.8036,-1.8097,-1.8192,-1.8199,-1.8192,-1.8199,-1.8192,-1.8179,-1.8206,-1.824,-1.826,-1.8267,-1.8301,-1.8321,-1.8355,-1.843,-1.8477,-1.8498,-1.8599,-1.8572,-1.8498,-1.8477,-1.8531,-1.8626,-1.866,-1.8701,-1.8701,-1.8749,-1.8769,-1.8769,-1.8884,-1.8952,-1.8993,-1.9101,-1.9156,-1.9217,-1.9325,-1.9366,-1.9386,-1.9481,-1.9542,-1.9542,-1.9535,-1.9529,-1.9535,-1.9542,-1.942,-1.9217,-1.9203,-1.9189,-1.9156,-1.9149,-1.9122,-1.9074,-1.9067,-1.9033,-1.918,-1.9861,-2.027,-2.0855,-2.2019,-2.2917,-2.3616,-2.4755,-2.5672,-2.6358,-2.7043,-2.7965,-2.8637,-2.9544,-3.0676,-3.2029,-3.2928,-3.3364,-3.3364,-3.3364,-3.3364,-3.3364,-3.3364,-3.3364,-3.3364,-3.3364,-3.3364,-3.3364,-3.3364,-3.3364,-3.3364,-3.3424,-3.3461,-3.363,-3.3726,-3.3859,-3.398,-3.4052,-3.4173,-3.4378,-3.4426,-3.4426,-3.4523,-3.4607,-3.4704,-3.4788,-3.4668,-3.4619,-3.4704,-3.4788,-3.4668,-3.4487,-3.4475,-3.445,-3.4269,-3.4149,-3.4185,-1.8104,-1.8186,-1.8186,-1.824,-1.8314,-1.8321,-1.8321,-1.8321,-1.8321,-1.8321,-1.8328,-1.8382,-1.8409,-1.8416,-1.8477,-1.8504,-1.8518,-1.8593,-1.8626,-1.864,-1.8715,-1.8701,-1.864,-1.8626,-1.8674,-1.8749,-1.8762,-1.8755,-1.8776,-1.8823,-1.8857,-1.8891,-1.9006,-1.9108,-1.9189,-1.925,-1.9339,-1.94,-1.9488,-1.9529,-1.9542,-1.961,-1.9651,-1.9664,-1.9664,-1.9664,-1.9657,-1.9657,-1.9569,-1.9434,-1.9393,-1.9366,-1.9305,-1.9298,-1.9271,-1.9217,-1.9203,-1.9156,-1.9101,-1.9546,-1.9975,-2.0584,-2.1456,-2.2338,-2.3025,-2.3897,-2.4755,-2.5663,-2.6358,-2.7271,-2.842,-2.9544,-3.0676,-3.1578,-3.2254,-3.2928,-3.3364,-3.3364,-3.3364,-3.3364,-3.3364,-3.3364,-3.3364,-3.3364,-3.3364,-3.3364,-3.3364,-3.3364,-3.3376,-3.3461,-3.3593,-3.3787,-3.3968,-3.41,-3.4233,-3.433,-3.4426,-3.4632,-3.468,-3.4692,-3.4752,-3.4849,-3.4885,-3.4933,-3.4957,-3.497,-3.497,-3.4957,-3.4873,-3.4752,-3.474,-3.468,-3.4535,-3.4402,-3.4414,-1.8328,-1.8342,-1.8342,-1.8348,-1.8375,-1.8369,-1.8396,-1.8375,-1.8396,-1.8389,-1.8416,-1.8504,-1.8552,-1.8565,-1.866,-1.8742,-1.8742,-1.8728,-1.8742,-1.8742,-1.8762,-1.8755,-1.8789,-1.8742,-1.8742,-1.8769,-1.8776,-1.8796,-1.8843,-1.8945,-1.9006,-1.9047,-1.9156,-1.9284,-1.9366,-1.9434,-1.9529,-1.9603,-1.9624,-1.9637,-1.9637,-1.9657,-1.9664,-1.9664,-1.9664,-1.9664,-1.9664,-1.9664,-1.9644,-1.9657,-1.9664,-1.9576,-1.9461,-1.9454,-1.94,-1.9312,-1.9291,-1.9278,-1.923,-1.9699,-2.0153,-2.0332,-2.1164,-2.2047,-2.2499,-2.3107,-2.3949,-2.4818,-2.57,-2.6625,-2.7954,-2.9544,-3.0461,-3.0913,-3.1353,-3.2029,-3.2916,-3.3376,-3.3376,-3.3364,-3.3364,-3.3364,-3.3364,-3.3376,-3.3376,-3.3388,-3.3424,-3.3509,-3.3581,-3.3702,-3.3835,-3.3992,-3.4161,-3.433,-3.4475,-3.4607,-3.4716,-3.4849,-3.4861,-3.4873,-3.4873,-3.4933,-3.4945,-3.497,-3.497,-3.497,-3.497,-3.4957,-3.4945,-3.4933,-3.4861,-3.4897,-3.4909,-3.4788,-3.474,-1.8382,-1.8484,-1.8484,-1.8559,-1.866,-1.8667,-1.866,-1.8654,-1.866,-1.864,-1.8667,-1.8701,-1.8701,-1.8708,-1.8742,-1.8762,-1.8762,-1.8762,-1.8762,-1.8762,-1.8762,-1.8837,-1.8884,-1.8843,-1.8776,-1.8803,-1.8891,-1.8938,-1.8972,-1.9074,-1.9156,-1.9183,-1.9305,-1.9393,-1.944,-1.9549,-1.9624,-1.9657,-1.9664,-1.9664,-1.9664,-1.9664,-1.9664,-1.9664,-1.9664,-1.9664,-1.9664,-1.9664,-1.9664,-1.9664,-1.9664,-1.9637,-1.9603,-1.9596,-1.9576,-1.9549,-1.9535,-1.9501,-1.9413,-1.9612,-1.9803,-2.0181,-2.0375,-2.1041,-2.1993,-2.266,-2.3265,-2.4104,-2.4988,-2.6309,-2.7777,-2.8647,-2.9544,-3.0235,-3.0687,-3.1139,-3.1804,-3.2479,-3.2928,-3.3152,-3.3376,-3.3364,-3.3376,-3.3176,-3.34,-3.3412,-3.3533,-3.3678,-3.3811,-3.3944,-3.4088,-3.4233,-3.4402,-3.4559,-3.468,-3.4776,-3.4837,-3.4921,-3.4957,-3.497,-3.497,-3.497,-3.497,-3.497,-3.497,-3.497,-3.497,-3.497,-3.4957,-3.497,-3.497,-3.497,-3.497,-3.497,-3.497,-1.8336,-1.864,-1.864,-1.8687,-1.8755,-1.8762,-1.8762,-1.8762,-1.8762,-1.8762,-1.8762,-1.8762,-1.8762,-1.8762,-1.8762,-1.8762,-1.8762,-1.8762,-1.8803,-1.885,-1.8877,-1.8952,-1.9054,-1.902,-1.8972,-1.8986,-1.9047,-1.9088,-1.9128,-1.923,-1.9312,-1.9325,-1.9461,-1.9535,-1.9542,-1.9617,-1.9651,-1.9664,-1.9664,-1.9664,-1.9664,-1.9664,-1.9664,-1.9664,-1.9664,-1.9664,-1.9664,-1.9664,-1.9664,-1.9664,-1.9664,-1.9664,-1.9664,-1.9664,-1.9664,-1.9664,-1.9664,-1.9637,-1.9556,-1.9535,-1.975,-1.9893,-2.0063,-2.0505,-2.119,-2.1872,-2.2724,-2.3348,-2.4242,-2.5346,-2.6989,-2.7995,-2.8885,-2.9318,-2.9782,-3.0008,-3.0687,-3.1578,-3.2254,-3.2479,-3.2479,-3.2479,-3.249,-3.2821,-3.2655,-3.2713,-3.3153,-3.3523,-3.3583,-3.3955,-3.4342,-3.4487,-3.4656,-3.4788,-3.4885,-3.4933,-3.4921,-3.4957,-3.4957,-3.497,-3.497,-3.497,-3.497,-3.497,-3.497,-3.497,-3.497,-3.497,-3.497,-3.497,-3.497,-3.497,-3.497,-3.497,-3.497,-1.8059,-1.8762,-1.8762,-1.8762,-1.8762,-1.8762,-1.8762,-1.8762,-1.8762,-1.8762,-1.8762,-1.8762,-1.8762,-1.8769,-1.8796,-1.8803,-1.8837,-1.885,-1.8932,-1.9013,-1.902,-1.9108,-1.9203,-1.9223,-1.9244,-1.9264,-1.925,-1.9244,-1.9278,-1.9379,-1.9461,-1.9488,-1.9583,-1.963,-1.9657,-1.9664,-1.9664,-1.9664,-1.9664,-1.9664,-1.9664,-1.9664,-1.9664,-1.9664,-1.9664,-1.9664,-1.9664,-1.9664,-1.9664,-1.9664,-1.9664,-1.9664,-1.9664,-1.9664,-1.9664,-1.9664,-1.9664,-1.9651,-1.9644,-1.9644,-1.9644,-1.9657,-2.0026,-2.043,-2.0635,-2.1287,-2.1926,-2.2804,-2.37,-2.4788,-2.6034,-2.7077,-2.7648,-2.8086,-2.8533,-2.8968,-2.9651,-3.056,-3.1058,-3.167,-3.193,-3.2179,-3.2045,-3.2149,-3.1967,-3.2047,-3.2712,-3.3336,-3.3395,-3.3732,-3.4351,-3.4668,-3.4801,-3.4861,-3.4945,-3.497,-3.497,-3.497,-3.497,-3.497,-3.497,-3.497,-3.497,-3.497,-3.497,-3.497,-3.497,-3.497,-3.497,-3.497,-3.497,-3.497,-3.497,-3.497,-3.497,-1.782,-1.8052,-1.853,-1.8762,-1.8762,-1.8762,-1.8762,-1.8762,-1.8762,-1.8762,-1.8769,-1.8762,-1.8776,-1.8803,-1.8911,-1.9013,-1.9067,-1.9081,-1.9115,-1.9162,-1.9176,-1.9244,-1.9366,-1.94,-1.9454,-1.9522,-1.9468,-1.9393,-1.9427,-1.9542,-1.959,-1.9624,-1.9644,-1.9664,-1.9664,-1.9664,-1.9664,-1.9664,-1.9664,-1.9664,-1.9664,-1.9678,-1.9685,-1.9691,-1.9705,-1.9705,-1.9691,-1.9678,-1.9664,-1.9664,-1.9664,-1.9671,-1.9691,-1.9691,-1.9678,-1.9664,-1.9664,-1.9664,-1.9664,-1.9664,-1.9664,-1.9657,-1.9866,-2.0095,-2.0323,-2.0786,-2.1414,-2.225,-2.3326,-2.4397,-2.577,-2.6145,-2.663,-2.7329,-2.7764,-2.7996,-2.846,-2.9134,-2.9774,-3.0813,-3.1259,-3.1704,-3.1349,-3.146,-3.1539,-3.1639,-3.2271,-3.285,-3.3374,-3.3735,-3.4357,-3.4651,-3.4921,-3.4945,-3.497,-3.497,-3.497,-3.497,-3.497,-3.497,-3.497,-3.497,-3.497,-3.497,-3.497,-3.497,-3.497,-3.497,-3.497,-3.497,-3.497,-3.497,-3.497,-3.497,-3.497,-1.7594,-1.782,-1.853,-1.8762,-1.8762,-1.8762,-1.8762,-1.8762,-1.8762,-1.881,-1.8864,-1.8644,-1.8456,-1.8523,-1.811,-1.8194,-1.8721,-1.9203,-1.9244,-1.9298,-1.9325,-1.94,-1.9529,-1.9549,-1.959,-1.9624,-1.9583,-1.9542,-1.9556,-1.9617,-1.9664,-1.9664,-1.9664,-1.9664,-1.9664,-1.9664,-1.9664,-1.9664,-1.9664,-1.9664,-1.9678,-1.9725,-1.9766,-1.9786,-1.9847,-1.9888,-1.9888,-1.9888,-1.9895,-1.9895,-1.9895,-1.9888,-1.9861,-1.9807,-1.9739,-1.9691,-1.9664,-1.9664,-1.9664,-1.9664,-1.9664,-1.9664,-1.9664,-1.9908,-2.0144,-2.0366,-2.1071,-2.1948,-2.2759,-2.3842,-2.4307,-2.4938,-2.5581,-2.605,-2.6294,-2.6763,-2.6987,-2.7455,-2.8379,-2.9501,-2.969,-2.9911,-3.0175,-3.0282,-3.0865,-3.1463,-3.183,-3.2589,-3.3103,-3.3665,-3.4017,-3.4735,-3.4957,-3.497,-3.497,-3.497,-3.497,-3.497,-3.497,-3.497,-3.497,-3.497,-3.497,-3.497,-3.497,-3.497,-3.497,-3.497,-3.497,-3.497,-3.497,-3.497,-3.497,-3.497,-3.497,-1.6896,-1.7588,-1.8291,-1.853,-1.853,-1.8803,-1.881,-1.8577,-1.8617,-1.8691,-1.8549,-1.8084,-1.7906,-1.7995,-1.7562,-1.7593,-1.8097,-1.8827,-1.914,-1.9213,-1.9481,-1.9549,-1.9624,-1.9664,-1.9657,-1.9651,-1.9651,-1.9664,-1.9644,-1.9657,-1.9664,-1.9664,-1.9664,-1.9664,-1.9664,-1.9664,-1.9664,-1.9664,-1.9664,-1.9671,-1.9732,-1.9841,-1.9915,-1.9922,-2.0037,-2.0085,-2.0064,-2.0058,-2.0064,-2.0064,-2.0078,-2.0085,-2.0078,-1.9983,-1.9868,-1.9766,-1.9698,-1.9671,-1.9664,-1.9664,-1.9664,-1.9664,-1.9664,-1.9664,-1.9901,-2.0387,-2.0865,-2.157,-2.2211,-2.283,-2.3053,-2.3663,-2.4087,-2.4544,-2.4789,-2.5472,-2.5735,-2.6007,-2.6545,-2.7216,-2.7629,-2.8099,-2.8844,-2.96,-3.0185,-3.0677,-3.1267,-3.2007,-3.2512,-3.3241,-3.3782,-3.4735,-3.497,-3.497,-3.497,-3.497,-3.497,-3.497,-3.497,-3.497,-3.497,-3.497,-3.497,-3.497,-3.497,-3.497,-3.497,-3.497,-3.497,-3.497,-3.497,-3.497,-3.497,-3.497,-3.497,-1.6192,-1.643,-1.7361,-1.782,-1.8085,-1.8671,-1.8489,-1.8026,-1.8136,-1.7969,-1.7751,-1.7513,-1.7287,-1.7342,-1.744,-1.7538,-1.7854,-1.8351,-1.8836,-1.8869,-1.9361,-1.9617,-1.9657,-1.9664,-1.9664,-1.9664,-1.9664,-1.9664,-1.9664,-1.9664,-1.9664,-1.9664,-1.9664,-1.9664,-1.9664,-1.9664,-1.9664,-1.9664,-1.9664,-1.9732,-1.9854,-1.9997,-2.0058,-2.0085,-2.0112,-2.0139,-2.0153,-2.0159,-2.0146,-2.0139,-2.0126,-2.0112,-2.0098,-2.0092,-2.0071,-1.9976,-1.9834,-1.9664,-1.9685,-1.9671,-1.9664,-1.9664,-1.9664,-1.9664,-1.9901,-2.0144,-2.063,-2.063,-2.1321,-2.1782,-2.1775,-2.2016,-2.225,-2.2941,-2.3382,-2.411,-2.4366,-2.4504,-2.505,-2.5316,-2.5722,-2.6721,-2.7721,-2.8722,-2.9487,-2.9962,-3.0448,-3.1171,-3.2129,-3.2838,-3.3782,-3.4735,-3.497,-3.497,-3.497,-3.497,-3.497,-3.497,-3.497,-3.497,-3.497,-3.497,-3.497,-3.497,-3.497,-3.497,-3.497,-3.497,-3.497,-3.497,-3.497,-3.497,-3.497,-3.497,-3.497,-1.5902,-1.6074,-1.7012,-1.7525,-1.76,-1.7899,-1.7925,-1.7694,-1.7744,-1.7581,-1.7403,-1.6936,-1.6731,-1.6553,-1.6865,-1.7155,-1.7209,-1.7947,-1.8434,-1.8677,-1.8921,-1.9414,-1.9664,-1.9664,-1.9664,-1.9664,-1.9664,-1.9664,-1.9664,-1.9664,-1.9664,-1.9664,-1.9664,-1.9664,-1.9664,-1.9664,-1.9664,-1.9685,-1.9739,-1.9854,-2.0003,-2.0146,-2.0234,-2.0234,-2.0302,-2.0329,-2.0336,-2.0349,-2.0349,-2.0349,-2.0349,-2.0349,-2.0329,-2.0282,-2.0227,-2.0214,-2.0037,-1.9888,-1.9793,-1.9712,-1.9678,-1.9664,-1.9664,-1.9664,-1.9664,-1.9901,-2.0144,-2.0144,-2.063,-2.0872,-2.1108,-2.135,-2.16,-2.2077,-2.2319,-2.2561,-2.2795,-2.3045,-2.3262,-2.3528,-2.4011,-2.4966,-2.6159,-2.7118,-2.8075,-2.8792,-2.9745,-3.0696,-3.1892,-3.2838,-3.3782,-3.4735,-3.497,-3.497,-3.497,-3.497,-3.497,-3.497,-3.497,-3.497,-3.497,-3.497,-3.497,-3.497,-3.497,-3.497,-3.497,-3.497,-3.497,-3.497,-3.497,-3.497,-3.497,-3.497,-3.497,-1.5591,-1.601,-1.6692,-1.6977,-1.7061,-1.733,-1.7348,-1.7109,-1.7151,-1.7218,-1.7043,-1.6588,-1.616,-1.5983,-1.6227,-1.6477,-1.6477,-1.7215,-1.7703,-1.8184,-1.8677,-1.8921,-1.9414,-1.9421,-1.9664,-1.9664,-1.9664,-1.9664,-1.9664,-1.9664,-1.9664,-1.9664,-1.9664,-1.9664,-1.9671,-1.9712,-1.9752,-1.982,-1.9942,-2.0051,-2.0166,-2.0302,-2.0363,-2.041,-2.0471,-2.0539,-2.0539,-2.0526,-2.0526,-2.0519,-2.0512,-2.0499,-2.0485,-2.0424,-2.0383,-2.0349,-2.022,-2.0105,-1.9976,-1.9861,-1.9725,-1.9671,-1.9664,-1.9664,-1.9664,-1.9664,-1.9664,-1.9908,-2.0144,-2.0387,-2.0387,-2.0872,-2.0872,-2.1115,-2.1358,-2.1358,-2.1358,-2.1843,-2.2077,-2.2561,-2.2803,-2.3045,-2.4244,-2.5448,-2.6408,-2.7367,-2.8563,-2.9993,-3.1419,-3.285,-3.3782,-3.45,-3.497,-3.497,-3.497,-3.497,-3.497,-3.497,-3.497,-3.497,-3.497,-3.497,-3.497,-3.497,-3.497,-3.497,-3.497,-3.497,-3.497,-3.497,-3.497,-3.497,-3.497,-3.497,-3.497,-1.545,-1.5778,-1.6147,-1.6351,-1.6374,-1.72,-1.7007,-1.6536,-1.664,-1.6443,-1.621,-1.5983,-1.5977,-1.5755,-1.5999,-1.5999,-1.5999,-1.6482,-1.6971,-1.7459,-1.7947,-1.8677,-1.8927,-1.9414,-1.9664,-1.9664,-1.9664,-1.9664,-1.9664,-1.9664,-1.9664,-1.9664,-1.9671,-1.9664,-1.9719,-1.9807,-1.9929,-2.0031,-2.0166,-2.0248,-2.0329,-2.0424,-2.0499,-2.0512,-2.0526,-2.0539,-2.0539,-2.0539,-2.0539,-2.0539,-2.0539,-2.0539,-2.0532,-2.0512,-2.0485,-2.0458,-2.0383,-2.0288,-2.0187,-1.9997,-1.9807,-1.9712,-1.9664,-1.9664,-1.9664,-1.9664,-1.9664,-1.9664,-1.9908,-1.9908,-1.9908,-1.9908,-2.0144,-2.0387,-2.063,-2.063,-2.0872,-2.1115,-2.1358,-2.1593,-2.1835,-2.2077,-2.2561,-2.3761,-2.5456,-2.6658,-2.8334,-2.9755,-3.1429,-3.2613,-3.331,-3.4017,-3.4735,-3.497,-3.497,-3.497,-3.497,-3.497,-3.497,-3.497,-3.497,-3.497,-3.497,-3.497,-3.497,-3.497,-3.497,-3.497,-3.497,-3.497,-3.497,-3.497,-3.497,-3.497,-3.497,-1.5641,-1.5679,-1.5878,-1.6098,-1.6104,-1.6391,-1.6414,-1.6182,-1.6221,-1.5994,-1.5755,-1.5755,-1.5755,-1.5755,-1.5755,-1.5755,-1.5755,-1.5999,-1.6238,-1.6727,-1.7215,-1.7947,-1.8434,-1.8921,-1.9171,-1.9664,-1.9664,-1.9664,-1.9664,-1.9678,-1.9732,-1.9739,-1.9719,-1.9732,-1.98,-1.9942,-2.0092,-2.0207,-2.0302,-2.0363,-2.0465,-2.0492,-2.0539,-2.0539,-2.0539,-2.0539,-2.0539,-2.0539,-2.0539,-2.0539,-2.0539,-2.0539,-2.0539,-2.0539,-2.0539,-2.0539,-2.0471,-2.0417,-2.0322,-2.0132,-1.9949,-1.9807,-1.9725,-1.9664,-1.9671,-1.9664,-1.9664,-1.9664,-1.9664,-1.9664,-1.9664,-1.9664,-1.9908,-1.9664,-1.9901,-2.0144,-2.0144,-2.063,-2.063,-2.0872,-2.0872,-2.1115,-2.1593,-2.2319,-2.4252,-2.5937,-2.7616,-2.9517,-3.0944,-3.2377,-3.3074,-3.3782,-3.4488,-3.497,-3.497,-3.497,-3.497,-3.497,-3.497,-3.497,-3.497,-3.497,-3.497,-3.497,-3.497,-3.497,-3.497,-3.497,-3.497,-3.497,-3.497,-3.497,-3.497,-3.497,-3.497,-1.5755,-1.5755,-1.5755,-1.5755,-1.5755,-1.5755,-1.5755,-1.5755,-1.5755,-1.5755,-1.5755,-1.5755,-1.5755,-1.5755,-1.5755,-1.5755,-1.5755,-1.5999,-1.5999,-1.6482,-1.6727,-1.7453,-1.819,-1.8677,-1.9171,-1.9664,-1.9664,-1.9671,-1.9739,-1.9725,-1.9813,-1.9875,-1.9854,-1.9881,-1.9949,-2.0092,-2.0248,-2.0356,-2.0404,-2.0431,-2.0532,-2.0539,-2.0539,-2.0539,-2.0539,-2.0539,-2.0539,-2.0539,-2.0539,-2.0539,-2.0539,-2.0539,-2.0539,-2.0539,-2.0539,-2.0539,-2.0526,-2.0485,-2.0383,-2.02,-2.0037,-1.9868,-1.9793,-1.9719,-1.9678,-1.9664,-1.9664,-1.9664,-1.9664,-1.9664,-1.9664,-1.9664,-1.9664,-1.9664,-1.9664,-1.9908,-1.9908,-2.0151,-1.9908,-1.9908,-2.0144,-2.0387,-2.135,-2.2077,-2.4003,-2.5697,-2.7367,-2.904,-3.0469,-3.1892,-3.2838,-3.3546,-3.4264,-3.45,-3.4957,-3.497,-3.497,-3.497,-3.497,-3.497,-3.497,-3.497,-3.497,-3.497,-3.497,-3.497,-3.497,-3.497,-3.497,-3.497,-3.497,-3.497,-3.497,-3.497,-3.497,-1.5755,-1.5755,-1.5755,-1.5755,-1.5755,-1.5755,-1.5755,-1.5755,-1.5755,-1.5755,-1.5755,-1.5755,-1.5755,-1.5755,-1.5755,-1.5755,-1.5755,-1.5755,-1.5999,-1.5994,-1.6238,-1.6971,-1.7703,-1.819,-1.8697,-1.9421,-1.9698,-1.9515,-1.9868,-1.9875,-1.9956,-2.0064,-2.0092,-2.0092,-2.0112,-2.0248,-2.0397,-2.0512,-2.0519,-2.0526,-2.0532,-2.0539,-2.0539,-2.0539,-2.0539,-2.0539,-2.0539,-2.0539,-2.0539,-2.0539,-2.0539,-2.0539,-2.0539,-2.0539,-2.0539,-2.0539,-2.0539,-2.0532,-2.0512,-2.0254,-2.0092,-1.9963,-1.9915,-1.982,-1.9712,-1.9678,-1.9671,-1.9678,-1.9664,-1.9664,-1.9664,-1.9664,-1.9664,-1.9664,-1.9664,-1.9664,-1.9664,-1.9664,-1.9664,-1.9664,-1.9664,-2.0144,-2.1108,-2.2319,-2.4003,-2.5688,-2.7358,-2.8792,-2.9993,-3.1181,-3.2366,-3.331,-3.4029,-3.4488,-3.4723,-3.497,-3.497,-3.497,-3.497,-3.497,-3.497,-3.497,-3.497,-3.497,-3.497,-3.497,-3.497,-3.497,-3.497,-3.497,-3.497,-3.497,-3.497,-3.497,-3.497,-1.5755,-1.5755,-1.5755,-1.5755,-1.5755,-1.5755,-1.5755,-1.5755,-1.5755,-1.5755,-1.5755,-1.5755,-1.5755,-1.5755,-1.5755,-1.5755,-1.5755,-1.5755,-1.5755,-1.576,-1.6005,-1.6482,-1.6977,-1.7495,-1.8008,-1.88,-1.9078,-1.9389,-2.0024,-2.0024,-2.0112,-2.0227,-2.0309,-2.0336,-2.0315,-2.039,-2.0505,-2.0532,-2.0532,-2.0539,-2.0539,-2.0539,-2.0539,-2.0539,-2.0539,-2.0539,-2.0539,-2.0539,-2.0539,-2.0539,-2.0539,-2.0539,-2.0539,-2.0539,-2.0539,-2.0539,-2.0539,-2.0539,-2.0532,-2.0417,-2.0336,-2.02,-2.0071,-1.9963,-1.9827,-1.9807,-1.9759,-1.9685,-1.9671,-1.9671,-1.9664,-1.9664,-1.9664,-1.9664,-1.9664,-1.9664,-1.9664,-1.9664,-1.9664,-1.9664,-1.9664,-1.9901,-2.063,-2.1593,-2.3278,-2.4726,-2.6408,-2.8085,-2.9517,-3.0707,-3.1903,-3.285,-3.3793,-3.4264,-3.4723,-3.497,-3.497,-3.497,-3.497,-3.497,-3.497,-3.497,-3.497,-3.497,-3.497,-3.497,-3.497,-3.497,-3.497,-3.497,-3.497,-3.497,-3.497,-3.497,-3.497,-1.5755,-1.5755,-1.5755,-1.5755,-1.5755,-1.5755,-1.5755,-1.5755,-1.5755,-1.5755,-1.5755,-1.5755,-1.5755,-1.5755,-1.5755,-1.5755,-1.5755,-1.5755,-1.5804,-1.5804,-1.5815,-1.6345,-1.6608,-1.6854,-1.7664,-1.8454,-1.8733,-1.9038,-1.9424,-1.9674,-2.001,-2.039,-2.0485,-2.0465,-2.0451,-2.0492,-2.0532,-2.0539,-2.0539,-2.0539,-2.0539,-2.0539,-2.0539,-2.0539,-2.0539,-2.0539,-2.0539,-2.0539,-2.0539,-2.0539,-2.0539,-2.0539,-2.0539,-2.0539,-2.0539,-2.0539,-2.0539,-2.0539,-2.0532,-2.0532,-2.0451,-2.0397,-2.0268,-2.0119,-1.9969,-1.9895,-1.9827,-1.9759,-1.9705,-1.9678,-1.9671,-1.9671,-1.9664,-1.9664,-1.9664,-1.9664,-1.9664,-1.9664,-1.9664,-1.9664,-1.9664,-2.0144,-2.0387,-2.1108,-2.2319,-2.377,-2.5216,-2.6888,-2.8802,-2.9993,-3.1429,-3.2613,-3.3546,-3.4017,-3.45,-3.497,-3.497,-3.497,-3.497,-3.497,-3.497,-3.497,-3.497,-3.497,-3.497,-3.497,-3.497,-3.497,-3.497,-3.497,-3.497,-3.497,-3.497,-3.497,-3.497,-1.5755,-1.5755,-1.5755,-1.5755,-1.5755,-1.5755,-1.5755,-1.5755,-1.5755,-1.5755,-1.5755,-1.5755,-1.5766,-1.5771,-1.5766,-1.5787,-1.5804,-1.5804,-1.5853,-1.5907,-1.5929,-1.649,-1.679,-1.7062,-1.7322,-1.7839,-1.8124,-1.8179,-1.8547,-1.9064,-1.9646,-2.0238,-2.0272,-2.0272,-2.0526,-2.0526,-2.0539,-2.0539,-2.0539,-2.0539,-2.0539,-2.0539,-2.0539,-2.0539,-2.0539,-2.0539,-2.0539,-2.0539,-2.0539,-2.0539,-2.0539,-2.0539,-2.0539,-2.0539,-2.0539,-2.0539,-2.0539,-2.0539,-2.0539,-2.0539,-2.0532,-2.0485,-2.041,-2.0268,-2.0139,-2.0024,-1.9963,-1.9868,-1.9793,-1.9732,-1.9685,-1.9678,-1.9664,-1.9664,-1.9664,-1.9664,-1.9664,-1.9664,-1.9664,-1.9664,-1.9664,-1.9908,-2.0144,-2.0872,-2.1835,-2.2803,-2.4493,-2.6408,-2.8085,-2.9279,-3.0944,-3.2613,-3.3322,-3.3782,-3.4253,-3.497,-3.497,-3.497,-3.497,-3.497,-3.497,-3.497,-3.497,-3.497,-3.497,-3.497,-3.497,-3.497,-3.497,-3.497,-3.497,-3.497,-3.497,-3.497,-3.497,-1.5755,-1.5755,-1.5755,-1.5755,-1.5755,-1.5755,-1.5755,-1.5755,-1.5755,-1.5755,-1.5755,-1.5755,-1.5815,-1.5874,-1.5874,-1.5929,-1.5972,-1.601,-1.6021,-1.6043,-1.6054,-1.6081,-1.6353,-1.6636,-1.6915,-1.7212,-1.751,-1.7803,-1.8412,-1.869,-1.895,-1.977,-1.9776,-2.0037,-2.0285,-2.0539,-2.0539,-2.0539,-2.0539,-2.0539,-2.0539,-2.0539,-2.0539,-2.0539,-2.0539,-2.0539,-2.0539,-2.0539,-2.0539,-2.0539,-2.0539,-2.0539,-2.0539,-2.0539,-2.0539,-2.0539,-2.0539,-2.0539,-2.0539,-2.0539,-2.0539,-2.0539,-2.0492,-2.0417,-2.0302,-2.02,-2.0126,-2.0024,-1.9908,-1.9841,-1.978,-1.9752,-1.9725,-1.9705,-1.9691,-1.9664,-1.9664,-1.9664,-1.9664,-1.9664,-1.9664,-1.9664,-1.9908,-2.0872,-2.1835,-2.2561,-2.377,-2.5688,-2.7367,-2.8802,-3.0707,-3.2602,-3.3322,-3.3546,-3.4264,-3.497,-3.497,-3.497,-3.497,-3.497,-3.497,-3.497,-3.497,-3.497,-3.497,-3.497,-3.497,-3.497,-3.497,-3.497,-3.497,-3.497,-3.497,-3.497,-3.497,-1.5755,-1.576,-1.5804,-1.5847,-1.5891,-1.5896,-1.5896,-1.5885,-1.5847,-1.5847,-1.5891,-1.5896,-1.5929,-1.5983,-1.5999,-1.6027,-1.6086,-1.6086,-1.6114,-1.6173,-1.6179,-1.6228,-1.6228,-1.6244,-1.6551,-1.6844,-1.7125,-1.7148,-1.7726,-1.7993,-1.8503,-1.9013,-1.9274,-1.9776,-2.0031,-2.0285,-2.0539,-2.0539,-2.0539,-2.0539,-2.0539,-2.0539,-2.0539,-2.0539,-2.0539,-2.0539,-2.0539,-2.0539,-2.0539,-2.0539,-2.0539,-2.0539,-2.0539,-2.0539,-2.0539,-2.0539,-2.0539,-2.0539,-2.0539,-2.0539,-2.0539,-2.0539,-2.0539,-2.0492,-2.0424,-2.0336,-2.0268,-2.0187,-2.0058,-1.9956,-1.9902,-1.9847,-1.98,-1.9752,-1.9712,-1.9664,-1.9664,-1.9664,-1.9664,-1.9664,-1.9664,-1.9664,-2.0151,-2.1115,-2.1835,-2.2319,-2.377,-2.5688,-2.7367,-2.8563,-3.0469,-3.2602,-3.3086,-3.3558,-3.4264,-3.497,-3.497,-3.497,-3.497,-3.497,-3.497,-3.497,-3.497,-3.497,-3.497,-3.497,-3.497,-3.497,-3.497,-3.497,-3.497,-3.497,-3.497,-3.497,-3.497,-1.5777,-1.5798,-1.5896,-1.5994,-1.6097,-1.6092,-1.6097,-1.6108,-1.6016,-1.601,-1.6081,-1.6097,-1.6092,-1.6114,-1.6119,-1.6141,-1.6184,-1.6201,-1.6239,-1.6304,-1.6304,-1.6342,-1.6402,-1.6462,-1.6418,-1.6451,-1.6462,-1.67,-1.6717,-1.7233,-1.7738,-1.8503,-1.9013,-1.9267,-1.9783,-2.0031,-2.0285,-2.0539,-2.0539,-2.0539,-2.0539,-2.0539,-2.0539,-2.0539,-2.0539,-2.0539,-2.0539,-2.0539,-2.0539,-2.0539,-2.0539,-2.0539,-2.0539,-2.0539,-2.0539,-2.0539,-2.0539,-2.0539,-2.0539,-2.0539,-2.0539,-2.0539,-2.0539,-2.0526,-2.0478,-2.0431,-2.037,-2.0329,-2.0214,-2.0139,-2.0085,-1.9976,-1.9902,-1.9834,-1.9773,-1.9712,-1.9664,-1.9664,-1.9664,-1.9664,-1.9664,-1.9664,-1.9908,-2.063,-2.135,-2.2077,-2.352,-2.5688,-2.7128,-2.8324,-3.0469,-3.2613,-3.3074,-3.3546,-3.45,-3.497,-3.497,-3.497,-3.497,-3.497,-3.497,-3.497,-3.497,-3.497,-3.497,-3.497,-3.497,-3.497,-3.497,-3.497,-3.497,-3.497,-3.497,-3.497,-3.497,-1.5945,-1.6021,-1.6048,-1.6081,-1.6108,-1.6108,-1.6163,-1.6239,-1.6222,-1.6168,-1.6119,-1.6119,-1.6168,-1.6239,-1.6244,-1.6277,-1.6347,-1.6336,-1.6391,-1.6407,-1.6413,-1.6413,-1.6462,-1.6472,-1.6472,-1.6472,-1.6472,-1.6472,-1.6472,-1.6723,-1.6978,-1.7738,-1.7993,-1.8503,-1.9274,-1.9783,-2.0031,-2.0539,-2.0539,-2.0539,-2.0539,-2.0539,-2.0539,-2.0539,-2.0539,-2.0539,-2.0539,-2.0539,-2.0539,-2.0539,-2.0539,-2.0539,-2.0539,-2.0539,-2.0539,-2.0539,-2.0539,-2.0539,-2.0539,-2.0539,-2.0539,-2.0539,-2.0539,-2.0539,-2.0526,-2.0505,-2.0471,-2.0438,-2.039,-2.0322,-2.0241,-2.0126,-2.0017,-1.9936,-1.9847,-1.9766,-1.9691,-1.9678,-1.9678,-1.9664,-1.9664,-1.9664,-1.9908,-2.0387,-2.0872,-2.2077,-2.352,-2.5198,-2.6648,-2.8085,-3.0231,-3.2129,-3.2838,-3.3546,-3.4488,-3.497,-3.497,-3.497,-3.497,-3.497,-3.497,-3.497,-3.497,-3.497,-3.497,-3.497,-3.497,-3.497,-3.497,-3.497,-3.497,-3.497,-3.497,-3.497,-3.497,-1.6048,-1.6114,-1.6168,-1.6222,-1.6266,-1.6266,-1.6309,-1.6364,-1.6369,-1.6336,-1.6277,-1.6271,-1.6304,-1.6364,-1.6369,-1.6385,-1.6467,-1.6467,-1.6456,-1.6462,-1.6472,-1.6467,-1.6472,-1.6472,-1.6472,-1.6472,-1.6472,-1.6472,-1.6472,-1.6472,-1.6723,-1.6978,-1.7233,-1.7999,-1.9019,-1.9267,-1.9783,-2.0546,-2.0539,-2.0539,-2.0539,-2.0539,-2.0539,-2.0539,-2.0539,-2.0546,-2.0539,-2.0539,-2.0539,-2.0539,-2.0539,-2.0539,-2.0539,-2.0539,-2.0539,-2.0539,-2.0539,-2.0539,-2.0539,-2.0539,-2.0539,-2.0539,-2.0539,-2.0539,-2.0539,-2.0519,-2.0519,-2.0485,-2.0478,-2.0424,-2.0383,-2.0288,-2.0214,-2.0139,-2.0024,-1.9929,-1.9841,-1.9786,-1.9732,-1.9664,-1.9664,-1.9664,-1.9901,-2.0144,-2.0872,-2.1593,-2.3278,-2.4726,-2.6168,-2.7607,-2.9755,-3.1419,-3.2366,-3.331,-3.4253,-3.4723,-3.497,-3.497,-3.497,-3.497,-3.497,-3.497,-3.497,-3.497,-3.497,-3.497,-3.497,-3.497,-3.497,-3.497,-3.497,-3.497,-3.497,-3.497,-3.497,-1.6141,-1.6168,-1.6271,-1.6369,-1.6462,-1.6467,-1.6462,-1.6467,-1.6467,-1.6467,-1.6451,-1.6451,-1.6472,-1.6472,-1.6472,-1.6472,-1.6472,-1.6472,-1.6472,-1.6472,-1.6472,-1.6472,-1.6472,-1.6472,-1.6472,-1.6472,-1.6472,-1.6472,-1.6472,-1.6472,-1.6472,-1.6728,-1.6978,-1.7744,-1.8248,-1.9013,-1.9528,-2.0031,-2.0285,-2.0539,-2.0539,-2.0546,-2.056,-2.056,-2.0566,-2.058,-2.0594,-2.06,-2.0607,-2.06,-2.0614,-2.06,-2.0573,-2.0566,-2.0539,-2.0539,-2.0539,-2.0539,-2.0539,-2.0539,-2.0539,-2.0539,-2.0539,-2.0539,-2.0539,-2.0539,-2.0539,-2.0539,-2.0532,-2.0519,-2.0478,-2.0444,-2.0376,-2.0288,-2.0166,-2.0064,-1.9976,-1.9902,-1.982,-1.9732,-1.9712,-1.9712,-1.9942,-2.0178,-2.088,-2.1608,-2.2803,-2.4244,-2.5928,-2.7128,-2.8802,-3.0469,-3.1667,-3.2602,-3.3782,-3.4253,-3.4735,-3.497,-3.497,-3.497,-3.497,-3.497,-3.497,-3.497,-3.497,-3.497,-3.497,-3.497,-3.497,-3.497,-3.497,-3.497,-3.497,-3.497,-3.497,-1.6315,-1.6407,-1.6429,-1.6451,-1.6472,-1.6472,-1.6472,-1.6472,-1.6472,-1.6472,-1.6472,-1.6472,-1.6472,-1.6472,-1.6472,-1.6472,-1.6472,-1.6472,-1.6472,-1.6472,-1.6472,-1.6472,-1.6472,-1.6472,-1.6472,-1.6472,-1.6472,-1.6472,-1.6472,-1.6472,-1.6472,-1.6472,-1.6472,-1.6978,-1.7738,-1.8503,-1.9013,-1.9783,-2.0305,-2.0566,-2.056,-2.058,-2.0634,-2.0668,-2.0722,-2.0811,-2.0872,-2.0906,-2.0912,-2.0878,-2.0797,-2.0743,-2.0689,-2.0634,-2.0587,-2.0566,-2.0566,-2.0539,-2.0539,-2.0539,-2.0539,-2.0539,-2.0539,-2.0539,-2.0539,-2.0539,-2.0539,-2.0539,-2.0532,-2.0532,-2.0512,-2.0512,-2.0458,-2.0343,-2.0227,-2.0153,-2.0078,-2.0058,-2.0024,-1.9942,-1.9888,-1.9868,-1.9834,-2.0283,-2.0436,-2.1159,-2.2115,-2.3552,-2.5216,-2.6648,-2.8095,-2.9527,-3.0717,-3.2366,-3.3546,-3.4017,-3.4253,-3.4735,-3.497,-3.497,-3.497,-3.497,-3.497,-3.497,-3.497,-3.497,-3.497,-3.497,-3.497,-3.497,-3.497,-3.497,-3.497,-3.497,-3.497]}]]